[[{"header":{"parameterUnit":"m.s-1","parameterCategory":1,"la1":30.6,"la2":29.2853,"lo1":-89.7004,"lo2":-87.6739,"dy":0.0162,"dx":0.0183,"nx":112,"ny":82,"refTime":"2023-04-29T12:00:00:Z","depth":0,"parameterNumber":2,"parameterNumberName":"U-component_of_WINDS"},"data":[0.0,0.0,0.0,0.0,0.0,0.0,0.0,0.0,0.0,0.0,0.0,0.0,0.0,0.0,0.0,0.0,0.0,0.0,0.0,0.0,0.0,0.0,0.0,0.0,0.0,0.0,0.0,0.0,0.0,0.0,0.0,0.0,0.0,0.0,0.0,0.0,0.0,0.0,0.0,0.0,0.0,0.0,0.0,0.0,0.0,0.0,0.0,0.0,0.0,0.0,0.0,0.0,0.0,0.0,0.0,0.0,0.0,0.0,0.0,0.0,0.0,0.0,0.0,0.0,0.0,0.0,0.0,0.0,0.0,0.0,0.0,0.0,0.0,0.0,0.0,0.0,0.0,0.0,0.0,0.0,0.0,0.0,0.0,0.0,0.0,0.0,0.0,0.0,0.0,0.0,0.0,-0.0313,-0.0313,-0.0235,-0.0078,0.0783,0.1408,0.1564,0.0,0.0,0.0,0.0,0.0,0.0,0.0,0.0,0.0,0.0,0.0,0.0,0.0,0.0,0.0,0.0,0.0,0.0,0.0,0.0,0.0,0.0,0.0,0.0,0.0,0.0,0.0,0.0,0.0,0.0,0.0,0.0,0.0,0.0,0.0,0.0,0.0,0.0,0.0,0.0,0.0,0.0,0.0,0.0,0.0,0.0,0.0,0.0,0.0,0.0,0.0,0.0,0.0,0.0,0.0,0.0,0.0,0.0,0.0,0.0,0.0,0.0,0.0,0.0,0.0,0.0,0.0,0.0,0.0,0.0,0.0,0.0,0.0,0.0,0.0,0.0,0.0,0.0,0.0,0.0,0.0,0.0,0.0,0.0,0.0,0.0,0.0,0.0,0.0,0.0,0.0,0.0,0.0,0.0,0.0,0.0,0.0,0.0,0.0,0.0,0.0,0.0,0.0,0.0,-0.1649,-0.1649,-0.1649,-0.1571,-0.1571,-0.1256,-0.0706,0.0235,0.0,0.0,0.0,0.0,0.0,0.0,0.0,0.0,0.0,0.0,0.0,0.0,0.0,0.0,0.0,0.0,0.0,0.0,0.0,0.0,0.0,0.0,0.0,0.0,0.0,0.0,0.0,0.0,0.0,0.0,0.0,0.0,0.0,0.0,0.0,0.0,0.0,0.0,0.0,0.0,0.0,0.0,0.0,0.0,0.0,0.0,0.0,0.0,0.0,0.0,0.0,0.0,0.0,0.0,0.0,0.0,0.0,0.0,0.0,0.0,0.0,0.0,0.0,0.0,0.0,0.0,0.0,0.0,0.0,0.0,0.0,0.0,0.0,0.0,0.0,0.0,0.0,0.0,0.0,0.0,0.0,0.0,0.0,0.0,0.0,0.0,0.0,0.0,0.0,0.0,0.0,0.0,0.0,0.0,0.0,0.0,0.0,0.0,0.0,0.0,0.0,0.0,0.0,-0.2978,-0.3054,-0.3521,-0.3132,-0.2821,-0.2588,-0.2042,-0.1571,-0.1099,0.0392,0.0,0.0,0.0,0.0,0.0,0.0,0.0,0.0,0.0,0.0,0.0,0.0,0.0,0.0,0.0,0.0,0.0,0.0,0.0,0.0,0.0,0.0,0.0,0.0,0.0,0.0,0.0,0.0,0.0,0.0,0.0,0.0,0.0,0.0,0.0,0.0,0.0,0.0,0.0,0.0,0.0,0.0,0.0,0.0,0.0,0.0,0.0,0.0,0.0,0.0,0.0,0.0,0.0,0.0,0.0,0.0,0.0,0.0,0.0,0.0,0.0,0.0,0.0,0.0,0.0,0.0,0.0,0.0,0.0,0.0,0.0,0.0,0.0,0.0,0.0,0.0,0.0,0.0,0.0,0.0,0.0,0.0,0.0,0.0,0.0,0.0,0.0,0.0,0.0,0.0,0.0,0.0,0.0,0.0,0.0,0.0,0.0,0.0,0.0,0.0,0.0,0.0,-0.4295,-0.437,-0.5068,-0.4525,-0.4062,-0.3752,-0.3054,-0.2511,-0.2356,-0.1489,0.0,0.0,0.0,0.0,0.0,0.0,0.0,0.0,0.0,0.0,0.0,0.0,0.0,0.0,0.0,0.0,0.0,0.0,0.0,0.0,0.0,0.0,0.0,0.0,0.0,0.0,0.0,0.0,0.0,0.0,0.0,0.0,0.0,0.0,0.0,0.0,0.0,0.0,0.0,0.0,0.0,0.0,0.0,0.0,0.0,0.0,0.0,0.0,0.0,0.0,0.0,0.0,0.0,0.0,0.0,0.0,0.0,0.0,0.0,0.0,0.0,0.0,0.0,0.0,0.0,0.0,0.0,0.0,0.0,0.0,0.0,0.0,0.0,0.0,0.0,0.0,0.0,0.0,0.0,0.0,0.0,0.0,0.0,0.0,0.0,0.0,0.0,0.0,0.0,0.0,0.0,0.0,0.0,0.0,0.0,0.0,0.0,0.0,0.0,0.0,0.0,0.0,-0.5452,-0.5452,-0.5529,-0.5529,-0.5452,-0.5452,-0.5065,-0.4448,-0.3597,-0.313,0.0,0.0,0.0,0.0,0.0,0.0,0.0,0.0,0.0,0.0,0.0,0.0,0.0,0.0,0.0,0.0,0.0,0.0,0.0,0.0,0.0,0.0,0.0,0.0,0.0,0.0,0.0,0.0,0.0,0.0,0.0,0.0,0.0,0.0,0.0,0.0,0.0,0.0,0.0,0.0,0.0,0.0,0.0,0.0,0.0,0.0,0.0,0.0,0.0,0.0,0.0,0.0,0.0,0.0,0.0,0.0,0.0,0.0,0.0,0.0,0.0,0.0,0.0,0.0,0.0,0.0,0.0,0.0,0.0,0.0,0.0,0.0,0.0,0.0,0.0,0.0,0.0,0.0,0.0,0.0,0.0,0.0,0.0,0.0,0.0,0.0,0.0,0.0,0.0,0.0,0.0,0.0,0.0,0.0,0.0,0.0,0.0,0.0,0.0,0.0,0.0,0.0,-0.7061,-0.7145,0.0,-0.7298,-0.6842,-0.6468,-0.5764,-0.5146,-0.4761,0.0,0.0,0.0,0.0,0.0,0.0,0.0,0.0,0.0,0.0,0.0,0.0,0.0,0.0,0.0,0.0,0.0,0.0,0.0,0.0,0.0,0.0,0.0,0.0,0.0,0.0,0.0,0.0,0.0,0.0,0.0,0.0,0.0,0.0,0.0,0.0,0.0,0.0,0.0,0.0,0.0,0.0,0.0,0.0,0.0,0.0,0.0,0.0,0.0,0.0,0.0,0.0,0.0,0.0,0.0,0.0,0.0,0.0,0.0,0.0,0.0,0.0,0.0,0.0,0.0,0.0,0.0,0.0,0.0,0.0,0.0,0.0,0.0,0.0,0.0,0.0,0.0,0.0,0.0,0.0,0.0,0.0,0.0,0.0,0.0,0.0,0.0,0.0,0.0,0.0,0.0,0.0,0.0,0.0,0.0,0.0,0.0,0.0,0.0,0.0,0.0,0.0,-0.8584,-0.8581,-0.8685,0.0,-0.8765,-0.8304,-0.7855,-0.723,-0.6685,-0.615,0.0,0.0,0.0,0.0,0.0,0.0,0.0,0.0,0.0,0.0,0.0,0.0,0.0,0.0,0.0,0.0,0.0,0.0,0.0,0.0,0.0,0.0,0.0,0.0,0.0,0.0,0.0,0.0,0.0,0.0,0.0,0.0,0.0,0.0,0.0,0.0,0.0,0.0,0.0,0.0,0.0,0.0,0.0,0.0,0.0,0.0,0.0,0.0,0.0,0.0,0.0,0.0,0.0,0.0,0.0,0.0,0.0,0.0,0.0,0.0,0.0,0.0,0.0,0.0,0.0,0.0,0.0,0.0,0.0,0.0,0.0,0.0,0.0,0.0,0.0,0.0,0.0,0.0,0.0,0.0,0.0,0.0,0.0,0.0,0.0,0.0,0.0,0.0,0.0,0.0,0.0,0.0,0.0,0.0,0.0,0.0,0.0,0.0,0.0,0.0,0.0,0.0,-1.0199,-1.0073,-0.9927,-0.9927,-0.9927,-0.9927,-0.9927,-0.9706,-0.9084,0.0,0.0,0.0,0.0,0.0,0.0,0.0,0.0,0.0,0.0,0.0,0.0,0.0,0.0,0.0,0.0,0.0,0.0,0.0,0.0,0.0,0.0,0.0,0.0,0.0,0.0,0.0,0.0,0.0,0.0,0.0,0.0,0.0,0.0,0.0,0.0,0.0,0.0,0.0,0.0,0.0,0.0,0.0,0.0,0.0,0.0,0.0,0.0,0.0,0.0,0.0,0.0,0.0,0.0,0.0,0.0,0.0,0.0,0.0,0.0,0.0,0.0,0.0,0.0,0.0,0.0,0.0,0.0,0.0,0.0,0.0,0.0,0.0,0.0,0.0,0.0,0.0,0.0,0.0,0.0,0.0,0.0,0.0,0.0,0.0,0.0,0.0,0.0,0.0,0.0,0.0,0.0,0.0,0.0,0.0,0.0,0.0,0.0,0.0,0.0,0.0,0.0,0.0,-1.1404,-1.1295,-1.1219,-1.1359,-1.1359,-1.1201,-1.0807,-1.0655,-1.0258,-0.9388,0.0,0.0,0.0,0.0,0.0,0.0,0.0,0.0,0.0,0.0,0.0,0.0,0.0,0.0,0.0,0.0,0.0,0.0,0.0,0.0,0.0,0.0,0.0,0.0,0.0,0.0,0.0,0.0,0.0,0.0,0.0,0.0,0.0,0.0,0.0,0.0,0.0,0.0,0.0,0.0,0.0,0.0,0.0,0.0,0.0,0.0,0.0,0.0,0.0,0.0,0.0,0.0,0.0,0.0,0.0,0.0,0.0,0.0,0.0,0.0,0.0,0.0,0.0,0.0,0.0,0.0,0.0,0.0,0.0,0.0,0.0,0.0,0.0,0.0,0.0,0.0,0.0,0.0,0.0,0.0,0.0,0.0,0.0,0.0,0.0,0.0,0.0,0.0,0.0,0.0,0.0,0.0,0.0,0.0,0.0,0.0,0.0,0.0,0.0,0.0,0.0,0.0,-1.2377,-1.2488,-1.2473,-1.2234,-1.2234,-1.2227,-1.2215,-1.2062,-1.183,-1.1576,0.0,0.0,0.0,0.0,0.0,0.0,0.0,0.0,0.0,0.0,0.0,0.0,0.0,0.0,0.0,0.0,0.0,0.0,0.0,0.0,0.0,0.0,0.0,0.0,0.0,0.0,0.0,0.0,0.0,0.0,0.0,0.0,0.0,0.0,0.0,0.0,0.0,0.0,0.0,0.0,0.0,0.0,0.0,0.0,0.0,0.0,0.0,0.0,0.0,0.0,0.0,0.0,0.0,0.0,0.0,0.0,0.0,0.0,0.0,0.0,0.0,0.0,0.0,0.0,0.0,0.0,0.0,0.0,0.0,0.0,0.0,0.0,0.0,0.0,0.0,0.0,0.0,0.0,0.0,0.0,0.0,0.0,0.0,0.0,0.0,0.0,0.0,0.0,0.0,0.0,0.0,0.0,0.0,0.0,0.0,0.0,0.0,0.0,0.0,0.0,0.0,0.0,-1.3257,-1.3822,-1.3887,-1.3114,-1.3034,-1.3346,-1.4116,-1.3815,-1.3794,-1.413,0.0,0.0,0.0,0.0,0.0,0.0,0.0,0.0,0.0,0.0,0.0,0.0,0.0,0.0,0.0,0.0,0.0,0.0,0.0,0.0,0.0,0.0,0.0,0.0,0.0,0.0,0.0,0.0,0.0,0.0,0.0,0.0,0.0,0.0,0.0,0.0,0.0,0.0,0.0,0.0,0.0,0.0,0.0,0.0,0.0,0.0,0.0,0.0,0.0,0.0,0.0,0.0,0.0,0.0,0.0,0.0,0.0,0.0,0.0,0.0,-2.6453,0.0,0.0,0.0,0.0,0.0,0.0,0.0,0.0,0.0,0.0,0.0,0.0,0.0,0.0,0.0,0.0,0.0,0.0,0.0,0.0,0.0,0.0,0.0,0.0,0.0,0.0,0.0,0.0,0.0,0.0,0.0,0.0,0.0,0.0,0.0,0.0,0.0,0.0,0.0,0.0,0.0,-1.4849,-1.5769,-1.6291,-1.6299,-1.6299,-1.6218,-1.6121,-1.604,-1.5771,-1.5257,-1.4837,0.0,0.0,0.0,0.0,0.0,0.0,0.0,0.0,0.0,0.0,0.0,0.0,0.0,0.0,0.0,0.0,0.0,0.0,0.0,0.0,0.0,0.0,0.0,0.0,0.0,0.0,0.0,0.0,0.0,0.0,0.0,0.0,0.0,0.0,0.0,0.0,0.0,0.0,0.0,0.0,0.0,0.0,0.0,0.0,0.0,0.0,0.0,0.0,0.0,0.0,0.0,0.0,0.0,0.0,0.0,0.0,0.0,0.0,0.0,0.0,-2.664,0.0,0.0,0.0,0.0,0.0,0.0,0.0,0.0,0.0,0.0,0.0,0.0,0.0,0.0,0.0,0.0,0.0,0.0,0.0,0.0,0.0,0.0,0.0,0.0,0.0,0.0,0.0,0.0,0.0,0.0,0.0,0.0,0.0,0.0,0.0,0.0,0.0,0.0,0.0,0.0,-1.6265,-1.7163,-1.7658,-1.7334,-1.7342,-1.7415,-1.7568,-1.7334,-1.7179,-1.7229,-1.6733,0.0,0.0,0.0,0.0,0.0,0.0,0.0,0.0,0.0,0.0,0.0,0.0,0.0,0.0,0.0,0.0,0.0,0.0,0.0,0.0,0.0,0.0,0.0,0.0,0.0,0.0,0.0,0.0,0.0,0.0,0.0,0.0,0.0,0.0,0.0,0.0,0.0,0.0,0.0,0.0,0.0,0.0,0.0,0.0,0.0,0.0,0.0,0.0,0.0,0.0,0.0,0.0,0.0,0.0,-2.9196,-2.912,-2.8795,-2.8636,-2.8636,-2.8299,-2.7775,-2.7225,0.0,0.0,0.0,0.0,0.0,0.0,0.0,0.0,0.0,0.0,0.0,0.0,0.0,0.0,0.0,0.0,0.0,0.0,0.0,0.0,0.0,0.0,0.0,0.0,0.0,-1.7501,-1.7304,0.0,0.0,0.0,0.0,0.0,0.0,0.0,0.0,0.0,0.0,0.0,0.0,-1.7577,-1.839,-1.863,-1.798,-1.79,-1.8149,-1.8807,-1.8416,-1.8345,-1.9082,-1.8514,-1.8054,0.0,0.0,0.0,0.0,0.0,0.0,0.0,0.0,0.0,0.0,0.0,0.0,0.0,0.0,0.0,0.0,0.0,0.0,0.0,0.0,0.0,0.0,0.0,0.0,0.0,0.0,0.0,0.0,0.0,0.0,0.0,0.0,-3.4774,-3.4532,0.0,0.0,0.0,0.0,0.0,0.0,0.0,0.0,0.0,0.0,0.0,0.0,0.0,0.0,-3.0764,-3.0764,-3.0526,-3.0048,-2.9569,-2.9361,-2.9377,-2.8936,-2.8747,-2.8747,-2.87,0.0,-2.763,-2.7515,0.0,0.0,0.0,0.0,0.0,0.0,0.0,0.0,0.0,0.0,0.0,0.0,0.0,0.0,0.0,0.0,0.0,0.0,0.0,0.0,0.0,0.0,-1.8405,-1.8337,-1.8337,-1.8337,0.0,-1.7217,-1.6298,-1.6158,0.0,0.0,0.0,0.0,0.0,0.0,0.0,0.0,-1.8798,-1.9678,-2.0323,-2.0167,-2.0157,-2.0167,-2.0098,-1.9784,-1.9548,-1.9487,-1.9231,-1.8966,-1.8541,-1.8505,0.0,0.0,0.0,0.0,0.0,0.0,0.0,0.0,0.0,0.0,0.0,0.0,0.0,0.0,0.0,0.0,0.0,0.0,0.0,0.0,0.0,0.0,0.0,0.0,0.0,0.0,0.0,0.0,0.0,-3.5138,-3.5088,-3.4889,-3.4675,-3.4464,0.0,0.0,0.0,0.0,0.0,0.0,0.0,0.0,0.0,-3.1559,-3.1559,-3.1445,-3.1196,-3.1218,-3.1123,-3.0885,-3.0234,-3.006,-3.0405,-2.9585,-2.9466,-2.9831,-2.9418,-2.9044,-2.8717,-2.8286,-2.7745,-2.7122,0.0,0.0,0.0,0.0,0.0,-2.4751,-2.4189,0.0,0.0,0.0,0.0,0.0,0.0,0.0,0.0,0.0,0.0,0.0,0.0,0.0,0.0,-1.8808,-1.8741,-1.8684,-1.8684,-1.8252,-1.7922,0.0,-1.8528,-1.9023,-1.8648,0.0,0.0,0.0,0.0,0.0,-2.001,-2.0411,-2.0644,-2.0741,-2.0654,-2.0566,-2.0489,-2.0264,-2.0108,-2.0029,-1.9784,-1.9469,-1.925,-1.9011,-1.8603,0.0,0.0,0.0,0.0,0.0,0.0,0.0,0.0,0.0,0.0,0.0,0.0,0.0,0.0,0.0,0.0,0.0,0.0,0.0,0.0,0.0,0.0,0.0,0.0,0.0,0.0,0.0,0.0,-3.535,-3.5266,-3.5119,-3.4944,-3.4714,0.0,0.0,0.0,0.0,0.0,0.0,-3.3057,-3.2699,-3.23,-3.1821,-3.1711,-3.172,-3.1867,-3.1926,-3.2012,-3.2175,-3.1431,-3.1262,-3.1511,-3.0632,-3.0424,-3.0813,-3.0238,-2.9902,-2.9726,-2.8967,-2.8365,-2.7894,-2.7665,-2.7225,-2.6654,-2.5892,-2.5563,-2.5342,-2.4637,-2.4319,-2.4229,-2.4112,0.0,-2.3747,-2.3747,0.0,0.0,0.0,0.0,-2.0666,-2.0355,-1.977,-1.9264,-1.9198,-1.9142,-1.9008,-1.8942,-1.9257,-1.9424,0.0,-1.9637,-2.0082,-2.0167,0.0,0.0,0.0,0.0,-2.0098,-2.0896,-2.0809,-2.0809,-2.0906,-2.0741,-2.0654,-2.0566,-2.042,-2.0264,-2.0264,-2.0029,-1.9863,-1.9715,-1.9399,-1.9082,-1.8772,0.0,0.0,0.0,0.0,0.0,0.0,0.0,0.0,0.0,0.0,0.0,0.0,0.0,0.0,0.0,0.0,0.0,0.0,0.0,0.0,0.0,0.0,0.0,0.0,0.0,0.0,0.0,0.0,0.0,-3.5379,-3.5258,0.0,0.0,0.0,0.0,-3.4023,-3.3972,-3.3823,-3.3486,-3.3214,-3.2844,-3.2385,-3.2056,-3.2184,-3.2835,-3.2852,-3.3231,-3.3973,-3.3478,-3.2983,-3.2519,-3.2066,-3.163,-3.116,-3.1128,-3.0733,-3.0069,-2.9155,-2.8684,-2.8525,-2.7894,-2.7565,-2.7312,-2.604,-2.5618,-2.5522,-2.4821,-2.4563,-2.4563,-2.4563,-2.4345,-2.4054,-2.4054,-2.3806,0.0,0.0,-2.2531,-2.2163,-2.091,-2.0526,-2.0344,-1.9726,-1.9539,-1.9473,-1.9351,-1.9837,-2.0124,0.0,-1.9948,-2.0561,-2.0561,0.0,-2.1128,-2.1128,-2.1128,-2.1128,-2.1205,-2.1205,-2.1128,-2.0906,-2.0906,-2.0819,-2.0644,-2.042,-2.0264,-2.0264,-2.0029,-1.9863,-1.9863,-1.9863,-1.9548,-1.9002,-1.8922,0.0,0.0,0.0,0.0,0.0,0.0,0.0,0.0,0.0,0.0,0.0,0.0,0.0,0.0,0.0,0.0,0.0,0.0,0.0,0.0,0.0,0.0,0.0,0.0,0.0,0.0,0.0,0.0,-3.546,-3.519,0.0,-3.4851,-3.448,-3.4221,-3.4124,-3.4049,-3.3876,-3.3597,-3.3713,-3.3577,-3.3107,-3.3276,-3.3485,-3.3662,-3.3662,-3.3818,-3.4076,-3.3622,-3.3507,-3.3738,-3.28,-3.2548,-3.2785,-3.2015,-3.1518,-3.123,-3.0623,-2.9752,-2.8779,-2.851,-2.8317,-2.8107,-2.7261,-2.6678,-2.6201,-2.5522,-2.5048,-2.4734,-2.462,-2.4505,-2.439,-2.4261,-2.4131,-2.3956,-2.3543,-2.31,-2.2518,-2.1479,-2.116,-2.0797,-1.9801,-1.9839,-1.9977,-1.9536,-2.0054,-2.0521,-2.0213,-2.0718,-2.1202,-2.1202,-2.1334,-2.1359,-2.1205,-2.1205,-2.1282,-2.1359,-2.1282,-2.1205,-2.1282,-2.1205,-2.0984,-2.0819,-2.0741,-2.0664,-2.0489,-2.0411,-2.0255,-2.0186,-2.0186,-1.9951,-1.9399,-1.9408,-1.9082,0.0,0.0,0.0,0.0,0.0,0.0,0.0,0.0,0.0,0.0,0.0,0.0,0.0,0.0,0.0,0.0,0.0,0.0,0.0,0.0,0.0,0.0,0.0,0.0,0.0,0.0,-3.5534,-3.5515,-3.527,-3.5034,-3.4908,-3.4569,-3.4452,-3.4654,-3.4575,-3.4559,-3.4641,-3.4798,-3.4673,-3.4195,-3.4409,-3.4512,-3.4575,-3.4552,-3.4673,-3.4933,-3.4555,-3.4525,-3.4793,-3.3979,-3.3686,-3.3775,-3.2966,-3.2386,-3.2031,-3.1704,-3.0826,-2.9643,-2.9311,-2.9122,-2.8883,-2.802,-2.7312,-2.664,-2.5742,-2.5147,-2.4835,-2.4778,-2.4677,-2.4704,-2.4776,-2.4713,-2.459,-2.4622,-2.424,-2.364,-2.2882,-2.2562,-2.2151,-2.093,-2.0917,-2.0934,-2.0293,-2.069,-2.115,-2.1079,-2.1354,-2.1578,-2.1578,-2.1578,-2.1578,-2.1436,-2.1436,-2.1425,-2.1578,-2.1502,-2.1436,-2.1502,-2.1359,-2.1205,-2.0906,-2.0906,-2.0819,-2.0644,-2.0566,-2.0566,-2.042,-2.0342,-2.0175,-1.9921,-1.9771,-1.9387,-1.87,0.0,0.0,0.0,0.0,0.0,0.0,0.0,0.0,0.0,0.0,0.0,0.0,0.0,0.0,0.0,0.0,0.0,0.0,0.0,0.0,0.0,0.0,0.0,-3.5612,-3.5596,-3.5591,-3.5554,-3.5541,-3.5393,-3.5019,-3.4965,-3.5166,-3.5608,-3.5585,-3.5869,-3.6649,-3.6381,-3.6017,-3.553,-3.5289,-3.5295,-3.5536,-3.5491,-3.5792,-3.6502,-3.6343,-3.6071,-3.5616,-3.5633,-3.5068,-3.4151,-3.4101,-3.3411,-3.2349,-3.2349,-3.1902,-3.1158,-3.035,-2.997,-2.9666,-2.8282,-2.7423,-2.675,-2.5536,-2.5059,-2.5059,-2.5059,-2.4959,-2.4939,-2.5576,-2.5514,-2.5348,-2.5964,-2.5936,-2.5623,-2.4988,-2.4796,-2.4486,-2.31,-2.2775,-2.2526,-2.1581,-2.1739,-2.198,-2.1763,-2.1786,-2.1807,-2.1807,-2.1807,-2.1807,-2.1807,-2.1807,0.0,-2.1807,-2.1807,-2.1731,-2.1502,-2.1502,-2.1359,-2.0906,-2.0906,-2.0819,-2.0644,-2.0566,-2.0566,-2.0566,-2.042,-2.0378,-2.0548,-2.0151,-1.948,-1.8718,0.0,0.0,0.0,0.0,0.0,0.0,0.0,0.0,0.0,0.0,0.0,0.0,0.0,0.0,0.0,0.0,0.0,0.0,0.0,0.0,0.0,0.0,-3.5673,-3.5612,-3.5601,-3.5809,-3.6382,-3.6309,-3.6374,-3.6748,-3.6651,-3.6534,-3.6479,-3.6447,-3.6515,-3.6686,-3.6666,-3.6558,-3.6363,-3.6324,-3.6326,-3.6371,-3.6331,-3.6435,-3.6643,-3.6602,-3.6502,-3.6377,-3.5749,-3.5191,-3.4721,-3.4068,-3.3495,-3.3024,-3.3024,-3.2898,-3.2613,-3.1363,-3.0775,-3.0629,-3.0142,-2.9162,-2.8045,-2.7271,-2.6707,-2.6321,-2.6321,-2.6261,-2.6229,-2.6344,-2.6203,-2.6033,-2.6083,-2.5936,-2.5623,-2.4988,-2.5021,-2.5025,-2.3773,-2.3788,-2.3762,-2.2583,-2.2554,-2.2617,-2.2053,-2.2083,-2.2176,-2.2025,-2.2025,-2.1959,-2.1807,-2.1807,0.0,-2.1807,-2.1807,-2.1807,-2.1731,-2.1578,-2.1436,-2.1128,-2.0984,-2.0819,-2.0644,-2.0566,-2.0566,-2.0566,-2.042,-2.0165,-1.9883,-1.9635,-1.9487,0.0,0.0,0.0,0.0,0.0,0.0,0.0,0.0,0.0,0.0,0.0,0.0,0.0,0.0,0.0,0.0,0.0,0.0,0.0,0.0,0.0,0.0,-3.6016,-3.6237,-3.6187,-3.6145,-3.6443,-3.7295,-3.7214,-3.722,-3.7508,-3.7334,-3.7246,-3.7374,-3.7317,-3.7415,-3.7742,-3.7742,-3.7617,-3.7277,-3.7309,-3.7185,-3.6846,-3.6766,-3.6725,-3.6725,-3.6684,-3.6702,-3.6702,-3.6191,-3.5661,0.0,-3.4625,-3.4068,-3.345,-3.345,-3.3398,0.0,0.0,0.0,0.0,0.0,-2.9704,-2.8608,-2.801,-2.7395,-2.6823,-2.6823,-2.6823,-2.6803,-2.6999,-2.6929,-2.677,-2.696,-2.685,-2.6517,-2.6168,-2.6204,-2.6105,-2.5098,-2.5148,-2.5091,-2.4034,-2.3629,-2.341,-2.2978,0.0,0.0,-2.2402,-2.2252,-2.2176,-2.1959,-2.1959,-2.1883,-2.1807,-2.1807,-2.1807,-2.1807,-2.1731,-2.1502,-2.1205,-2.1051,0.0,0.0,0.0,-2.0566,-2.0489,-2.0428,0.0,0.0,0.0,-1.9595,0.0,0.0,0.0,0.0,-1.6446,-1.5777,0.0,0.0,0.0,0.0,0.0,0.0,0.0,0.0,0.0,0.0,0.0,0.0,0.0,0.0,0.0,0.0,-3.6471,-3.7052,-3.7246,-3.7224,-3.7472,-3.8259,-3.8185,-3.8019,-3.7906,-3.7676,-3.774,-3.8302,-3.8252,-3.8465,-3.9173,0.0,0.0,0.0,0.0,-3.799,-3.729,-3.7114,-3.7073,-3.7073,-3.694,-3.6864,-3.6864,-3.6737,-3.6216,-3.5419,-3.5374,-3.4721,-3.3694,-3.3694,-3.3555,-3.3245,-3.2629,-3.2376,-3.2246,-3.0849,-2.9862,0.0,0.0,0.0,0.0,-2.7026,-2.7026,-2.7121,-2.7651,-2.766,-2.7615,-2.8139,-2.8105,-2.7855,-2.7789,-2.7656,-2.739,-2.6701,-2.6483,-2.6346,-2.5581,-2.485,-2.4337,-2.412,-2.3559,-2.3065,-2.2777,-2.2553,-2.2327,-2.2101,-2.2101,-2.2035,-2.1807,-2.1807,-2.1807,-2.1807,0.0,0.0,-2.1205,-2.1205,-2.0964,-2.0644,-2.0566,-2.0489,-2.0342,-2.0471,-2.025,-1.9645,-1.9758,-1.9696,-1.9375,-1.9543,-1.8823,-1.718,-1.7115,-1.6364,0.0,0.0,0.0,0.0,0.0,0.0,0.0,0.0,0.0,0.0,0.0,0.0,0.0,0.0,0.0,-3.6566,-3.6817,-3.7417,-3.881,-3.9004,-3.905,-3.9224,-3.9061,-3.9144,-3.966,-3.9505,-3.9343,-3.9258,-3.9226,-3.9205,-3.921,-3.9552,0.0,-3.9007,-3.9373,-3.9334,-3.8866,-3.8824,-3.8824,-3.8807,0.0,0.0,-3.7802,-3.6945,-3.6156,-3.5476,-3.5191,-3.4545,-3.3694,-3.3694,-3.3555,-3.3293,-3.3166,-3.3051,-3.2892,-3.2629,-3.1943,-3.1061,-3.0353,-2.964,-2.8934,-2.8425,-2.8248,-2.8261,-2.8383,-2.8268,0.0,-2.826,-2.8183,-2.8,-2.7855,-2.7776,-2.7656,-2.739,-2.7323,-2.7121,-2.6346,-2.607,-2.5557,-2.4325,-2.3975,-2.3694,-2.3065,-2.2777,-2.2553,-2.2176,-2.2101,-2.2035,-2.1807,-2.1807,-2.1807,-2.1807,-2.1655,-2.1436,-2.1205,-2.1061,-2.0896,-2.0644,-2.0566,-2.0489,-2.0342,-2.0106,-1.9869,-1.9645,-1.9473,-1.9549,-1.9806,-1.8583,-1.8048,-1.7992,-1.7928,-1.6985,0.0,0.0,0.0,0.0,0.0,0.0,0.0,0.0,0.0,0.0,0.0,-3.5695,0.0,0.0,-3.6491,-3.6929,-3.7693,-3.8554,-3.9428,-3.9909,-4.0157,-4.0145,-3.9976,-3.9945,-4.0176,-4.002,-3.997,-4.0134,-4.012,-4.0237,-4.0531,-4.0727,-4.0504,-3.991,-4.0077,-3.986,-3.9322,-3.9305,-3.9305,-3.9305,-3.8901,-3.8497,-3.8093,-3.7563,-3.6814,-3.5994,-3.5837,-3.5207,-3.4317,-3.3899,-3.3555,-3.3309,-3.3309,-3.3256,-3.3203,-3.3096,-3.2617,-3.1762,-3.1013,-3.0421,-2.9936,-2.8944,-2.8817,-2.8994,-2.8716,-2.8522,-2.8444,-2.8444,-2.8314,-2.8183,-2.8105,-2.7987,-2.7934,-2.7723,-2.7656,-2.7523,-2.704,-2.6633,-2.6195,-2.5405,-2.4909,-2.4576,-2.4227,-2.3706,-2.3191,-2.2467,-2.2327,-2.2176,-2.1959,-2.1883,-2.1807,-2.1807,-2.1731,-2.1578,-2.1359,-2.1051,-2.0819,-2.0644,-2.0566,-2.0566,-2.0411,-2.0098,-1.9863,-1.9715,-1.946,-1.9402,-1.9613,-1.8777,-1.8191,-1.7929,-1.7833,-1.6992,0.0,0.0,0.0,0.0,0.0,0.0,0.0,0.0,-3.5704,-3.5704,-3.5704,-3.5753,-3.591,-3.6521,-3.7112,-3.7492,-3.8704,-3.9654,-3.981,-4.0389,-4.0858,-4.1028,-4.0742,-4.0482,-4.0444,-4.0267,-4.039,-4.0992,-4.0971,-4.1226,-4.1873,-4.195,-4.1686,-4.0988,-4.0888,-4.0578,-3.9893,-3.9786,-3.9761,-3.9761,-3.9603,-3.9199,-3.8567,-3.8251,-3.7598,-3.6693,-3.637,-3.5766,-3.4927,-3.4134,-3.3607,-3.3398,-3.3398,-3.3361,-3.3309,-3.3203,-3.278,-3.217,-3.1289,-3.0955,-3.0719,-2.931,-2.9184,-2.9456,-2.8766,-2.8587,-2.8587,-2.8587,-2.8509,-2.8365,-2.8287,-2.8249,-2.8066,-2.7921,-2.7855,-2.7789,-2.759,-2.7108,-2.662,-2.6414,-2.5931,-2.5441,-2.5312,-2.4779,-2.3986,-2.3054,-2.2617,-2.2327,-2.2101,-2.1959,-2.1807,-2.1807,-2.1807,-2.1731,-2.1436,-2.1051,-2.0741,-2.0644,-2.0566,-2.0566,-2.0566,-2.0177,-1.9942,-1.9863,-1.9622,-1.9457,-1.954,-1.9091,-1.8589,-1.7777,-1.7261,-1.6574,-3.4099,-3.4197,-3.4367,-3.4733,-3.4906,-3.5095,0.0,0.0,-3.5704,-3.5704,-3.5704,-3.5916,-3.6632,-3.6897,-3.75,-3.8991,-3.9439,-3.9848,-4.0565,-4.0749,-4.1098,-4.1854,-4.1079,-4.0713,-4.1208,-4.1083,-4.1217,-4.1811,-4.186,-4.1871,-4.1892,-4.2614,-4.2797,-4.2207,-4.2483,-4.2408,-4.1976,-4.1548,-4.1341,-4.1341,-4.0674,-4.0305,-4.0165,-3.8743,-3.7877,-3.7403,-3.5842,-3.5115,-3.4927,-3.4333,-3.3899,-3.3658,-3.3658,-3.3503,-3.3309,-3.3309,-3.3134,-3.292,-3.217,-3.1875,-3.1534,-3.0147,-2.9685,-2.9623,-2.883,-2.8587,-2.8587,-2.8587,-2.8587,-2.8522,-2.8365,-2.83,-2.8235,-2.8079,-2.8079,-2.8,-2.7789,-2.7709,-2.7377,-2.6552,-2.6346,-2.607,-2.5382,-2.5241,-2.4862,-2.3829,-2.2968,-2.2327,-2.2101,-2.1959,-2.1807,-2.1807,-2.1807,-2.1655,-2.1282,-2.0886,-2.0644,-2.0566,-2.0566,-2.0566,-2.0566,-2.0411,-2.0108,-1.9863,-2.0061,-2.019,-2.0383,-1.9,-1.8473,-1.8585,-1.6814,-1.5927,-3.4245,-3.434,-3.4498,0.0,-3.4977,-3.5162,-3.5496,-3.5631,-3.5704,-3.5704,-3.6112,-3.6549,-3.6899,-3.7801,-3.8752,0.0,-4.0043,-4.047,-4.081,-4.0858,-4.1177,-4.2061,-4.173,-4.1615,-4.2125,-4.2003,-4.2139,-4.272,-4.2769,-4.2948,-4.339,-4.3718,-4.3695,-4.3235,-4.3321,-4.3014,-4.2306,-4.2098,-4.1881,-4.1604,-4.1288,-4.0902,-4.0463,-3.9796,-3.8888,-3.7795,-3.6483,-3.5644,-3.5249,-3.4625,-3.4134,-3.3694,-3.3555,-3.3398,-3.3309,-3.3309,-3.324,-3.3134,-3.2336,-3.2336,-3.2367,-3.0896,-3.0495,-3.045,-2.956,-2.9085,-2.8844,-2.8651,-2.8587,-2.8587,-2.8509,-2.8444,-2.8444,-2.8249,-2.8249,-2.8183,-2.8,-2.8,-2.7789,-2.731,-2.7229,-2.7095,-2.662,-2.6208,-2.5779,-2.5405,-2.4036,-2.282,-2.2327,-2.2035,-2.1807,-2.1807,-2.1731,-2.1502,-2.1205,-2.0974,-2.0731,-2.0644,-2.0566,-2.0566,-2.0566,-2.042,-2.0186,-1.9942,-2.0117,-2.0162,-2.0173,-1.88,-1.8269,-1.8411,-1.6671,-1.5832,-3.4409,0.0,0.0,-3.4959,-3.5095,-3.5239,-3.562,-3.5704,-3.5704,-3.5695,-3.62,-3.6783,-3.7279,-3.8394,-3.9403,-3.9937,-4.0519,-4.0908,-4.0907,-4.0908,-4.1305,-4.2431,-4.2477,-4.2711,-4.3386,-4.3138,-4.313,-4.3638,-4.3659,-4.3895,-4.4477,-4.444,-4.4288,-4.3992,-4.3804,-4.3369,-4.2621,-4.2483,-4.2157,-4.1675,-4.1675,-4.135,-4.0779,-4.0569,-3.9603,-3.8035,-3.7189,-3.6431,-3.5742,-3.5157,-3.4577,-3.4034,-3.3781,-3.3539,-3.3398,-3.3361,-3.3309,-3.324,-3.2625,-3.2765,-3.2958,-3.1634,-3.1289,-3.1203,-3.0101,-2.9498,-2.9149,-2.8716,-2.8587,-2.8587,-2.8587,-2.8587,-2.8587,-2.843,-2.8365,-2.8365,-2.8197,-2.8131,-2.8052,-2.7855,-2.7776,-2.7723,-2.7523,-2.704,-2.662,-2.6414,-2.511,-2.3818,-2.283,-2.2166,-2.1807,-2.1807,-2.1578,-2.1359,-2.1205,-2.0974,-2.0741,-2.0644,-2.0566,-2.0566,-2.0566,-2.042,-2.0186,-1.9942,-2.0117,-2.0144,-2.009,-1.8775,-1.8237,-1.834,-1.6563,-1.5832,0.0,0.0,-3.4754,-3.503,-3.5209,-3.5372,-3.5631,-3.5704,-3.5695,-3.5697,-3.5727,-3.626,-3.7957,-3.8297,-3.8889,-4.0597,-4.0888,-4.0907,-4.0907,-4.0907,-4.1548,-4.3258,-4.3346,-4.3838,0.0,-4.4518,-4.4141,-4.4624,-4.4541,-4.4477,-4.4515,-4.4515,-4.4487,-4.4487,-4.4042,-4.3656,-4.3371,-4.2903,-4.2436,-4.1874,-4.1874,-4.1788,-4.1552,-4.0814,-3.9603,-3.807,-3.7728,-3.7143,-3.6444,-3.6054,-3.5493,-3.4927,-3.469,-3.4202,-3.3658,-3.3414,-3.3309,-3.3309,-3.324,-3.3309,-3.3187,-3.2321,-3.1987,-3.1607,-3.0208,-2.9656,-2.9331,-2.8766,-2.8587,-2.8587,-2.8587,-2.8587,-2.8587,-2.8587,-2.8587,-2.8522,-2.8365,-2.8287,-2.8235,-2.7842,-2.7776,-2.7723,-2.7523,-2.7469,-2.7255,-2.6483,-2.6045,-2.5169,-2.3661,-2.2521,-2.1807,-2.1807,-2.1436,-2.1215,-2.1205,-2.0809,-2.0644,-2.0566,-2.0566,-2.0566,-2.0566,-2.042,-2.0186,-1.9942,-2.0117,-2.0273,-2.0503,-1.8987,-1.8364,-1.8772,-1.6749,-1.5832,-3.471,0.0,-3.487,-3.5047,-3.5234,-3.5425,-3.5643,-3.5697,-3.5698,-3.5707,-3.6203,-3.6813,-3.7405,-3.8452,-3.9422,-4.0015,-4.0548,-4.0907,-4.0907,-4.0907,-4.1548,-4.3297,-4.346,0.0,0.0,0.0,0.0,-4.4827,-4.4712,-4.4632,-4.4632,-4.457,-4.4515,-4.4515,-4.4335,-4.4072,-4.3656,-4.3318,-4.2903,-4.2436,-4.2269,-4.2019,-4.177,-4.1029,-4.0052,-3.8866,-3.8198,-3.7387,-3.6502,-3.6156,-3.5776,-3.5295,-3.48,-3.4382,-3.4002,-3.3694,-3.345,-3.3309,-3.3309,-3.3309,-3.324,-3.2996,-3.2641,-3.2241,-3.1519,-3.0704,-2.9964,-2.9498,-2.9022,-2.8587,-2.8587,-2.8587,-2.8587,-2.8587,-2.8587,-2.8587,-2.8509,-2.8509,-2.8444,-2.817,-2.8052,-2.7934,-2.7723,-2.759,-2.7175,-2.6183,-2.504,-2.4036,-2.3265,-2.2392,-2.1807,-2.1807,-2.1436,-2.1205,-2.1205,-2.0809,-2.0566,-2.0566,-2.0566,-2.0566,-2.0566,-2.0566,-2.0333,-1.9942,-2.0278,-2.0447,-2.0521,-1.9608,-1.9085,-1.8788,-1.7412,-1.6487,-3.4908,-3.4982,-3.5066,-3.5209,-3.538,-3.5535,-3.5667,-3.5698,-3.5708,-3.5737,-3.6231,-3.6735,-3.7035,-3.8024,-3.8965,-3.9606,-4.013,-4.0577,-4.0869,-4.0907,-4.1548,-4.3297,-4.351,-4.4139,0.0,0.0,0.0,-4.5045,-4.4852,-4.4764,-4.4712,-4.4605,-4.4551,-4.4515,-4.4515,-4.4306,-4.3899,-4.374,-4.3371,-4.2808,-4.2573,-4.231,-4.2044,-4.1547,-4.0624,-3.9376,-3.8866,-3.7877,-3.6667,-3.6492,-3.6224,-3.5803,-3.5157,-3.4752,-3.4431,-3.3882,-3.3607,-3.345,-3.3346,-3.3309,-3.3309,-3.3309,-3.3065,-3.2711,-3.221,-3.1462,-3.0689,-3.0269,-2.9546,-2.8944,-2.8944,-2.8766,-2.8587,-2.8587,-2.8587,-2.8587,-2.8587,-2.8587,-2.8522,-2.8352,-2.8183,-2.8013,-2.7855,-2.7656,-2.7175,-2.6333,-2.511,-2.4036,-2.3139,-2.2553,-2.2101,-2.1807,-2.1436,-2.1205,-2.1205,-2.0809,-2.0566,-2.0566,-2.0566,-2.0566,-2.0566,-2.0489,-2.0333,-2.0029,-2.0137,-2.0314,-2.0384,-1.9755,-1.9162,-1.8522,-1.7732,-1.677,-3.5152,-3.5212,-3.5339,-3.547,-3.5607,-3.5708,-3.5708,-3.5708,-3.5718,-3.5784,-3.5803,-3.6045,0.0,0.0,-3.7644,-3.9295,-3.9645,-3.9975,-4.0733,-4.0869,-4.1529,0.0,0.0,0.0,0.0,0.0,0.0,-4.5342,0.0,-4.4846,-4.4738,-4.4693,-4.4659,-4.4496,-4.4515,-4.4364,-4.4121,-4.4109,-4.3758,-4.3014,-4.2808,-4.2595,-4.231,-4.2292,-4.1296,-3.962,-3.9567,-3.8581,-3.7009,-3.7009,-3.6811,-3.6444,-3.5803,-3.5357,-3.4927,-3.4084,-3.3745,-3.3694,-3.3398,-3.3309,-3.3309,-3.3309,-3.3203,-3.2973,-3.2336,-3.1931,-3.1564,-3.0955,-3.0179,-2.9566,-2.9566,-2.9107,-2.8651,-2.8651,-2.8651,-2.8587,-2.8587,-2.8587,-2.8522,-2.8365,-2.8197,-2.8013,-2.7855,-2.7656,-2.7403,-2.7011,-2.6346,-2.5193,-2.3276,-2.3001,-2.2703,-2.1883,-2.1436,-2.1205,-2.1205,-2.0809,-2.0566,-2.0566,-2.0566,-2.0566,-2.0566,-2.042,-2.0264,-2.0264,-1.9872,-1.9761,-2.0161,-1.9388,-1.8734,-1.8108,-1.7542,-1.677,-3.5307,-3.5339,-3.5473,-3.5488,-3.5648,-3.5766,-3.5708,-3.5736,-3.5782,-3.5795,-3.5799,-3.5885,0.0,0.0,0.0,-3.7685,-3.8846,0.0,-3.9975,-4.0565,0.0,-4.2477,0.0,-4.3969,-4.4978,-4.5564,0.0,0.0,-4.526,-4.5014,-4.4991,-4.4895,-4.4789,-4.4659,-4.4659,-4.4578,-4.4411,-4.4199,-4.3905,-4.3545,-4.3267,-4.3032,-4.279,-4.2001,-4.0978,-3.98,-3.9039,-3.8125,-3.722,-3.7066,-3.6948,-3.6811,-3.6426,-3.6071,-3.5688,-3.4721,-3.4251,-3.4002,-3.3487,-3.3309,-3.3309,-3.3309,-3.3309,-3.3203,-3.3065,-3.2516,-3.1972,-3.1804,-3.1115,-3.0406,-3.0406,-2.9813,-2.9282,-2.9282,-2.8944,-2.8587,-2.8587,-2.8587,-2.8587,-2.8509,-2.8262,-2.8013,-2.7656,-2.7523,-2.7403,-2.7011,-2.6807,-2.6,-2.4059,-2.335,-2.2703,-2.1883,-2.1436,-2.1205,-2.1205,-2.0809,-2.0566,-2.0566,-2.0566,-2.0566,-2.0566,-2.0566,-2.0333,-2.0029,-1.9863,-1.9583,-1.9003,-1.9049,-1.8464,-1.7198,-1.7265,-1.677,-3.5994,-3.6093,-3.6164,-3.6231,-3.6334,-3.6297,-3.5881,-3.5818,-3.5833,-3.5846,-3.584,0.0,-3.5883,0.0,0.0,0.0,0.0,0.0,-3.9548,-4.0108,-4.0882,0.0,-4.3065,0.0,-4.4756,-4.5512,-4.5894,0.0,-4.5475,-4.5216,-4.5103,-4.5033,-4.4919,-4.4796,-4.4738,-4.4632,-4.4515,-4.4335,-4.414,-4.3873,-4.3726,-4.3458,-4.3087,-4.2141,-4.1105,-4.0032,0.0,-3.8158,-3.7297,-3.7182,-3.7066,-3.6987,-3.6626,-3.6402,-3.6156,-3.5144,-3.4625,-3.4284,-3.3678,-3.3398,-3.3309,-3.3309,-3.3309,-3.3309,-3.3309,-3.2942,-3.2532,-3.2477,-3.1849,-3.1145,-3.1102,-3.0495,-2.9889,-2.9566,-2.9219,-2.8944,-2.8651,-2.8587,-2.8522,-2.8406,-2.821,-2.7947,-2.7603,-2.7523,-2.7403,-2.7146,-2.7079,-2.644,-2.4981,-2.3986,-2.3202,-2.2402,-2.1655,-2.1205,-2.1205,-2.0809,-2.0566,-2.0566,-2.0566,-2.0566,-2.0566,-2.0566,-2.0411,-2.0108,-1.9942,-1.958,-1.9002,-1.9056,-1.8469,-1.7242,-1.7283,-1.677,-3.6793,-3.6941,-3.6923,-3.7136,-3.7102,-3.683,-3.607,-3.5894,-3.5894,-3.5894,0.0,-3.5875,-3.5768,-3.512,-3.5095,-3.6601,0.0,-3.6707,-3.9045,-3.9571,-4.0279,-4.1799,-4.2838,-4.3773,-4.4644,-4.5418,-4.5862,-4.5917,-4.5654,-4.5419,-4.5173,-4.5148,-4.508,-4.4919,-4.4815,-4.4659,-4.4542,-4.4542,-4.4393,-4.417,-4.3998,-4.3675,-4.3137,-4.2221,-4.1212,-4.013,0.0,0.0,-3.7334,-3.7297,-3.7182,-3.6987,-3.6667,-3.6585,-3.6444,-3.5481,-3.5005,-3.4721,-3.4118,-3.3678,-3.3398,-3.3361,-3.3309,-3.3309,-3.3309,-3.3203,-3.3096,-3.3005,-3.2468,-3.1864,-3.1709,-3.1175,-3.051,-2.9889,-2.9628,-2.9331,-2.8817,-2.8651,-2.8522,-2.821,-2.8079,-2.8013,-2.759,-2.7523,-2.7469,-2.7268,-2.7079,-2.6658,-2.5849,-2.4767,-2.3841,-2.3075,-2.1959,-2.1205,-2.1205,-2.0809,-2.0566,-2.0566,-2.0566,-2.0566,-2.0566,-2.0566,-2.0489,-2.0264,-2.002,-1.9706,-1.9399,-1.9204,-1.8535,-1.7406,-1.7385,-1.677,-3.6879,-3.6635,-3.6345,-3.7039,-3.6664,-3.6094,-3.5929,-3.5904,0.0,0.0,-3.5904,-3.57,-3.5025,-3.4739,-3.4702,-3.4992,0.0,0.0,0.0,0.0,-3.9897,0.0,0.0,0.0,0.0,0.0,0.0,0.0,0.0,0.0,-4.5457,-4.5339,-4.5192,-4.508,-4.4938,-4.4796,-4.4659,-4.4659,-4.4578,-4.4411,-4.3546,-4.2953,-4.2576,-4.0895,-3.9917,-3.9515,0.0,0.0,-3.7558,-3.7372,-3.7182,-3.697,-3.6948,-3.6891,-3.6811,-3.6139,-3.5864,-3.5732,-3.5094,-3.4479,-3.3951,-3.3435,-3.3309,-3.3309,-3.3309,-3.3293,-3.3256,-3.3256,-3.3027,-3.2812,-3.2664,-3.2064,-3.145,-3.1233,-3.0315,-2.9442,-2.9393,-2.8931,-2.8522,-2.83,-2.8197,-2.8013,-2.7789,-2.759,-2.7403,-2.7079,-2.7024,-2.6807,-2.6383,-2.5063,-2.3841,-2.3075,-2.1959,-2.1205,-2.1205,-2.0809,-2.0566,-2.0566,-2.0566,-2.0566,-2.0566,-2.0566,-2.0411,-1.9942,-1.9942,-1.9381,-1.8247,-1.886,-1.8189,-1.6544,-1.7026,-1.677,-3.6981,-3.6958,-3.6767,-3.7153,-3.6933,-3.6501,-3.6069,0.0,0.0,0.0,-3.5285,-3.5018,-3.4179,0.0,0.0,0.0,0.0,0.0,0.0,0.0,0.0,0.0,0.0,0.0,0.0,0.0,0.0,0.0,0.0,0.0,-4.5468,-4.5361,-4.5254,-4.5084,-4.4619,-4.4256,-4.4134,-4.3693,-4.3479,-4.3403,-4.2886,-4.2473,-4.2095,-4.0651,-3.9858,-3.9501,-3.8484,0.0,-3.7757,-3.7631,-3.7447,-3.7143,-3.7143,-3.7105,-3.693,-3.6468,-3.6199,-3.6037,-3.5504,-3.5001,-3.4446,-3.3532,-3.3288,-3.3309,-3.3309,-3.3309,-3.3309,-3.3203,-3.315,-3.3058,-3.2827,-3.2468,-3.2048,-3.1595,-3.0495,-2.9393,-2.9107,-2.8817,-2.8522,-2.8352,-2.8183,-2.8013,-2.7855,-2.7656,-2.7403,-2.7214,-2.7079,-2.6875,-2.6658,-2.5499,-2.442,-2.3621,-2.2596,-2.1787,-2.1205,-2.0896,-2.0731,-2.0644,-2.0566,-2.0566,-2.0566,-2.0566,-2.0411,-1.9942,-1.9863,-1.9292,-1.7997,-1.817,-1.766,-1.6279,-1.6472,-1.6298,-3.6979,-3.7105,-3.6991,-3.7186,-3.7108,-3.6777,-3.6093,-3.5801,0.0,0.0,-3.4512,-3.4121,-3.3254,0.0,0.0,0.0,0.0,0.0,0.0,0.0,0.0,0.0,0.0,0.0,0.0,0.0,0.0,0.0,0.0,0.0,-4.4935,-4.4863,-4.4743,-4.4617,-4.395,-4.3523,-4.3383,-4.2758,-4.2431,-4.2408,-4.2219,-4.192,-4.1563,-4.0578,-3.9925,-3.9483,-3.8674,0.0,0.0,-3.7934,-3.7685,-3.7372,-3.7297,-3.722,-3.7009,-3.6516,-3.6225,-3.5966,-3.5506,-3.5091,-3.4559,-3.3611,-3.3275,-3.3212,-3.314,-3.3087,-3.3119,-3.3102,-3.315,-3.3096,-3.2757,-3.2703,-3.2523,-3.1709,-3.0733,-2.9676,-2.8779,-2.8639,-2.847,-2.8079,-2.7822,-2.7628,-2.7485,-2.7289,-2.7144,-2.7061,-2.6886,-2.6735,-2.6633,-2.6013,-2.5229,-2.4409,-2.3316,-2.222,-2.1205,-2.0974,-2.0741,-2.0644,-2.0566,-2.0566,-2.0566,-2.0566,-2.0411,-1.9942,-1.9863,-1.9371,-1.8247,-1.8077,-1.7486,-1.6544,-1.6281,-1.6015,-3.68,-3.6443,-3.6047,-3.6826,-3.6436,-3.5833,-3.5752,0.0,0.0,-3.4523,-3.3929,-3.3168,-3.2294,0.0,0.0,0.0,0.0,-3.2725,0.0,0.0,0.0,0.0,0.0,0.0,0.0,0.0,0.0,0.0,0.0,0.0,0.0,-4.319,-4.3101,-4.3006,-4.2929,-4.2831,-4.2702,-4.2626,-4.2522,-4.2389,-4.1594,-4.1104,-4.0854,-4.0021,-3.9451,-3.9036,0.0,0.0,0.0,-3.7985,-3.7775,-3.754,-3.7372,-3.7297,-3.717,-3.6218,-3.584,-3.5735,-3.5014,-3.4389,-3.3874,-3.3649,-3.3328,-3.2934,-3.2498,-3.2412,-3.2503,-3.3119,-3.3309,-3.3256,-3.3096,-3.3043,-3.2812,-3.1921,-3.1465,-3.0837,-2.9086,-2.8671,-2.8321,-2.7142,-2.6666,-2.6467,-2.6454,-2.6156,-2.6024,-2.6205,-2.6217,-2.6276,-2.6458,-2.6452,-2.6025,-2.5004,-2.339,-2.1993,-2.0984,-2.0731,-2.0644,-2.0566,-2.0566,-2.0566,-2.0566,-2.0566,-2.0411,-1.9942,-1.9863,-1.9627,-1.9143,-1.9028,-1.8448,-1.7494,-1.7294,-1.6669,-3.598,-3.5833,-3.5676,-3.6051,-3.5893,-3.5655,-3.5696,0.0,-3.4353,-3.3827,-3.3059,-3.2191,-3.1333,0.0,0.0,0.0,0.0,0.0,0.0,0.0,0.0,0.0,0.0,0.0,0.0,0.0,0.0,0.0,0.0,0.0,0.0,-4.2599,-4.2977,-4.2852,-4.2354,-4.2049,-4.201,-4.1474,-4.1186,-4.1146,-4.0784,-4.0532,-4.0344,-3.9894,-3.9561,-3.9338,0.0,0.0,0.0,-3.8396,-3.8153,-3.7877,-3.7202,-3.6809,-3.6482,-3.5558,-3.522,-3.5092,-3.4793,-3.4484,-3.4094,-3.3321,-3.279,-3.2392,-3.2143,-3.1867,-3.1681,-3.1966,-3.2045,-3.1994,-3.1856,-3.2013,-3.2068,-3.1675,-3.1237,-3.058,-2.9449,-2.8856,-2.8294,-2.7468,-2.7069,-2.6708,-2.6356,-2.5998,-2.5764,-2.5666,-2.5627,-2.5702,-2.5942,-2.5599,-2.5009,-2.4158,-2.3599,-2.2809,-2.1731,-2.1128,-2.0731,-2.0644,-2.0566,-2.0566,-2.042,-2.042,-2.0186,-1.9715,-1.9715,-1.9301,-1.8487,-1.8338,-1.7747,-1.68,-1.6558,-1.6204,-3.5303,-3.5386,-3.5423,-3.5499,-3.5502,-3.5514,0.0,0.0,-3.4212,-3.363,-3.2823,-3.2031,-3.1428,0.0,0.0,0.0,0.0,-3.2147,0.0,0.0,0.0,0.0,0.0,0.0,0.0,0.0,0.0,0.0,0.0,0.0,0.0,-4.1937,-4.24,-4.2244,-4.1618,-4.1295,-4.1263,-4.0615,-4.031,-4.031,-4.0291,-4.0253,-4.0157,-3.9958,-3.9832,-3.9735,0.0,0.0,0.0,-3.842,-3.8022,-3.7549,-3.6732,-3.6215,-3.5794,-3.4907,-3.45,-3.4374,-3.4127,-3.3967,-3.3735,-3.2847,-3.2278,-3.1945,-3.1775,-3.1399,-3.1036,-3.1258,-3.1272,-3.1173,-3.1074,-3.1232,-3.1387,-3.1293,-3.0885,-3.0258,-2.944,-2.8876,-2.8204,-2.7286,-2.687,-2.6476,-2.5895,-2.5498,-2.5182,-2.5025,-2.4988,-2.5065,-2.5363,-2.4964,-2.4513,-2.401,-2.3727,-2.3084,-2.1787,-2.1118,-2.0741,-2.0644,-2.0566,-2.0489,-2.0342,-2.0264,-2.0108,-1.9636,-1.9566,-1.9231,-1.8407,-1.7823,-1.7303,-1.6624,-1.6102,-1.5832,-3.4982,-3.5089,-3.5226,-3.5293,-3.5293,-3.5308,0.0,0.0,-3.4126,-3.4186,-3.3551,-3.2979,-3.2976,-3.2976,0.0,0.0,0.0,0.0,0.0,0.0,0.0,0.0,0.0,0.0,0.0,0.0,0.0,0.0,0.0,0.0,0.0,-4.1003,-4.089,-4.0623,-4.061,-4.0545,-4.0415,-4.0344,-4.0307,-4.0307,-4.0291,-4.031,-4.031,-4.0291,-4.0215,0.0,0.0,0.0,0.0,-3.7951,-3.7174,-3.6203,-3.5927,-3.5684,-3.5352,-3.4248,-3.3827,-3.3687,-3.2756,-3.2423,-3.2389,-3.2232,-3.1948,-3.1582,-3.147,-3.0999,-3.0639,-3.1374,-3.142,-3.1223,-3.1223,-3.1074,-3.0989,-3.0822,-3.0721,-3.0228,-2.8921,-2.8532,-2.7994,-2.6238,-2.566,-2.5258,-2.4691,-2.4242,-2.4038,-2.4336,-2.4302,-2.4381,-2.4757,-2.5099,-2.5222,-2.5111,-2.3964,-2.2478,-2.0789,-2.0644,-2.0566,-2.0566,-2.0566,-2.0489,-2.0342,-2.0264,-2.0108,-1.9636,-1.9566,-1.9478,-1.9301,-1.8161,-1.7565,-1.7581,-1.6373,-1.5832,-3.4464,-3.4593,-3.4715,-3.4963,-3.5091,-3.5179,-3.5226,0.0,-3.404,-3.4117,-3.3459,-3.2858,-3.2858,-3.2904,-3.2917,0.0,0.0,0.0,0.0,0.0,0.0,0.0,0.0,0.0,0.0,0.0,0.0,0.0,0.0,0.0,0.0,-4.1074,-4.0969,-4.0742,-4.074,-4.0667,-4.0526,-4.0477,-4.0419,-4.0362,-4.0363,-4.0057,-3.9482,-3.9484,0.0,0.0,0.0,0.0,0.0,-3.7408,-3.6951,-3.6406,-3.556,-3.503,-3.4573,-3.3673,-3.3241,-3.3125,-3.2844,-3.2657,-3.2523,-3.2472,-3.2179,-3.1821,-3.1768,-3.1179,-3.056,-3.0425,-3.0096,-2.9848,-3.0289,-3.0333,-3.0394,-3.0596,-3.0297,-2.9759,-2.9241,-2.8778,-2.8052,-2.6683,-2.6201,-2.5659,-2.4778,-2.4229,-2.3883,-2.3872,-2.3717,-2.3811,-2.418,-2.4189,-2.4165,-2.4265,-2.3307,-2.2574,-2.2285,-2.1242,-2.0566,-2.0566,-2.0566,-2.0411,-2.002,-2.0029,-1.9863,-1.939,-1.939,-1.9054,-1.8407,-1.7654,-1.6847,-1.6063,-1.5926,-1.5832,0.0,-3.4152,-3.4311,-3.4551,-3.4674,0.0,0.0,0.0,0.0,-3.4236,-3.3884,-3.3554,-3.3522,-3.367,-3.3777,0.0,0.0,0.0,0.0,0.0,0.0,0.0,0.0,0.0,0.0,0.0,0.0,0.0,0.0,0.0,0.0,0.0,-4.0098,-3.9978,-4.021,-4.0276,-4.014,-3.9753,-3.9523,-3.9454,-3.9457,-3.9169,-3.8651,-3.8637,0.0,0.0,0.0,0.0,0.0,-3.6859,-3.6418,-3.5848,-3.5032,-3.4458,-3.4032,-3.334,-3.3055,-3.2979,-3.2916,-3.2802,-3.2705,-3.2705,-3.2454,-3.2144,-3.2038,-3.1432,-3.0666,-3.0038,-2.9617,-2.946,-2.9627,-2.9643,-2.9705,-2.9918,-2.965,-2.929,-2.9175,-2.8801,-2.8122,-2.7004,-2.6453,-2.5863,-2.4765,-2.4229,-2.3832,-2.3628,-2.3509,-2.347,-2.3578,-2.3732,-2.3833,-2.3899,-2.3421,-2.3021,-2.3032,-2.1461,-2.0498,-2.0498,-2.0411,-2.0177,-1.9794,-1.9794,-1.9627,-1.9301,-1.9301,-1.8895,-1.7997,-1.704,-1.6133,-1.5244,-1.5431,-1.547,0.0,-3.3776,-3.3981,0.0,0.0,0.0,0.0,0.0,0.0,0.0,-3.4636,-3.4756,-3.4694,-3.498,-3.5184,0.0,0.0,0.0,0.0,0.0,0.0,0.0,0.0,0.0,0.0,0.0,0.0,0.0,0.0,0.0,0.0,0.0,-3.8592,-3.8592,-3.9136,-3.9388,-3.9323,-3.8453,-3.7983,-3.7924,-3.7916,-3.7881,-3.7808,-3.7808,0.0,0.0,0.0,0.0,0.0,-3.6288,-3.5666,-3.4773,-3.439,-3.4087,-3.3776,-3.335,-3.3178,-3.3129,-3.2993,-3.2948,-3.2916,-3.2884,-3.2737,-3.2539,-3.2284,-3.1711,-3.0988,-3.0201,-2.9946,-2.9789,-2.9273,-2.9121,-2.9075,-2.892,-2.8904,-2.8873,-2.8779,-2.8684,-2.8268,-2.7159,-2.6573,-2.5863,-2.4835,-2.4229,-2.3832,-2.3628,-2.345,-2.3271,-2.2909,-2.3663,-2.4132,-2.4013,-2.4026,-2.3745,-2.3021,-2.1385,-2.0342,-2.0264,-2.0108,-1.9872,-1.9636,-1.9557,-1.9478,-1.9222,-1.9134,-1.8647,-1.7747,-1.6377,-1.5423,-1.4937,-1.495,-1.4982,-3.2433,0.0,-3.3597,-3.3884,-3.3993,-3.408,0.0,0.0,0.0,0.0,0.0,-3.4489,-3.4467,-3.4634,-3.4794,0.0,0.0,0.0,0.0,0.0,0.0,0.0,0.0,0.0,0.0,0.0,0.0,0.0,0.0,0.0,0.0,0.0,-3.8593,-3.8593,-3.8055,-3.8038,-3.863,-3.8377,-3.82,-3.8121,-3.808,-3.7704,-3.706,-3.7012,0.0,0.0,0.0,0.0,-3.5576,-3.5548,-3.5242,-3.4794,-3.4694,-3.4464,-3.4152,-3.4012,-3.3805,-3.3607,-3.3541,-3.3327,-3.3024,-3.277,-3.2639,-3.2573,-3.2405,-3.1948,-3.1414,-3.1111,-3.0476,-2.9859,-2.9745,-2.9393,-2.9075,-2.892,-2.8904,-2.8873,-2.8668,-2.8636,-2.8365,-2.7515,-2.6715,-2.5972,-2.5356,-2.435,-2.3628,-2.3628,-2.3318,-2.3078,-2.2909,-2.3802,-2.4341,-2.4013,-2.3664,-2.322,-2.2702,-2.1907,-2.1088,-2.0342,-2.0264,-2.0029,-1.9645,-1.932,-1.9091,-1.8851,-1.735,-1.6183,-1.544,-1.4685,-1.4187,-1.4089,-1.4379,-1.4417,-3.1967,-3.2517,-3.3154,-3.3426,-3.3532,-3.3607,-3.3688,0.0,0.0,0.0,0.0,-3.4123,-3.4043,-3.4284,0.0,0.0,0.0,0.0,0.0,0.0,0.0,0.0,0.0,0.0,0.0,0.0,0.0,0.0,0.0,0.0,0.0,0.0,-3.737,-3.7419,-3.6914,-3.7044,-3.7843,-3.7383,-3.7129,-3.7044,-3.7017,-3.6744,-3.6288,-3.623,0.0,0.0,0.0,0.0,-3.53,-3.5304,-3.5187,-3.5013,-3.4851,-3.445,-3.3947,-3.3728,-3.3324,-3.2889,-3.2853,-3.2598,-3.2244,-3.1894,-3.176,-3.1738,-3.1921,-3.1723,-3.1533,-3.1499,-3.1111,-3.0575,-3.0031,-2.9673,-2.9393,-2.9059,-2.8967,-2.8967,-2.8795,-2.8716,-2.8477,-2.773,-2.682,-2.6026,-2.5508,-2.4465,-2.37,-2.3628,-2.339,-2.315,-2.286,-2.3529,-2.3765,-2.3013,-2.2891,-2.2512,-2.1702,-2.136,-2.0867,-2.002,-1.9863,-1.9706,-1.9469,-1.9082,-1.8603,-1.7951,-1.6198,-1.5032,-1.4699,-1.3959,-1.362,-1.3627,-1.3818,-1.3945,-3.1657,-3.2074,-3.2519,-3.2916,-3.3042,-3.3086,-3.3086,0.0,0.0,0.0,0.0,0.0,-3.3615,-3.391,0.0,0.0,0.0,0.0,0.0,0.0,0.0,0.0,0.0,0.0,0.0,0.0,0.0,0.0,0.0,0.0,0.0,0.0,0.0,-3.5942,-3.5964,-3.6308,-3.6997,-3.6216,-3.5786,-3.5735,-3.5723,-3.5717,-3.571,-3.5655,-3.5582,0.0,0.0,0.0,-3.5134,-3.4985,-3.4928,-3.4898,-3.4615,-3.4072,-3.3429,-3.3084,-3.2508,-3.1864,-3.1778,-3.1617,-3.1354,-3.0939,-3.0764,-3.0794,-3.1155,-3.1274,-3.1288,-3.1411,-3.1504,-3.1359,-3.0369,-3.0031,-2.9848,-2.9289,-2.9167,-2.9121,-2.8967,-2.8858,-2.8589,-2.7944,-2.6923,-2.6079,-2.5605,-2.4593,-2.3819,-2.3628,-2.345,-2.3163,-2.2739,-2.3157,-2.3007,-2.177,-2.197,-2.175,-2.0498,-2.0242,-1.9885,-1.9344,-1.9237,-1.9143,-1.8984,-1.8603,-1.7789,-1.6706,-1.5289,-1.4538,-1.4371,-1.3633,-1.3307,-1.3313,-1.3374,-1.3392,-3.0828,-3.105,-3.1623,-3.2719,-3.3028,-3.3042,-3.3086,0.0,0.0,0.0,0.0,0.0,0.0,-3.3615,0.0,0.0,0.0,0.0,0.0,0.0,0.0,0.0,0.0,0.0,0.0,0.0,0.0,0.0,0.0,0.0,0.0,0.0,0.0,-3.5756,-3.5866,-3.5974,-3.6108,-3.5957,-3.5884,-3.5876,-3.5806,-3.5772,-3.5788,-3.5775,-3.5698,0.0,0.0,-3.4522,-3.4385,-3.3603,-3.3282,-3.3269,-3.3154,-3.3034,-3.2905,-3.2797,-3.2552,-3.2222,-3.17,-3.1528,-3.1421,-3.1011,-3.0848,-3.08,-3.0742,-3.0677,-3.0653,-3.0667,-3.1131,-3.149,-3.101,-3.0567,-3.0081,-2.956,-2.9425,-2.9335,-2.8951,-2.8858,-2.8747,-2.8525,-2.7246,-2.6172,-2.6079,-2.4724,-2.3628,-2.3628,-2.3271,-2.2909,-2.2739,-2.302,-2.2879,-2.1935,-2.1563,-2.0977,-2.0042,-1.8915,-1.8145,-1.7814,-1.8614,-1.8674,-1.7716,-1.7049,-1.6229,-1.5068,-1.423,-1.3555,-1.3039,-1.2875,-1.279,-1.279,-1.2832,-1.2851,-3.0584,-3.0908,-3.1393,-3.2021,-3.2179,-3.2231,0.0,0.0,0.0,0.0,0.0,0.0,0.0,0.0,0.0,0.0,0.0,0.0,0.0,0.0,0.0,0.0,0.0,0.0,0.0,0.0,0.0,0.0,0.0,0.0,0.0,0.0,0.0,0.0,-3.436,-3.44,-3.4387,-3.4449,-3.4759,-3.5254,-3.4742,-3.4502,-3.4515,-3.495,-3.4866,-3.4358,0.0,-3.4167,-3.3673,-3.3198,-3.3012,-3.3001,-3.2923,-3.2622,-3.2135,-3.1607,-3.1346,-3.1219,-3.0826,-3.0678,-3.0558,-3.0167,-2.9978,-2.9904,-3.0089,-3.0078,-3.013,-3.0463,-3.102,-3.1359,-3.0762,-3.0606,-3.0377,-2.9677,-2.9396,-2.9198,-2.8967,-2.8858,-2.8747,-2.8636,-2.7565,-2.6573,-2.624,-2.505,-2.3956,-2.3628,-2.321,-2.2848,-2.2739,-2.2565,-2.2119,-2.1133,-2.0609,-1.9885,-1.8867,-1.8124,-1.7577,-1.7252,-1.7687,-1.7424,-1.6403,-1.5761,-1.4714,-1.3418,-1.2831,-1.2326,-1.182,-1.1861,-1.1929,-1.1929,-1.1929,-1.1929,-3.0393,-3.0683,-3.1004,-3.1111,-3.1363,0.0,0.0,0.0,0.0,0.0,0.0,0.0,0.0,0.0,0.0,0.0,0.0,0.0,0.0,0.0,0.0,0.0,0.0,0.0,0.0,0.0,0.0,0.0,0.0,0.0,0.0,0.0,0.0,0.0,-3.3054,-3.3082,-3.3082,-3.2985,-3.3424,-3.4339,-3.3918,-3.3706,-3.3725,-3.4336,-3.4253,-3.3619,-3.3844,-3.3556,-3.29,-3.264,-3.2543,-3.2535,-3.2454,-3.2031,-3.1338,-3.0605,-3.033,-3.0286,-3.0099,-2.9977,-2.9867,-2.9437,-2.9254,-2.9197,-2.9466,-2.9541,-2.959,-3.0062,-3.0599,-3.0857,-3.03,-3.0503,-3.0656,-2.9878,-2.9504,-2.9319,-2.9166,-2.8967,-2.8779,-2.8621,-2.7795,-2.6953,-2.6293,-2.5204,-2.4292,-2.3675,-2.309,-2.2678,-2.2629,-2.2099,-2.1239,-2.0063,-1.9552,-1.8755,-1.7232,-1.6982,-1.6756,-1.6312,-1.6648,-1.6438,-1.5605,-1.4747,-1.3724,-1.2533,-1.1863,-1.131,-1.0896,-1.1074,-1.116,-1.116,-1.1219,-1.1246,-2.9946,-2.9989,-3.0033,-3.0103,-3.0908,0.0,-3.1551,-3.1662,0.0,-3.1752,0.0,0.0,0.0,0.0,0.0,0.0,0.0,0.0,0.0,0.0,0.0,0.0,0.0,0.0,0.0,0.0,0.0,0.0,0.0,0.0,0.0,0.0,0.0,0.0,0.0,-3.3001,-3.3001,-3.2279,-3.2375,-3.3317,-3.4192,-3.4617,-3.4619,-3.4663,-3.4629,-3.4425,-3.2923,-3.2207,-3.2015,-3.1203,-3.0862,-3.0872,-3.0801,-3.0709,-3.0577,-3.0518,-3.0447,-3.0364,-3.0163,-3.0047,-2.9939,-2.9514,-2.9339,-2.9256,-2.9171,-2.9067,-2.8973,-2.9004,-2.9421,-2.9844,-2.9969,-3.0519,-3.0837,-3.0282,-3.0189,-3.0166,-2.9876,-2.9332,-2.8826,-2.8621,-2.7879,-2.7027,-2.6172,-2.5148,-2.4292,-2.3675,-2.2848,-2.2259,-2.2259,-2.1675,-2.0613,-1.9003,-1.867,-1.7658,-1.5284,-1.5086,-1.488,-1.4343,-1.5608,-1.6133,-1.5674,-1.4513,-1.3646,-1.3146,-1.192,-1.1139,-1.0724,-1.074,-1.0746,-1.0757,-1.0902,-1.1009,-2.9814,-2.9946,-2.9989,-2.9973,-3.0368,0.0,0.0,-3.0828,-3.1027,-3.1223,-3.1376,0.0,0.0,0.0,0.0,0.0,0.0,0.0,0.0,0.0,0.0,0.0,0.0,0.0,0.0,0.0,0.0,0.0,0.0,0.0,0.0,0.0,0.0,0.0,0.0,-3.1205,-3.1205,-3.148,-3.1791,-3.2143,-3.2672,-3.2925,-3.2976,-3.3526,-3.3204,-3.2238,-3.2141,-3.1775,-3.123,-3.0891,-3.0735,-3.0681,-3.0632,-3.0574,-3.0568,-3.0521,-3.0482,-3.0442,-3.0367,-3.0321,-3.0273,-2.9931,-2.9761,-2.9625,-2.9416,-2.9267,-2.913,-2.9044,-2.913,-2.9312,-2.9454,-2.9871,-3.009,-2.9462,-2.9532,-2.9642,-2.9342,-2.9311,-2.9273,-2.8967,-2.8496,-2.767,-2.6158,-2.5398,-2.457,-2.3365,-2.2396,-2.1839,-2.1839,-2.1071,-2.0085,-1.8849,-1.7425,-1.6131,-1.4974,-1.4489,-1.4065,-1.3783,-1.4514,-1.4498,-1.3454,-1.2934,-1.2012,-1.0616,-1.0242,-0.9771,-0.9288,-0.9504,-0.9648,-0.9653,-0.9819,-0.9935,-2.9515,-2.956,-2.9438,-2.9438,0.0,0.0,-2.9826,-3.013,-3.0468,-3.0699,-3.0677,0.0,0.0,0.0,0.0,0.0,0.0,0.0,0.0,0.0,0.0,0.0,0.0,0.0,0.0,0.0,0.0,0.0,0.0,0.0,0.0,0.0,0.0,0.0,0.0,-3.0105,-3.0371,-3.1087,-3.1694,-3.222,-3.2115,-3.2126,-3.2292,-3.2901,-3.2433,-3.12,-3.1535,-3.1347,-3.0807,-3.0792,-3.0762,-3.0723,-3.0677,-3.0659,-3.0625,-3.0583,-3.056,-3.0565,-3.0539,-3.053,-3.0481,-3.0239,-3.0098,-2.9973,-2.9744,-2.9551,-2.9415,-2.9332,-2.9225,-2.9159,-2.9174,-2.9487,-2.9642,-2.9192,-2.9223,-2.9281,-2.9059,-2.8925,-2.8846,-2.8756,-2.8482,-2.7753,-2.6023,-2.548,-2.4687,-2.2871,-2.1889,-2.1302,-2.1049,-2.0279,-1.9288,-1.8093,-1.6053,-1.4681,-1.433,-1.3775,-1.3419,-1.3119,-1.3178,-1.2945,-1.2526,-1.2077,-1.1099,-0.9593,-0.9304,-0.8843,-0.8295,-0.8586,-0.8733,-0.8738,-0.8958,-0.8981,-2.8935,-2.8685,-2.8288,-2.8288,0.0,0.0,-2.8982,-2.9677,-3.0189,-3.0189,0.0,-2.94,0.0,0.0,0.0,0.0,0.0,0.0,0.0,0.0,0.0,0.0,0.0,0.0,0.0,0.0,0.0,0.0,0.0,0.0,0.0,0.0,0.0,0.0,0.0,0.0,-3.0996,-3.1208,-3.2145,-3.3779,-3.298,-3.2787,-3.3103,-3.3087,-3.2681,-3.1934,-3.113,-3.0799,-3.0799,-3.0799,-3.0801,-3.0797,-3.08,-3.0754,-3.07,-3.0708,-3.0706,-3.069,-3.061,-3.0599,-3.0567,-3.037,-3.0306,-3.0263,-3.0054,-2.9912,-2.9794,-2.9712,-2.9608,-2.9472,-2.9251,-2.9448,-2.9692,-2.9692,-2.9449,-2.9213,-2.9178,-2.8224,-2.7466,-2.7921,-2.7688,-2.701,-2.5776,-2.5411,-2.449,-2.2212,-2.1313,-2.0624,-1.9835,-1.932,-1.8365,-1.6471,-1.4609,-1.3346,-1.29,-1.29,-1.2673,-1.2305,-1.1539,-1.1835,-1.3419,-1.215,-1.1174,-1.0783,-0.9372,-0.8475,-0.8102,-0.8102,-0.8102,-0.8106,-0.8295,-0.8379,-2.84,-2.8448,0.0,-2.8288,0.0,0.0,0.0,-2.9104,0.0,0.0,0.0,0.0,0.0,0.0,0.0,0.0,0.0,0.0,0.0,0.0,0.0,0.0,0.0,0.0,0.0,0.0,0.0,0.0,0.0,0.0,0.0,0.0,0.0,0.0,0.0,-3.0485,-3.1343,-3.211,-3.2477,-3.2463,-3.2938,-3.3042,-3.28,-3.2228,-3.1603,-3.094,-3.068,-3.0632,-3.0722,-3.073,-3.0719,-3.0718,-3.0678,-3.0644,-3.0644,-3.0675,-3.0704,-3.071,-3.0682,-3.067,-3.0652,-3.06,-3.0521,-3.0414,-3.0298,-3.0124,-2.9942,-2.9923,-2.9807,-2.9697,-2.9644,-2.9664,-2.9576,-2.9113,-2.9124,-2.9149,-2.8722,-2.8592,-2.8477,-2.8135,-2.7572,-2.6639,-2.4841,-2.3724,-2.2304,-2.0012,-1.8985,-1.8248,-1.7425,-1.6784,-1.5869,-1.4633,-1.3375,-1.2452,-1.1855,-1.1558,-1.1409,-1.1484,-1.0956,-1.0807,-1.1186,-1.0201,-0.9296,-0.8461,-0.8089,-0.7633,-0.7249,-0.7411,-0.7488,-0.7492,-0.7696,-0.7475,-2.775,-2.7815,0.0,-2.768,-2.768,-2.778,-2.7963,0.0,0.0,0.0,0.0,0.0,0.0,0.0,0.0,0.0,0.0,0.0,0.0,0.0,0.0,0.0,0.0,0.0,0.0,0.0,0.0,0.0,0.0,0.0,0.0,0.0,0.0,0.0,-3.0571,-3.0968,-3.182,-3.2532,-3.2651,-3.2236,-3.2512,-3.2369,-3.1851,-3.1501,-3.0963,-3.0304,-3.0384,-3.0462,-3.0543,-3.0626,-3.0661,-3.0667,-3.0618,-3.0599,-3.0593,-3.0648,-3.0658,-3.0663,-3.0693,-3.0699,-3.069,-3.0728,-3.0697,-3.0606,-3.0561,-3.042,-3.0221,-3.0218,-3.0093,-3.0002,-2.9994,-2.9932,-2.9712,-2.9116,-2.9112,-2.9123,-2.8684,-2.8647,-2.8159,-2.6521,-2.5749,-2.4357,-2.1263,-2.0361,-1.9287,-1.6828,-1.6102,-1.5716,-1.5385,-1.4311,-1.3389,-1.2812,-1.1703,-1.0785,-1.0271,-1.0137,-0.9991,-1.0064,-0.9257,-0.8936,-0.909,-0.8954,-0.8466,-0.7625,-0.7326,-0.6942,-0.663,-0.6868,-0.6949,-0.6949,-0.7176,-0.678,-2.7093,-2.6982,-2.6779,-2.6779,-2.6779,0.0,-2.7327,-2.7929,-2.8151,-2.7519,0.0,0.0,0.0,0.0,0.0,0.0,0.0,0.0,0.0,0.0,0.0,0.0,0.0,0.0,0.0,0.0,0.0,0.0,0.0,0.0,0.0,0.0,0.0,0.0,-3.1048,-3.1556,-3.2365,-3.2533,-3.2569,0.0,-3.1697,-3.0997,-3.0413,-3.0771,-3.0592,-2.9985,-3.0203,-3.0271,-3.0294,-3.0482,-3.0557,-3.0565,-3.0574,-3.0595,-3.0587,-3.0594,-3.0584,-3.0599,-3.0675,-3.0701,-3.0703,-3.079,-3.0804,-3.0806,-3.0804,-3.0716,-3.0599,-3.0528,-3.0423,-3.0322,-3.0336,-3.023,-3.0042,-2.9604,-2.9345,-2.912,-2.8977,-2.8504,-2.7277,-2.4346,-2.3149,-2.1159,-1.6807,-1.6257,-1.5548,-1.3097,-1.2844,-1.3068,-1.3396,-1.2169,-1.1145,-1.1077,-0.9869,-0.891,-0.8483,-0.8564,-0.8574,-0.8433,-0.7078,-0.6578,-0.7245,-0.797,-0.8156,-0.7609,-0.6861,-0.6325,-0.6009,-0.6325,-0.6483,-0.6486,-0.6714,-0.6402,-2.6616,-2.6616,0.0,0.0,-2.6779,-2.6832,-2.6922,-2.7063,-2.708,0.0,0.0,0.0,0.0,0.0,0.0,0.0,0.0,0.0,0.0,0.0,0.0,0.0,0.0,0.0,0.0,0.0,0.0,0.0,0.0,0.0,0.0,0.0,0.0,-3.1087,-3.1403,-3.1996,-3.2847,-3.2288,-3.1679,0.0,-3.0296,-2.9595,-2.8961,-2.9516,-2.9776,-2.9845,-3.0003,-3.0061,-3.008,-3.0222,-3.029,-3.0302,-3.046,-3.0491,-3.0443,-3.0507,-3.0529,-3.0547,-3.0657,-3.071,-3.0701,-3.0776,-3.08,-3.08,-3.0795,-3.0703,-3.0619,-3.0652,-3.057,-3.0468,-3.0522,-3.0541,-3.0503,-3.0247,-2.994,-2.9664,-2.9417,-2.92,-2.8739,-2.7798,-2.4309,-2.1051,-1.9461,-1.5676,-1.2324,-1.0797,-1.0315,-1.0227,-1.0735,-1.0698,-1.0278,-0.9238,-0.8974,-0.8569,-0.7858,-0.7513,-0.7513,-0.7792,-0.6682,-0.5981,-0.5837,-0.5947,-0.5935,-0.5857,-0.5705,-0.5318,-0.4771,-0.516,-0.5318,-0.5326,-0.5792,-0.6045,-2.6258,0.0,0.0,-2.6765,0.0,-2.6779,-2.6779,-2.6779,-2.6645,0.0,0.0,0.0,0.0,0.0,0.0,0.0,0.0,0.0,0.0,0.0,0.0,0.0,0.0,0.0,0.0,0.0,0.0,0.0,0.0,0.0,0.0,-2.9919,-3.0474,-3.1289,-3.1618,-3.2015,-3.2454,-3.1824,-3.1138,-3.0368,-2.9597,-2.888,-2.8272,-2.8925,-2.9332,-2.957,-2.9661,-2.9712,-2.9729,-2.9893,-2.9954,-2.9969,-3.0177,-3.0235,-3.0216,-3.0367,-3.0411,-3.0413,-3.0517,-3.0535,-3.0522,-3.0667,-3.0704,-3.07,-3.0739,-3.0696,-3.0654,-3.0645,-3.0621,-3.0605,-3.0642,-3.0679,-3.0678,-3.0616,-3.0424,-3.0233,-3.0027,-2.997,-2.9363,-2.732,-2.3158,-1.9184,-1.6701,-1.2055,-0.8524,-0.8168,-0.7961,-0.7954,-0.813,-0.8005,-0.7599,-0.6647,-0.6458,-0.626,-0.5783,-0.579,-0.5931,-0.6134,-0.5507,-0.5127,-0.5271,-0.4218,-0.3852,-0.4382,-0.4358,-0.3997,-0.3151,-0.3655,-0.3752,-0.3359,-0.3984,-0.4073,-2.6111,0.0,-2.6525,-2.6659,-2.6727,0.0,-2.6712,-2.6765,-2.6591,0.0,0.0,0.0,0.0,0.0,0.0,0.0,0.0,0.0,0.0,0.0,0.0,0.0,0.0,0.0,0.0,0.0,0.0,0.0,0.0,0.0,-2.9732,-3.0137,-3.0598,-3.1266,-3.162,-3.1804,-3.1804,-3.1185,-3.0534,-2.9869,-2.9057,-2.8405,-2.7954,-2.8515,-2.8934,-2.9115,-2.9235,-2.926,-2.928,-2.9533,-2.9624,-2.9642,-2.9848,-2.9927,-2.9946,-3.0166,-3.0207,-3.0234,-3.034,-3.0312,-3.0282,-3.0474,-3.0545,-3.056,-3.0605,-3.0644,-3.0656,-3.0594,-3.0614,-3.0661,-3.0685,-3.0687,-3.0718,-3.0771,-3.074,-3.0677,-3.0568,-3.0654,-2.9775,-2.6555,-2.1857,-1.6745,-1.1501,-0.7571,-0.5286,-0.5654,-0.5924,-0.5994,-0.5913,-0.5529,-0.5074,-0.4532,-0.4013,-0.3756,-0.3756,-0.4159,-0.4359,-0.4289,-0.3908,-0.3958,-0.4444,-0.2624,-0.2009,-0.287,-0.3104,-0.2775,-0.1798,-0.2448,-0.2167,-0.1162,-0.1783,-0.1556,-2.6056,0.0,-2.634,0.0,-2.6394,-2.6394,0.0,0.0,0.0,0.0,0.0,0.0,0.0,0.0,0.0,0.0,0.0,0.0,0.0,0.0,0.0,0.0,0.0,0.0,0.0,0.0,0.0,0.0,0.0,0.0,-3.0077,-3.0508,-3.0767,-3.0868,-3.1244,-3.1473,-3.1473,-3.0193,-2.9506,-2.9386,-2.8233,-2.7669,-2.766,-2.7869,-2.8147,-2.8453,-2.87,-2.8753,-2.8748,-2.9177,-2.9359,-2.9379,-2.9569,-2.9642,-2.9681,-2.9888,-2.9921,-2.9899,-3.0144,-3.019,-3.0139,-3.0221,-3.0286,-3.0346,-3.0353,-3.0423,-3.0511,-3.0516,-3.0521,-3.0533,-3.0607,-3.0661,-3.0691,-3.0704,-3.0714,-3.0708,-3.0747,-3.0817,-3.0703,-3.0117,-2.3361,-1.499,-0.6354,-0.4432,-0.4023,-0.4087,-0.4353,-0.4683,-0.4945,-0.5561,-0.5568,-0.442,-0.388,-0.3613,-0.3553,-0.362,-0.3485,-0.3147,-0.2555,-0.2022,-0.1684,-0.095,-0.0681,-0.0817,-0.1928,-0.2269,-0.1831,-0.2277,-0.1411,0.0455,-0.0076,0.0537,-2.6056,-2.6111,-2.6233,0.0,-2.6286,-2.634,-2.6379,0.0,0.0,0.0,0.0,0.0,0.0,0.0,0.0,0.0,0.0,0.0,0.0,0.0,0.0,0.0,0.0,0.0,0.0,0.0,0.0,0.0,0.0,-2.8681,-2.9528,-2.9733,-2.9995,-3.03,-3.0625,-3.073,-3.0608,-2.9374,-2.8289,-2.7324,-2.6791,-2.669,-2.692,-2.6987,-2.7422,-2.8139,-2.8219,-2.8219,-2.8237,-2.8591,-2.8735,-2.8782,-2.9177,-2.9299,-2.9277,-2.9476,-2.9533,-2.9495,-2.9727,-2.9758,-2.9739,-2.9946,-3.0037,-3.0018,-3.0018,-3.0138,-3.0266,-3.0227,-3.0309,-3.0404,-3.0518,-3.0571,-3.0607,-3.0645,-3.0642,-3.0665,-3.0725,-3.0771,-2.9351,-2.4469,-1.9057,-1.2765,-0.4711,-0.3291,-0.3224,-0.2958,-0.3288,-0.3553,-0.3482,-0.3825,-0.3763,-0.2952,-0.248,-0.2213,-0.235,-0.2619,-0.2619,-0.2214,-0.134,-0.0737,-0.0469,0.0134,0.0673,0.121,-0.0698,-0.1283,-0.057,-0.0651,0.0293,0.2071,0.1627,0.18,0.0,0.0,-2.6056,-2.6179,-2.6233,-2.6233,0.0,0.0,0.0,0.0,0.0,0.0,0.0,0.0,0.0,0.0,0.0,0.0,0.0,0.0,0.0,0.0,0.0,0.0,0.0,0.0,0.0,0.0,0.0,-2.824,-2.8795,-2.8889,-2.9136,-2.9531,-2.9853,-2.9843,-2.9534,-2.8379,-2.7158,-2.5819,-2.5819,-2.5944,-2.6227,-2.6227,-2.6657,-2.7382,-2.766,-2.7765,-2.7765,-2.8057,-2.8166,-2.8219,-2.87,-2.8819,-2.8795,-2.9092,-2.9156,-2.9095,-2.9319,-2.9378,-2.9359,-2.9607,-2.9696,-2.9696,-2.971,-2.9861,-3.0037,-2.9996,-3.0122,-3.0278,-3.0364,-3.0409,-3.0471,-3.0501,-3.0511,-3.0574,-3.0678,-2.9821,-2.6812,-1.9211,-1.5389,-1.1227,-0.4316,-0.2889,-0.2554,-0.2085,-0.2421,-0.2688,-0.2418,-0.2354,-0.2154,-0.1748,-0.1144,-0.0942,-0.121,-0.1345,-0.1412,-0.121,-0.0201,0.0469,0.0536,0.1141,0.1747,0.2284,0.1165,0.0623,0.0762,0.0919,0.1718,0.3099,0.281,0.2775,0.0,-2.5893,0.0,-2.5893,-2.5893,0.0,0.0,0.0,0.0,0.0,0.0,0.0,0.0,0.0,0.0,0.0,0.0,0.0,0.0,0.0,0.0,0.0,0.0,0.0,0.0,0.0,0.0,0.0,0.0,-2.7414,-2.7947,-2.8304,-2.8559,-2.8559,-2.8967,-2.8851,-2.8202,-2.7096,-2.6286,-2.5819,-2.5819,-2.5762,-2.5738,-2.5738,-2.5705,-2.5693,-2.6903,-2.7378,-2.7365,-2.7678,-2.784,-2.7851,-2.8129,-2.821,-2.8192,-2.8748,-2.8842,-2.8753,-2.9042,-2.9107,-2.9107,-2.9129,-2.9277,-2.9418,-2.9418,-2.9643,-2.9905,-2.9905,-3.0049,-3.0185,-3.0056,-3.0215,-3.0367,-3.0254,-3.0328,-3.0453,-3.0656,-2.7449,-2.3155,-1.8523,-1.5183,-1.1109,-0.4646,-0.2758,-0.1951,-0.148,-0.1884,-0.2221,-0.2221,-0.2018,-0.1681,-0.1345,-0.0539,-0.0269,-0.0672,0.0067,0.0336,-0.0067,0.0939,0.1678,0.2085,0.2288,0.2221,0.1816,0.3984,0.3984,0.1814,0.1818,0.2252,0.3079,0.3078,0.3478,0.0,0.0,0.0,-2.5893,-2.5893,-2.5893,0.0,0.0,0.0,0.0,0.0,0.0,0.0,0.0,0.0,0.0,0.0,0.0,0.0,0.0,0.0,0.0,0.0,0.0,0.0,0.0,0.0,0.0,0.0,0.0,-2.7363,-2.7515,-2.7765,-2.811,-2.7888,-2.6964,-2.5277,-2.4898,-2.4259,-2.3295,-2.3447,-2.365,-2.3829,-2.3829,-2.3907,-2.4055,-2.4511,-2.5363,-2.6488,-2.7132,-2.7303,-2.7238,-2.7542,-2.7783,-2.7926,-2.8129,-2.8228,-2.8273,-2.8507,-2.8515,-2.8402,-2.8554,-2.8753,-2.8938,-2.8948,-2.9212,-2.9514,-2.9626,-2.9751,-2.9905,-2.9977,-3.0075,-3.0152,-3.0202,-3.034,-3.0501,-3.0605,-2.7218,-2.3681,-2.215,-1.4054,-0.7797,-0.8886,-0.4442,-0.0875,-0.1144,-0.1345,-0.148,-0.148,-0.1277,-0.0941,-0.0538,-0.0,0.0202,-0.0,0.0471,0.0806,0.0807,0.1745,0.2417,0.2688,0.2757,0.3092,0.3556,0.41,0.3969,0.3159,0.3629,0.3981,0.4081,0.4081,0.4211,-2.5893,0.0,0.0,0.0,0.0,-2.5893,0.0,0.0,0.0,0.0,0.0,0.0,0.0,0.0,0.0,0.0,0.0,0.0,0.0,0.0,0.0,0.0,0.0,0.0,0.0,0.0,0.0,0.0,0.0,0.0,-2.6654,-2.6811,-2.7019,-2.7334,-2.6736,-2.5499,-2.3595,-2.3327,-2.267,-2.1635,-2.187,-2.2103,-2.2315,-2.2459,-2.2629,-2.2817,-2.2961,-2.3861,-2.5269,-2.5765,-2.5995,-2.6043,-2.6371,-2.6571,-2.6708,-2.6807,-2.6911,-2.706,-2.7181,-2.7236,-2.7245,-2.7326,-2.7533,-2.7725,-2.7786,-2.8027,-2.8336,-2.8557,-2.8727,-2.8928,-2.9361,-2.9709,-3.0,-3.0128,-3.0352,-3.0511,-3.0537,-2.7134,-2.3657,-2.2264,-1.4826,-0.8747,-0.8767,-0.3864,-0.0202,-0.0808,-0.1009,-0.1009,-0.0739,-0.047,-0.0134,0.0336,0.0538,0.0741,0.1076,0.1479,0.1949,0.2351,0.2954,0.3291,0.336,0.3489,0.3889,0.4489,0.4489,0.4492,0.4436,0.4906,0.5036,0.4894,0.4824,0.4763,0.0,0.0,0.0,0.0,0.0,0.0,0.0,0.0,0.0,0.0,0.0,0.0,0.0,0.0,0.0,0.0,0.0,0.0,0.0,0.0,0.0,0.0,0.0,0.0,0.0,0.0,0.0,0.0,0.0,-2.5286,-2.5839,-2.6258,-2.6364,-2.6149,-2.5482,-2.4557,-2.3319,-2.2366,-2.1624,-2.1024,-2.1226,-2.1321,-2.1321,-2.1708,-2.1894,-2.1933,-2.2307,-2.2897,-2.3588,-2.3637,-2.3918,-2.4273,-2.4533,-2.4577,-2.4516,-2.4856,-2.4999,-2.509,-2.509,-2.533,-2.564,-2.5508,-2.5612,-2.58,-2.5937,-2.6131,-2.6359,-2.6784,-2.699,-2.7286,-2.8164,-2.9129,-2.9896,-3.0066,-3.0278,-3.0462,-3.0413,-2.7127,-2.2922,-1.8607,-1.7626,-1.429,-0.4212,-0.1139,-0.0135,-0.0472,-0.0809,-0.0808,-0.0067,0.0336,0.0672,0.1076,0.1143,0.1545,0.2417,0.3159,0.3902,0.4573,0.4436,0.4231,0.4028,0.4553,0.4683,0.4353,0.5411,0.5745,0.5428,0.5428,0.5428,0.5428,0.5223,0.5097,-2.5893,0.0,0.0,0.0,0.0,0.0,0.0,0.0,0.0,0.0,0.0,0.0,0.0,0.0,0.0,0.0,0.0,0.0,0.0,0.0,0.0,0.0,0.0,0.0,0.0,0.0,0.0,0.0,-2.4708,-2.5061,-2.523,-2.5578,-2.5362,-2.4422,-2.3993,-2.2777,-2.0645,-2.0625,-2.0091,-1.9086,-1.9348,-1.9411,-1.9372,-1.9479,-1.9517,-1.9479,-1.99,-2.0279,-2.0793,-2.2566,-2.3278,-2.3296,-2.3315,-2.362,-2.4079,-2.4044,-2.4312,-2.4684,-2.4684,-2.4744,-2.482,-2.4773,-2.5062,-2.542,-2.5638,-2.5839,-2.6085,-2.6562,-2.6743,-2.7026,-2.8054,-2.8575,-2.9015,-2.9782,-3.0052,-3.019,-3.0351,-2.9518,-2.7421,-2.3074,-1.9668,-1.6255,-1.24,-0.5221,-0.0135,-0.0472,0.0067,0.0471,0.0403,0.0941,0.148,0.1884,0.2214,0.248,0.2619,0.3556,0.4092,0.4164,0.4954,0.5348,0.5153,0.5675,0.6001,0.6199,0.6404,0.6478,0.6482,0.602,0.576,0.576,0.5554,0.5704,0.0,0.0,0.0,0.0,0.0,0.0,-2.5893,-2.5798,0.0,0.0,0.0,0.0,0.0,0.0,0.0,0.0,0.0,0.0,0.0,0.0,0.0,0.0,0.0,0.0,0.0,0.0,0.0,-2.3374,-2.38,-2.4221,-2.4708,-2.4892,-2.4517,-2.3516,-2.3305,-2.2156,-2.0012,-1.9843,-1.9287,-1.8344,-1.8337,-1.8316,-1.8277,-1.8461,-1.85,-1.8422,-1.8669,-1.8831,-1.9035,-2.0661,-2.1528,-2.1897,-2.1843,-2.207,-2.2392,-2.2491,-2.2784,-2.3084,-2.3162,-2.3287,-2.3365,-2.3226,-2.3482,-2.3869,-2.4118,-2.4435,-2.4807,-2.5284,-2.577,-2.6297,-2.6934,-2.7699,-2.85,-2.9177,-2.9718,-3.0099,-3.0285,-3.0413,-2.8661,-2.2443,-1.9202,-1.5858,-1.0754,-0.4353,-0.0067,-0.027,0.0605,0.1277,0.1076,0.1546,0.2083,0.2354,0.2885,0.3149,0.3218,0.4018,0.4553,0.4688,0.5286,0.5749,0.5815,0.6272,0.6666,0.6985,0.7195,0.7199,0.7138,0.6548,0.628,0.6474,0.6404,0.6728,0.0,0.0,0.0,0.0,0.0,0.0,-2.5839,-2.5839,-2.5729,0.0,0.0,0.0,0.0,0.0,0.0,0.0,0.0,0.0,0.0,0.0,0.0,0.0,0.0,0.0,0.0,-2.1698,-2.1925,-2.2482,-2.2543,-2.3075,-2.4163,-2.4163,-2.3834,-2.3097,-2.3003,-2.2105,-2.0355,-1.9582,-1.8882,-1.8249,-1.7904,-1.7733,-1.7707,-1.8147,-1.8266,-1.8147,-1.8226,-1.8173,-1.8066,-1.8525,-1.9303,-2.0246,-2.033,-2.0296,-2.0212,-2.0614,-2.0845,-2.1007,-2.1166,-2.1432,-2.1631,-2.1401,-2.1554,-2.1882,-2.2124,-2.2546,-2.3098,-2.3552,-2.4415,-2.5239,-2.5351,-2.6634,-2.7998,-2.8452,-2.927,-2.998,-3.0142,-3.0359,-2.7863,-1.8948,-1.7379,-1.4213,-0.3859,-0.0941,0.0067,0.0202,0.101,0.1681,0.1816,0.2217,0.2551,0.282,0.3353,0.3751,0.4148,0.4616,0.515,0.5679,0.5686,0.5818,0.6338,0.6736,0.7125,0.7377,0.7847,0.7917,0.7652,0.7129,0.6994,0.7312,0.7447,0.7832,0.0,0.0,0.0,0.0,0.0,0.0,-2.5647,-2.5355,-2.5005,0.0,0.0,0.0,0.0,0.0,0.0,0.0,0.0,0.0,0.0,0.0,0.0,0.0,0.0,0.0,0.0,-2.1698,-2.1761,-2.1874,-2.231,-2.2895,-2.3598,-2.3433,-2.3022,-2.2407,-2.175,-2.0824,-1.9545,-1.8933,-1.8174,-1.719,-1.739,-1.7286,-1.6921,-1.731,-1.7393,-1.7282,-1.7639,-1.7693,-1.7504,-1.7974,-1.8316,-1.8622,-1.9281,-1.9479,-1.9449,-1.9681,-1.998,-2.0292,-2.0212,-2.0467,-2.0813,-2.0781,-2.1055,-2.1507,-2.1982,-2.2192,-2.2449,-2.3236,-2.3739,-2.4221,-2.504,-2.5607,-2.6337,-2.7905,-2.8589,-2.9093,-2.9874,-3.0283,-2.7659,-1.8041,-1.689,-1.4213,-0.3859,-0.0941,0.0404,0.1548,0.1615,0.1748,0.2216,0.2755,0.3224,0.3694,0.422,0.4686,0.509,0.5488,0.5885,0.6478,0.6802,0.7321,0.8032,0.849,0.8753,0.8624,0.8619,0.8544,0.8479,0.8102,0.7972,0.8037,0.8291,0.8801,0.0,0.0,0.0,-2.5893,0.0,0.0,0.0,-2.5369,-2.5075,-2.4408,0.0,0.0,0.0,0.0,0.0,0.0,0.0,0.0,0.0,0.0,0.0,0.0,0.0,0.0,0.0,-2.1434,-2.1434,-2.1434,-2.1714,-2.2113,-2.264,-2.2604,-2.237,-2.2005,-2.1629,-2.0851,-1.976,-1.9028,-1.8246,-1.7521,-1.723,-1.6876,-1.641,-1.681,-1.6704,-1.6194,-1.6892,-1.6837,-1.6299,-1.7201,-1.7353,-1.7066,-1.812,-1.8616,-1.8793,-1.9095,-1.9427,-1.9732,-1.9737,-1.9949,-2.0174,-2.0193,-2.0483,-2.0878,-2.1228,-2.1655,-2.2102,-2.266,-2.3117,-2.3562,-2.4096,-2.4772,-2.557,-2.6674,-2.7788,-2.8761,-2.9281,-2.9928,-2.7537,-1.7778,-1.4615,-1.1065,-0.3409,-0.0942,0.0741,0.2898,0.303,0.3027,0.3159,0.3558,0.3959,0.4156,0.4752,0.5282,0.5488,0.6214,0.6802,0.6929,0.7447,0.7967,0.8549,0.8994,0.9506,1.0015,0.9882,0.9748,0.9627,0.9697,0.9576,0.9256,0.9512,0.9958,0.0,0.0,0.0,0.0,0.0,-2.5784,0.0,0.0,0.0,-2.4536,0.0,0.0,0.0,0.0,0.0,0.0,0.0,0.0,0.0,0.0,0.0,0.0,0.0,0.0,0.0,-2.1221,-2.1221,-2.1221,-2.1221,-2.1348,-2.1765,-2.1765,-2.1761,-2.1704,-2.1595,-2.1086,-2.0128,-1.9209,-1.8454,-1.7851,-1.7163,-1.6599,-1.6124,-1.6574,-1.6288,-1.545,-1.6235,-1.6009,-1.5198,-1.6324,-1.6367,-1.5788,-1.7242,-1.7908,-1.8094,-1.8472,-1.8765,-1.9006,-1.9177,-1.9354,-1.9457,-1.9573,-1.9914,-2.028,-2.0364,-2.1038,-2.1811,-2.195,-2.2478,-2.3032,-2.3224,-2.4033,-2.4962,-2.5467,-2.6951,-2.8338,-2.8669,-2.9543,-2.7683,-1.8877,-1.3027,-0.7878,-0.2772,-0.0876,0.0943,0.3645,0.4182,0.418,0.3971,0.4361,0.4622,0.4486,0.5216,0.5749,0.5943,0.6863,0.7517,0.7572,0.8086,0.8597,0.9116,0.9494,1.0123,1.108,1.1142,1.1017,1.0766,1.1288,1.117,1.0401,1.0604,1.0926,0.0,0.0,0.0,0.0,-2.5893,0.0,0.0,0.0,-2.4892,-2.4274,0.0,0.0,0.0,0.0,0.0,0.0,0.0,0.0,0.0,0.0,0.0,0.0,0.0,0.0,0.0,0.0,-2.1221,-2.1221,-2.1221,-2.1221,-2.1285,-2.1285,-2.1262,-2.1267,-2.0827,-2.0329,-1.9784,-1.8954,-1.8035,-1.7033,-1.7017,-1.6735,-1.6282,-1.6634,-1.6441,-1.5822,-1.5963,-1.5637,-1.5108,-1.5277,-1.5289,-1.5367,-1.7034,-1.7503,-1.716,-1.7394,-1.7504,-1.7585,-1.7894,-1.8212,-1.85,-1.8898,-1.9536,-2.0124,-1.9692,-2.0389,-2.1348,-2.1252,-2.1716,-2.2361,-2.2968,-2.3313,-2.3804,-2.4899,-2.611,-2.7289,-2.8307,-2.9417,-2.8519,-2.2848,-1.5114,-0.7734,-0.2147,-0.0539,0.0741,0.296,0.3904,0.4244,0.403,0.4422,0.4818,0.502,0.5613,0.6404,0.7195,0.7251,0.7767,0.9011,0.9494,1.0053,1.0696,1.1073,1.1322,1.1447,1.164,1.1703,1.1648,1.2097,1.1802,1.0737,1.1247,1.1498,0.0,0.0,0.0,0.0,0.0,0.0,0.0,0.0,-2.4835,0.0,0.0,0.0,0.0,0.0,0.0,0.0,0.0,0.0,0.0,0.0,0.0,0.0,0.0,0.0,0.0,0.0,0.0,0.0,0.0,-2.0226,-2.0571,-2.0484,-2.042,-2.056,-2.0497,-2.0171,-1.9505,-1.8753,-1.7973,-1.7253,-1.686,-1.6428,-1.5977,-1.6365,-1.614,-1.5387,-1.595,-1.5702,-1.4935,-1.528,-1.5146,-1.4865,-1.5593,-1.5959,-1.6133,-1.6727,-1.6714,-1.6464,-1.7201,-1.7353,-1.7327,-1.8133,-1.8664,-1.8977,-1.8954,-1.9411,-2.0016,-2.0169,-2.0719,-2.1374,-2.2102,-2.253,-2.2965,-2.3761,-2.4917,-2.6189,-2.7342,-2.8521,-2.7103,-1.9405,-1.6676,-1.2128,-0.1258,0.1144,0.1952,0.3025,0.43,0.5036,0.4752,0.5474,0.6199,0.6593,0.6994,0.7451,0.8161,0.8415,0.8801,0.9396,1.0275,1.1024,1.1578,1.2074,1.2573,1.2948,1.2948,1.2887,1.2642,1.272,1.2605,1.222,1.1988,1.1988,-2.6218,0.0,0.0,0.0,0.0,0.0,0.0,0.0,0.0,0.0,0.0,0.0,0.0,0.0,0.0,0.0,0.0,0.0,0.0,0.0,0.0,0.0,0.0,0.0,0.0,0.0,0.0,0.0,-1.9639,-1.9431,-1.9628,-1.9541,-1.9475,-1.9694,-2.0031,-1.9813,-1.8956,-1.8427,-1.7779,-1.7085,-1.6471,-1.5968,-1.571,-1.5911,-1.5652,-1.5024,-1.5604,-1.5258,-1.4367,-1.4736,-1.4589,-1.4033,-1.4084,-1.4323,-1.4708,-1.5683,-1.5708,-1.5452,-1.6287,-1.6403,-1.628,-1.7203,-1.7558,-1.7706,-1.7961,-1.838,-1.8812,-1.9022,-1.9703,-2.0473,-2.1225,-2.1807,-2.2319,-2.277,-2.395,-2.5314,-2.6563,-2.7784,-2.6274,-1.8303,-1.7736,-1.4637,-0.2342,0.1431,0.2827,0.3226,0.4631,0.5631,0.5345,0.633,0.7251,0.7642,0.7972,0.8425,0.8994,0.9384,0.9767,1.0268,1.1454,1.2381,1.2923,1.3356,1.3795,1.4231,1.3941,1.37,1.3571,1.3407,1.3398,1.3631,1.2789,1.2597,0.0,0.0,0.0,-2.5948,0.0,0.0,0.0,0.0,-2.4835,0.0,0.0,0.0,0.0,0.0,0.0,0.0,0.0,0.0,0.0,0.0,0.0,0.0,0.0,0.0,0.0,0.0,0.0,-1.9365,-1.9299,-1.909,-1.8603,-1.8556,-1.8556,-1.8526,-1.909,-1.8806,-1.775,-1.7965,-1.7403,-1.6035,-1.5722,-1.5571,-1.5652,-1.5167,-1.4994,-1.4998,-1.4542,-1.3914,-1.3141,-1.3177,-1.3005,-1.2714,-1.3041,-1.2878,-1.2653,-1.389,-1.434,-1.4422,-1.4903,-1.5262,-1.5592,-1.6009,-1.6328,-1.6557,-1.6557,-1.7312,-1.8078,-1.7905,-1.8731,-1.9798,-2.0457,-2.1178,-2.1816,-2.2218,-2.3363,-2.4759,-2.6276,-2.7455,-2.7029,-2.3023,-1.8246,-1.2902,-0.6624,-0.0951,0.2894,0.342,0.4761,0.5631,0.5345,0.6597,0.7521,0.7707,0.8285,0.9058,0.9888,0.9831,1.0521,1.232,1.358,1.4601,1.5284,1.5177,1.504,1.4855,1.4172,1.395,1.4189,1.413,1.424,1.441,1.3631,1.3433,0.0,0.0,-2.6233,-2.6056,0.0,0.0,0.0,0.0,0.0,0.0,0.0,0.0,0.0,0.0,0.0,0.0,0.0,0.0,0.0,0.0,0.0,0.0,0.0,0.0,0.0,0.0,0.0,-1.8967,-1.8085,-1.7619,0.0,-1.7619,-1.7619,-1.7765,-1.823,-1.816,-1.7485,-1.7358,-1.7012,-1.6529,-1.5832,-1.5552,-1.553,-1.5075,-1.4934,-1.4917,-1.4743,-1.4359,-1.3789,-1.3537,-1.2959,-1.2282,-1.2432,-1.1997,-1.1511,-1.3772,-1.372,-1.2682,-1.3316,-1.4029,-1.4675,-1.4937,-1.5038,-1.5071,-1.5184,-1.5516,-1.5886,-1.6431,-1.6879,-1.7518,-1.8854,-1.9394,-1.9871,-2.1036,-2.1764,-2.289,-2.551,-2.6634,-2.5139,-1.8382,-1.3425,-0.8113,-0.1145,0.3325,0.5609,0.455,0.5734,0.6915,0.7167,0.8339,0.95,1.0312,1.0501,1.1003,1.2004,1.235,1.2761,1.3262,1.4436,1.5216,1.5303,1.5728,1.5911,1.5843,1.5497,1.5264,1.5157,1.505,1.5128,1.5313,1.501,1.4756,-2.6229,-2.6258,0.0,-2.6111,-2.6002,0.0,-2.53,0.0,0.0,0.0,0.0,0.0,0.0,0.0,0.0,0.0,0.0,0.0,0.0,0.0,0.0,0.0,0.0,0.0,0.0,0.0,-1.8509,-1.8307,-1.7217,-1.6682,0.0,0.0,-1.6682,-1.683,-1.7295,-1.7295,-1.683,-1.6779,-1.6575,-1.6218,-1.5688,-1.5432,-1.5473,-1.4882,-1.4689,-1.4861,-1.4423,-1.3992,-1.3537,-1.2999,-1.2349,-1.1601,-1.1498,-1.0997,-1.0726,-1.2958,-1.2941,-1.1862,-1.2295,-1.2799,-1.3263,-1.3429,-1.3417,-1.3435,-1.3841,-1.4057,-1.4288,-1.5093,-1.5536,-1.6034,-1.7289,-1.769,-1.8103,-1.9441,-2.0322,-2.1614,-2.4299,-2.445,-2.2046,-1.5287,-1.0333,-0.5057,0.1899,0.5522,0.7028,0.5723,0.7149,0.8506,0.8954,0.9863,1.0954,1.2004,1.2227,1.27,1.3742,1.4319,1.4604,1.4486,1.5543,1.6136,1.6042,1.6564,1.6941,1.7102,1.6751,1.656,1.6681,1.641,1.6404,1.6606,1.6831,1.6712]},{"header":{"parameterUnit":"m.s-1","parameterCategory":1,"la1":30.6,"la2":29.2853,"lo1":-89.7004,"lo2":-87.6739,"dy":0.0162,"dx":0.0183,"nx":112,"ny":82,"refTime":"2023-04-29T12:00:00:Z","depth":0,"parameterNumber":3,"parameterNumberName":"V-component_of_WINDS"},"data":[0.0,0.0,0.0,0.0,0.0,0.0,0.0,0.0,0.0,0.0,0.0,0.0,0.0,0.0,0.0,0.0,0.0,0.0,0.0,0.0,0.0,0.0,0.0,0.0,0.0,0.0,0.0,0.0,0.0,0.0,0.0,0.0,0.0,0.0,0.0,0.0,0.0,0.0,0.0,0.0,0.0,0.0,0.0,0.0,0.0,0.0,0.0,0.0,0.0,0.0,0.0,0.0,0.0,0.0,0.0,0.0,0.0,0.0,0.0,0.0,0.0,0.0,0.0,0.0,0.0,0.0,0.0,0.0,0.0,0.0,0.0,0.0,0.0,0.0,0.0,0.0,0.0,0.0,0.0,0.0,0.0,0.0,0.0,0.0,0.0,0.0,0.0,0.0,0.0,0.0,0.0,-3.5917,-3.5917,-3.5917,-3.5918,-3.587,-3.5832,-3.5825,0.0,0.0,0.0,0.0,0.0,0.0,0.0,0.0,0.0,0.0,0.0,0.0,0.0,0.0,0.0,0.0,0.0,0.0,0.0,0.0,0.0,0.0,0.0,0.0,0.0,0.0,0.0,0.0,0.0,0.0,0.0,0.0,0.0,0.0,0.0,0.0,0.0,0.0,0.0,0.0,0.0,0.0,0.0,0.0,0.0,0.0,0.0,0.0,0.0,0.0,0.0,0.0,0.0,0.0,0.0,0.0,0.0,0.0,0.0,0.0,0.0,0.0,0.0,0.0,0.0,0.0,0.0,0.0,0.0,0.0,0.0,0.0,0.0,0.0,0.0,0.0,0.0,0.0,0.0,0.0,0.0,0.0,0.0,0.0,0.0,0.0,0.0,0.0,0.0,0.0,0.0,0.0,0.0,0.0,0.0,0.0,0.0,0.0,0.0,0.0,0.0,0.0,0.0,0.0,-3.5978,-3.5978,-3.5978,-3.5981,-3.5981,-3.5974,-3.595,-3.5898,0.0,0.0,0.0,0.0,0.0,0.0,0.0,0.0,0.0,0.0,0.0,0.0,0.0,0.0,0.0,0.0,0.0,0.0,0.0,0.0,0.0,0.0,0.0,0.0,0.0,0.0,0.0,0.0,0.0,0.0,0.0,0.0,0.0,0.0,0.0,0.0,0.0,0.0,0.0,0.0,0.0,0.0,0.0,0.0,0.0,0.0,0.0,0.0,0.0,0.0,0.0,0.0,0.0,0.0,0.0,0.0,0.0,0.0,0.0,0.0,0.0,0.0,0.0,0.0,0.0,0.0,0.0,0.0,0.0,0.0,0.0,0.0,0.0,0.0,0.0,0.0,0.0,0.0,0.0,0.0,0.0,0.0,0.0,0.0,0.0,0.0,0.0,0.0,0.0,0.0,0.0,0.0,0.0,0.0,0.0,0.0,0.0,0.0,0.0,0.0,0.0,0.0,0.0,-3.5833,-3.5807,-3.5745,-3.5801,-3.5846,-3.5883,-3.5958,-3.5981,-3.596,-3.5896,0.0,0.0,0.0,0.0,0.0,0.0,0.0,0.0,0.0,0.0,0.0,0.0,0.0,0.0,0.0,0.0,0.0,0.0,0.0,0.0,0.0,0.0,0.0,0.0,0.0,0.0,0.0,0.0,0.0,0.0,0.0,0.0,0.0,0.0,0.0,0.0,0.0,0.0,0.0,0.0,0.0,0.0,0.0,0.0,0.0,0.0,0.0,0.0,0.0,0.0,0.0,0.0,0.0,0.0,0.0,0.0,0.0,0.0,0.0,0.0,0.0,0.0,0.0,0.0,0.0,0.0,0.0,0.0,0.0,0.0,0.0,0.0,0.0,0.0,0.0,0.0,0.0,0.0,0.0,0.0,0.0,0.0,0.0,0.0,0.0,0.0,0.0,0.0,0.0,0.0,0.0,0.0,0.0,0.0,0.0,0.0,0.0,0.0,0.0,0.0,0.0,0.0,-3.5621,-3.5592,-3.5499,-3.5573,-3.5648,-3.5702,-3.5807,-3.5908,-3.5938,-3.5907,0.0,0.0,0.0,0.0,0.0,0.0,0.0,0.0,0.0,0.0,0.0,0.0,0.0,0.0,0.0,0.0,0.0,0.0,0.0,0.0,0.0,0.0,0.0,0.0,0.0,0.0,0.0,0.0,0.0,0.0,0.0,0.0,0.0,0.0,0.0,0.0,0.0,0.0,0.0,0.0,0.0,0.0,0.0,0.0,0.0,0.0,0.0,0.0,0.0,0.0,0.0,0.0,0.0,0.0,0.0,0.0,0.0,0.0,0.0,0.0,0.0,0.0,0.0,0.0,0.0,0.0,0.0,0.0,0.0,0.0,0.0,0.0,0.0,0.0,0.0,0.0,0.0,0.0,0.0,0.0,0.0,0.0,0.0,0.0,0.0,0.0,0.0,0.0,0.0,0.0,0.0,0.0,0.0,0.0,0.0,0.0,0.0,0.0,0.0,0.0,0.0,0.0,-3.5423,-3.5423,-3.5411,-3.5411,-3.5423,-3.5423,-3.548,-3.5582,-3.5718,-3.5781,0.0,0.0,0.0,0.0,0.0,0.0,0.0,0.0,0.0,0.0,0.0,0.0,0.0,0.0,0.0,0.0,0.0,0.0,0.0,0.0,0.0,0.0,0.0,0.0,0.0,0.0,0.0,0.0,0.0,0.0,0.0,0.0,0.0,0.0,0.0,0.0,0.0,0.0,0.0,0.0,0.0,0.0,0.0,0.0,0.0,0.0,0.0,0.0,0.0,0.0,0.0,0.0,0.0,0.0,0.0,0.0,0.0,0.0,0.0,0.0,0.0,0.0,0.0,0.0,0.0,0.0,0.0,0.0,0.0,0.0,0.0,0.0,0.0,0.0,0.0,0.0,0.0,0.0,0.0,0.0,0.0,0.0,0.0,0.0,0.0,0.0,0.0,0.0,0.0,0.0,0.0,0.0,0.0,0.0,0.0,0.0,0.0,0.0,0.0,0.0,0.0,0.0,-3.5496,-3.512,0.0,-3.5089,-3.52,-3.5331,-3.5393,-3.5488,-3.5562,0.0,0.0,0.0,0.0,0.0,0.0,0.0,0.0,0.0,0.0,0.0,0.0,0.0,0.0,0.0,0.0,0.0,0.0,0.0,0.0,0.0,0.0,0.0,0.0,0.0,0.0,0.0,0.0,0.0,0.0,0.0,0.0,0.0,0.0,0.0,0.0,0.0,0.0,0.0,0.0,0.0,0.0,0.0,0.0,0.0,0.0,0.0,0.0,0.0,0.0,0.0,0.0,0.0,0.0,0.0,0.0,0.0,0.0,0.0,0.0,0.0,0.0,0.0,0.0,0.0,0.0,0.0,0.0,0.0,0.0,0.0,0.0,0.0,0.0,0.0,0.0,0.0,0.0,0.0,0.0,0.0,0.0,0.0,0.0,0.0,0.0,0.0,0.0,0.0,0.0,0.0,0.0,0.0,0.0,0.0,0.0,0.0,0.0,0.0,0.0,0.0,0.0,-3.6103,-3.5401,-3.4832,0.0,-3.4832,-3.4925,-3.5069,-3.5143,-3.5211,-3.5328,0.0,0.0,0.0,0.0,0.0,0.0,0.0,0.0,0.0,0.0,0.0,0.0,0.0,0.0,0.0,0.0,0.0,0.0,0.0,0.0,0.0,0.0,0.0,0.0,0.0,0.0,0.0,0.0,0.0,0.0,0.0,0.0,0.0,0.0,0.0,0.0,0.0,0.0,0.0,0.0,0.0,0.0,0.0,0.0,0.0,0.0,0.0,0.0,0.0,0.0,0.0,0.0,0.0,0.0,0.0,0.0,0.0,0.0,0.0,0.0,0.0,0.0,0.0,0.0,0.0,0.0,0.0,0.0,0.0,0.0,0.0,0.0,0.0,0.0,0.0,0.0,0.0,0.0,0.0,0.0,0.0,0.0,0.0,0.0,0.0,0.0,0.0,0.0,0.0,0.0,0.0,0.0,0.0,0.0,0.0,0.0,0.0,0.0,0.0,0.0,0.0,0.0,-3.5863,-3.5127,-3.462,-3.462,-3.462,-3.462,-3.462,-3.4703,-3.4811,0.0,0.0,0.0,0.0,0.0,0.0,0.0,0.0,0.0,0.0,0.0,0.0,0.0,0.0,0.0,0.0,0.0,0.0,0.0,0.0,0.0,0.0,0.0,0.0,0.0,0.0,0.0,0.0,0.0,0.0,0.0,0.0,0.0,0.0,0.0,0.0,0.0,0.0,0.0,0.0,0.0,0.0,0.0,0.0,0.0,0.0,0.0,0.0,0.0,0.0,0.0,0.0,0.0,0.0,0.0,0.0,0.0,0.0,0.0,0.0,0.0,0.0,0.0,0.0,0.0,0.0,0.0,0.0,0.0,0.0,0.0,0.0,0.0,0.0,0.0,0.0,0.0,0.0,0.0,0.0,0.0,0.0,0.0,0.0,0.0,0.0,0.0,0.0,0.0,0.0,0.0,0.0,0.0,0.0,0.0,0.0,0.0,0.0,0.0,0.0,0.0,0.0,0.0,-3.73,-3.6659,-3.613,-3.6025,-3.6025,-3.6074,-3.6194,-3.626,-3.607,-3.566,0.0,0.0,0.0,0.0,0.0,0.0,0.0,0.0,0.0,0.0,0.0,0.0,0.0,0.0,0.0,0.0,0.0,0.0,0.0,0.0,0.0,0.0,0.0,0.0,0.0,0.0,0.0,0.0,0.0,0.0,0.0,0.0,0.0,0.0,0.0,0.0,0.0,0.0,0.0,0.0,0.0,0.0,0.0,0.0,0.0,0.0,0.0,0.0,0.0,0.0,0.0,0.0,0.0,0.0,0.0,0.0,0.0,0.0,0.0,0.0,0.0,0.0,0.0,0.0,0.0,0.0,0.0,0.0,0.0,0.0,0.0,0.0,0.0,0.0,0.0,0.0,0.0,0.0,0.0,0.0,0.0,0.0,0.0,0.0,0.0,0.0,0.0,0.0,0.0,0.0,0.0,0.0,0.0,0.0,0.0,0.0,0.0,0.0,0.0,0.0,0.0,0.0,-3.7811,-3.7054,-3.6481,-3.6562,-3.6562,-3.6544,-3.6507,-3.6578,-3.6408,-3.5894,0.0,0.0,0.0,0.0,0.0,0.0,0.0,0.0,0.0,0.0,0.0,0.0,0.0,0.0,0.0,0.0,0.0,0.0,0.0,0.0,0.0,0.0,0.0,0.0,0.0,0.0,0.0,0.0,0.0,0.0,0.0,0.0,0.0,0.0,0.0,0.0,0.0,0.0,0.0,0.0,0.0,0.0,0.0,0.0,0.0,0.0,0.0,0.0,0.0,0.0,0.0,0.0,0.0,0.0,0.0,0.0,0.0,0.0,0.0,0.0,0.0,0.0,0.0,0.0,0.0,0.0,0.0,0.0,0.0,0.0,0.0,0.0,0.0,0.0,0.0,0.0,0.0,0.0,0.0,0.0,0.0,0.0,0.0,0.0,0.0,0.0,0.0,0.0,0.0,0.0,0.0,0.0,0.0,0.0,0.0,0.0,0.0,0.0,0.0,0.0,0.0,0.0,-3.7698,-3.6723,-3.6176,-3.6526,-3.6554,-3.6421,-3.6066,-3.6225,-3.617,-3.5872,0.0,0.0,0.0,0.0,0.0,0.0,0.0,0.0,0.0,0.0,0.0,0.0,0.0,0.0,0.0,0.0,0.0,0.0,0.0,0.0,0.0,0.0,0.0,0.0,0.0,0.0,0.0,0.0,0.0,0.0,0.0,0.0,0.0,0.0,0.0,0.0,0.0,0.0,0.0,0.0,0.0,0.0,0.0,0.0,0.0,0.0,0.0,0.0,0.0,0.0,0.0,0.0,0.0,0.0,0.0,0.0,0.0,0.0,0.0,0.0,-2.4239,0.0,0.0,0.0,0.0,0.0,0.0,0.0,0.0,0.0,0.0,0.0,0.0,0.0,0.0,0.0,0.0,0.0,0.0,0.0,0.0,0.0,0.0,0.0,0.0,0.0,0.0,0.0,0.0,0.0,0.0,0.0,0.0,0.0,0.0,0.0,0.0,0.0,0.0,0.0,0.0,0.0,-3.794,-3.7376,-3.7024,-3.7041,-3.7041,-3.7077,-3.7076,-3.7111,-3.693,-3.6384,-3.6494,0.0,0.0,0.0,0.0,0.0,0.0,0.0,0.0,0.0,0.0,0.0,0.0,0.0,0.0,0.0,0.0,0.0,0.0,0.0,0.0,0.0,0.0,0.0,0.0,0.0,0.0,0.0,0.0,0.0,0.0,0.0,0.0,0.0,0.0,0.0,0.0,0.0,0.0,0.0,0.0,0.0,0.0,0.0,0.0,0.0,0.0,0.0,0.0,0.0,0.0,0.0,0.0,0.0,0.0,0.0,0.0,0.0,0.0,0.0,0.0,-2.4092,0.0,0.0,0.0,0.0,0.0,0.0,0.0,0.0,0.0,0.0,0.0,0.0,0.0,0.0,0.0,0.0,0.0,0.0,0.0,0.0,0.0,0.0,0.0,0.0,0.0,0.0,0.0,0.0,0.0,0.0,0.0,0.0,0.0,0.0,0.0,0.0,0.0,0.0,0.0,0.0,-3.7631,-3.723,-3.702,-3.7173,-3.719,-3.7135,-3.7041,-3.7173,-3.7051,-3.6531,-3.6718,0.0,0.0,0.0,0.0,0.0,0.0,0.0,0.0,0.0,0.0,0.0,0.0,0.0,0.0,0.0,0.0,0.0,0.0,0.0,0.0,0.0,0.0,0.0,0.0,0.0,0.0,0.0,0.0,0.0,0.0,0.0,0.0,0.0,0.0,0.0,0.0,0.0,0.0,0.0,0.0,0.0,0.0,0.0,0.0,0.0,0.0,0.0,0.0,0.0,0.0,0.0,0.0,0.0,0.0,-2.0921,-2.106,-2.16,-2.1874,-2.1874,-2.2309,-2.2896,-2.3458,0.0,0.0,0.0,0.0,0.0,0.0,0.0,0.0,0.0,0.0,0.0,0.0,0.0,0.0,0.0,0.0,0.0,0.0,0.0,0.0,0.0,0.0,0.0,0.0,0.0,-3.1411,-3.1542,0.0,0.0,0.0,0.0,0.0,0.0,0.0,0.0,0.0,0.0,0.0,0.0,-3.7058,-3.6684,-3.6563,-3.6865,-3.6904,-3.6803,-3.6516,-3.6736,-3.6794,-3.6461,-3.6731,-3.6611,0.0,0.0,0.0,0.0,0.0,0.0,0.0,0.0,0.0,0.0,0.0,0.0,0.0,0.0,0.0,0.0,0.0,0.0,0.0,0.0,0.0,0.0,0.0,0.0,0.0,0.0,0.0,0.0,0.0,0.0,0.0,0.0,-0.8993,-0.9739,0.0,0.0,0.0,0.0,0.0,0.0,0.0,0.0,0.0,0.0,0.0,0.0,0.0,0.0,-1.8576,-1.8576,-1.889,-1.9607,-2.0322,-2.0655,-2.0666,-2.1411,-2.1761,-2.1761,-2.1824,0.0,-2.298,-2.3088,0.0,0.0,0.0,0.0,0.0,0.0,0.0,0.0,0.0,0.0,0.0,0.0,0.0,0.0,0.0,0.0,0.0,0.0,0.0,0.0,0.0,0.0,-3.0935,-3.0975,-3.0975,-3.0975,0.0,-3.1545,-3.1986,-3.2056,0.0,0.0,0.0,0.0,0.0,0.0,0.0,0.0,-3.6498,-3.6054,-3.5739,-3.5827,-3.581,-3.5827,-3.5888,-3.6062,-3.6191,-3.6268,-3.636,-3.6433,-3.6586,-3.6713,0.0,0.0,0.0,0.0,0.0,0.0,0.0,0.0,0.0,0.0,0.0,0.0,0.0,0.0,0.0,0.0,0.0,0.0,0.0,0.0,0.0,0.0,0.0,0.0,0.0,0.0,0.0,0.0,0.0,-0.7629,-0.7859,-0.8537,-0.9291,-1.0045,0.0,0.0,0.0,0.0,0.0,0.0,0.0,0.0,0.0,-1.7314,-1.7314,-1.752,-1.792,-1.7842,-1.7969,-1.8375,-1.9354,-2.0085,-2.0412,-2.0812,-2.1115,-2.1376,-2.1081,-2.1198,-2.1542,-2.2199,-2.2871,-2.3577,0.0,0.0,0.0,0.0,0.0,-2.6082,-2.663,0.0,0.0,0.0,0.0,0.0,0.0,0.0,0.0,0.0,0.0,0.0,0.0,0.0,0.0,-3.0692,-3.0733,-3.079,-3.079,-3.1455,-3.2003,0.0,-3.3253,-3.4318,-3.4524,0.0,0.0,0.0,0.0,0.0,-3.5915,-3.5711,-3.5577,-3.5566,-3.5594,-3.5622,-3.5667,-3.5817,-3.5905,-3.5949,-3.6062,-3.6233,-3.6395,-3.652,-3.6708,0.0,0.0,0.0,0.0,0.0,0.0,0.0,0.0,0.0,0.0,0.0,0.0,0.0,0.0,0.0,0.0,0.0,0.0,0.0,0.0,0.0,0.0,0.0,0.0,0.0,0.0,0.0,0.0,-0.6791,-0.7015,-0.7625,-0.8389,-0.9221,0.0,0.0,0.0,0.0,0.0,0.0,-1.3947,-1.4816,-1.5754,-1.6742,-1.695,-1.7222,-1.7483,-1.7334,-1.7381,-1.7652,-1.8793,-1.963,-2.0366,-2.0564,-2.1008,-2.1476,-2.1173,-2.0938,-2.0815,-2.1533,-2.2161,-2.2689,-2.2907,-2.3458,-2.4105,-2.4894,-2.5231,-2.5453,-2.619,-2.6539,-2.6674,-2.6779,0.0,-2.7078,-2.7078,0.0,0.0,0.0,0.0,-2.9377,-2.9617,-3.0011,-3.0384,-3.0426,-3.0485,-3.0568,-3.0609,-3.1424,-3.2168,0.0,-3.3338,-3.4435,-3.4408,0.0,0.0,0.0,0.0,-3.5888,-3.5475,-3.5503,-3.5503,-3.5492,-3.5566,-3.5594,-3.5622,-3.5728,-3.5817,-3.5817,-3.5949,-3.6019,-3.6122,-3.6293,-3.6461,-3.6643,0.0,0.0,0.0,0.0,0.0,0.0,0.0,0.0,0.0,0.0,0.0,0.0,0.0,0.0,0.0,0.0,0.0,0.0,0.0,0.0,0.0,0.0,0.0,0.0,0.0,0.0,0.0,0.0,0.0,-0.6637,-0.7253,0.0,0.0,0.0,0.0,-1.1632,-1.1781,-1.2144,-1.2938,-1.3673,-1.4537,-1.5534,-1.6245,-1.6933,-1.7458,-1.7468,-1.7669,-1.8064,-1.8845,-1.9623,-2.0419,-2.1124,-2.184,-2.2639,-2.2616,-2.2329,-2.1847,-2.1771,-2.1812,-2.1987,-2.2689,-2.3027,-2.3327,-2.4711,-2.5175,-2.53,-2.6042,-2.634,-2.634,-2.634,-2.6568,-2.6832,-2.6832,-2.7026,0.0,0.0,-2.7947,-2.824,-2.918,-2.9451,-2.9601,-3.0087,-3.0231,-3.0274,-3.0375,-3.1593,-3.2519,0.0,-3.3198,-3.422,-3.422,0.0,-3.5337,-3.5337,-3.5337,-3.5337,-3.5291,-3.5291,-3.5337,-3.5492,-3.5492,-3.552,-3.5577,-3.5728,-3.5817,-3.5817,-3.5949,-3.6019,-3.6019,-3.6019,-3.6191,-3.6502,-3.6544,0.0,0.0,0.0,0.0,0.0,0.0,0.0,0.0,0.0,0.0,0.0,0.0,0.0,0.0,0.0,0.0,0.0,0.0,0.0,0.0,0.0,0.0,0.0,0.0,0.0,0.0,0.0,0.0,-0.6412,-0.748,0.0,-0.8851,-1.0132,-1.1037,-1.1335,-1.1558,-1.1996,-1.2645,-1.3793,-1.4862,-1.588,-1.6863,-1.7524,-1.7899,-1.7899,-1.7981,-1.8119,-1.8829,-1.9541,-2.0072,-2.0596,-2.1137,-2.17,-2.1901,-2.1865,-2.1766,-2.2147,-2.2015,-2.1588,-2.1975,-2.2223,-2.2457,-2.3386,-2.4021,-2.454,-2.53,-2.5825,-2.6179,-2.6286,-2.6394,-2.65,-2.6592,-2.6683,-2.6841,-2.7203,-2.753,-2.7932,-2.8764,-2.9529,-3.0119,-3.0201,-3.0549,-3.0762,-3.0373,-3.1479,-3.2524,-3.2348,-3.3644,-3.4768,-3.4768,-3.4985,-3.5198,-3.5291,-3.5291,-3.5245,-3.5198,-3.5245,-3.5291,-3.5245,-3.5291,-3.5446,-3.552,-3.5566,-3.5611,-3.5667,-3.5711,-3.58,-3.5861,-3.5861,-3.5993,-3.6293,-3.631,-3.6461,0.0,0.0,0.0,0.0,0.0,0.0,0.0,0.0,0.0,0.0,0.0,0.0,0.0,0.0,0.0,0.0,0.0,0.0,0.0,0.0,0.0,0.0,0.0,0.0,0.0,0.0,-0.5867,-0.6103,-0.7096,-0.8008,-0.8542,-0.975,-1.0697,-1.1093,-1.1401,-1.1815,-1.2352,-1.3445,-1.4539,-1.5583,-1.6597,-1.749,-1.8094,-1.8179,-1.8243,-1.8379,-1.8958,-1.9533,-2.0088,-2.0316,-2.0947,-2.1829,-2.2027,-2.2154,-2.2221,-2.2719,-2.25,-2.1835,-2.1888,-2.1945,-2.2163,-2.269,-2.3327,-2.4092,-2.5077,-2.5701,-2.6056,-2.6111,-2.6233,-2.6261,-2.6569,-2.6734,-2.6953,-2.7345,-2.7762,-2.8173,-2.8767,-2.9537,-3.021,-3.0454,-3.0865,-3.1183,-3.0952,-3.186,-3.2725,-3.2771,-3.4008,-3.5041,-3.5041,-3.5041,-3.5041,-3.5152,-3.5152,-3.5135,-3.5041,-3.5088,-3.5152,-3.5088,-3.5198,-3.5291,-3.5492,-3.5492,-3.552,-3.5577,-3.5622,-3.5622,-3.5728,-3.5773,-3.6024,-3.65,-3.6603,-3.6654,-3.6702,0.0,0.0,0.0,0.0,0.0,0.0,0.0,0.0,0.0,0.0,0.0,0.0,0.0,0.0,0.0,0.0,0.0,0.0,0.0,0.0,0.0,0.0,0.0,-0.5243,-0.5479,-0.5637,-0.587,-0.5948,-0.656,-0.8246,-0.8637,-0.9423,-1.1057,-1.1391,-1.1655,-1.1908,-1.2705,-1.3646,-1.4717,-1.5528,-1.6646,-1.8106,-1.8279,-1.8632,-1.9002,-1.9222,-1.9687,-2.0459,-2.0469,-2.1385,-2.2927,-2.3001,-2.3178,-2.3395,-2.3395,-2.3178,-2.2741,-2.2356,-2.2278,-2.2456,-2.28,-2.3318,-2.4086,-2.5425,-2.595,-2.595,-2.595,-2.6073,-2.6281,-2.6834,-2.7242,-2.7662,-2.821,-2.8553,-2.8834,-2.9258,-2.9421,-2.9704,-3.0795,-3.1061,-3.129,-3.1996,-3.2689,-3.3209,-3.3352,-3.4197,-3.4899,-3.4899,-3.4899,-3.4899,-3.4899,-3.4899,0.0,-3.4899,-3.4899,-3.4947,-3.5088,-3.5088,-3.5198,-3.5492,-3.5492,-3.552,-3.5577,-3.5622,-3.5622,-3.5622,-3.5728,-3.6202,-3.7069,-3.7308,-3.7222,-3.6737,0.0,0.0,0.0,0.0,0.0,0.0,0.0,0.0,0.0,0.0,0.0,0.0,0.0,0.0,0.0,0.0,0.0,0.0,0.0,0.0,0.0,0.0,-0.5093,-0.5243,-0.5321,-0.5511,-0.5762,-0.6321,-0.7153,-0.8399,-0.9138,-1.0046,-1.1414,-1.1579,-1.1688,-1.192,-1.3527,-1.4678,-1.5155,-1.6842,-1.8013,-1.8532,-1.8611,-1.8665,-1.8772,-1.8851,-1.9002,-1.924,-2.0226,-2.1145,-2.1907,-2.2979,-2.3672,-2.3994,-2.3994,-2.3902,-2.3695,-2.2891,-2.2669,-2.2768,-2.3024,-2.4039,-2.5363,-2.6221,-2.6823,-2.7256,-2.7256,-2.7314,-2.7399,-2.764,-2.7854,-2.804,-2.834,-2.8553,-2.8834,-2.9258,-2.9819,-3.0223,-3.0428,-3.0861,-3.1249,-3.1369,-3.2061,-3.2755,-3.3161,-3.4005,-3.4643,-3.4739,-3.4739,-3.4804,-3.4899,-3.4899,0.0,-3.4899,-3.4899,-3.4899,-3.4947,-3.5041,-3.5152,-3.5337,-3.5446,-3.552,-3.5577,-3.5622,-3.5622,-3.5622,-3.5728,-3.6007,-3.6431,-3.6543,-3.6843,0.0,0.0,0.0,0.0,0.0,0.0,0.0,0.0,0.0,0.0,0.0,0.0,0.0,0.0,0.0,0.0,0.0,0.0,0.0,0.0,0.0,0.0,-0.4902,-0.5012,-0.5086,-0.5241,-0.5365,-0.574,-0.6478,-0.7404,-0.8401,-0.9308,-1.0329,-1.1426,-1.1677,-1.1887,-1.2081,-1.3365,-1.444,-1.5346,-1.6514,-1.7538,-1.8371,-1.8531,-1.8612,-1.8612,-1.8692,-1.87,-1.87,-1.9548,-2.0382,0.0,-2.2059,-2.2979,-2.397,-2.397,-2.4043,0.0,0.0,0.0,0.0,0.0,-2.4486,-2.5759,-2.6465,-2.7157,-2.7776,-2.7776,-2.7776,-2.7877,-2.8203,-2.8377,-2.8582,-2.8911,-2.9173,-2.945,-2.9708,-3.0144,-3.0565,-3.0719,-3.1055,-3.1402,-3.1607,-3.2226,-3.2819,-3.3123,0.0,0.0,-3.4497,-3.4594,-3.4643,-3.4804,-3.4804,-3.4851,-3.4899,-3.4899,-3.4899,-3.4899,-3.4947,-3.5088,-3.5291,-3.5383,0.0,0.0,0.0,-3.5622,-3.5667,-3.6106,0.0,0.0,0.0,-3.6853,0.0,0.0,0.0,0.0,-3.995,-4.1099,0.0,0.0,0.0,0.0,0.0,0.0,0.0,0.0,0.0,0.0,0.0,0.0,0.0,0.0,0.0,0.0,-0.4883,-0.496,-0.4986,-0.5149,-0.535,-0.5633,-0.6476,-0.739,-0.823,-0.9306,-1.0378,-1.1255,-1.1695,-1.2128,-1.2351,0.0,0.0,0.0,0.0,-1.642,-1.8087,-1.8403,-1.8484,-1.8484,-1.8619,-1.8682,-1.8682,-1.8718,-1.946,-2.076,-2.0837,-2.1907,-2.3593,-2.3593,-2.3824,-2.4154,-2.3707,-2.3523,-2.3536,-2.3994,-2.4726,0.0,0.0,0.0,0.0,-2.7987,-2.7987,-2.8085,-2.8633,-2.8894,-2.91,-2.9652,-3.0007,-3.0266,-3.0326,-3.0447,-3.0687,-3.1263,-3.1422,-3.1537,-3.216,-3.268,-3.3039,-3.3198,-3.3646,-3.4034,-3.425,-3.4399,-3.4546,-3.4691,-3.4691,-3.4756,-3.4899,-3.4899,-3.4899,-3.4899,0.0,0.0,-3.5291,-3.5291,-3.5412,-3.5577,-3.5622,-3.5667,-3.5773,-3.6553,-3.672,-3.6182,-3.6965,-3.7042,-3.6439,-3.7343,-3.817,-3.9044,-4.1576,-4.2631,0.0,0.0,0.0,0.0,0.0,0.0,0.0,0.0,0.0,0.0,0.0,0.0,0.0,0.0,0.0,-0.5058,-0.5092,-0.5175,-0.5368,-0.5395,-0.5488,-0.5513,-0.6449,-0.7432,-0.834,-0.9302,-1.0358,-1.1536,-1.1712,-1.1986,-1.2363,-1.333,0.0,-1.576,-1.6713,-1.7822,-1.8956,-1.9041,-1.9041,-1.9032,0.0,0.0,-1.8642,-1.8825,-1.9529,-2.0585,-2.1145,-2.222,-2.3593,-2.3593,-2.3824,-2.4189,-2.4097,-2.4123,-2.4339,-2.4365,-2.5069,-2.6063,-2.6854,-2.764,-2.8433,-2.9052,-2.9251,-2.9265,-2.9392,-2.9529,0.0,-2.978,-2.996,-3.0158,-3.0266,-3.0312,-3.0447,-3.0687,-3.0747,-3.0925,-3.1537,-3.1766,-3.213,-3.3024,-3.3303,-3.3527,-3.4034,-3.425,-3.4399,-3.4643,-3.4691,-3.4756,-3.4899,-3.4899,-3.4899,-3.4899,-3.4994,-3.5152,-3.5291,-3.54,-3.5475,-3.5577,-3.5622,-3.5667,-3.5773,-3.6085,-3.6216,-3.6182,-3.6431,-3.6766,-3.7249,-3.8742,-3.9832,-4.0649,-4.1232,-4.1777,0.0,0.0,0.0,0.0,0.0,0.0,0.0,0.0,0.0,0.0,0.0,-0.4937,0.0,0.0,-0.4885,-0.4698,-0.4879,-0.5076,-0.5016,-0.5254,-0.5465,-0.5553,-0.6421,-0.7403,-0.8448,-0.9331,-1.043,-1.1603,-1.1789,-1.2014,-1.2392,-1.3135,-1.4343,-1.5922,-1.66,-1.7747,-1.9179,-1.917,-1.917,-1.917,-1.8973,-1.8776,-1.8579,-1.8728,-1.9164,-1.9747,-2.007,-2.1155,-2.2606,-2.3298,-2.3824,-2.42,-2.42,-2.4273,-2.4345,-2.449,-2.5028,-2.5951,-2.6841,-2.7511,-2.8038,-2.9198,-2.9324,-2.9121,-2.9477,-2.9665,-2.9713,-2.9713,-2.9837,-2.996,-3.0007,-3.0144,-3.0219,-3.0387,-3.0447,-3.0568,-3.097,-3.1321,-3.1637,-3.2226,-3.261,-3.2911,-3.3193,-3.3543,-3.3901,-3.4431,-3.4546,-3.4643,-3.4804,-3.4851,-3.4899,-3.4899,-3.4947,-3.5041,-3.5198,-3.5383,-3.552,-3.5577,-3.5622,-3.5622,-3.5711,-3.5888,-3.6019,-3.6122,-3.6216,-3.649,-3.6887,-3.8714,-3.9917,-4.0506,-4.1507,-4.2322,0.0,0.0,0.0,0.0,0.0,0.0,0.0,0.0,-0.5018,-0.5018,-0.5018,-0.4945,-0.4807,-0.4808,-0.4804,-0.4437,-0.4667,-0.4781,-0.4624,-0.5049,-0.5379,-0.5584,-0.6453,-0.7503,-0.8504,-0.9389,-1.0446,-1.1657,-1.1942,-1.2114,-1.2403,-1.2825,-1.3847,-1.5631,-1.621,-1.7224,-1.9028,-1.9297,-1.9393,-1.9393,-1.9316,-1.9119,-1.8811,-1.8656,-1.8745,-1.9101,-1.9338,-2.0235,-2.1614,-2.2916,-2.3751,-2.4043,-2.4043,-2.4127,-2.42,-2.4345,-2.4814,-2.5475,-2.6488,-2.6909,-2.7178,-2.8803,-2.8931,-2.857,-2.9401,-2.9602,-2.9602,-2.9602,-2.9651,-2.9761,-2.9808,-2.9898,-3.0097,-3.0205,-3.0266,-3.0326,-3.0507,-3.0911,-3.1306,-3.148,-3.1879,-3.2272,-3.2398,-3.2734,-3.3319,-3.4018,-3.4333,-3.4546,-3.4691,-3.4804,-3.4899,-3.4899,-3.4899,-3.4947,-3.5152,-3.5383,-3.5566,-3.5577,-3.5622,-3.5622,-3.5622,-3.5844,-3.5975,-3.6019,-3.6328,-3.6594,-3.6749,-3.8713,-3.9863,-4.0402,-4.2192,-4.3178,-1.1409,-1.1111,-1.0507,-0.9226,-0.838,-0.746,0.0,0.0,-0.5018,-0.5018,-0.5018,-0.5048,-0.5148,-0.494,-0.4854,-0.5047,-0.493,-0.4805,-0.4891,-0.5003,-0.5046,-0.5139,-0.6323,-0.7546,-0.8759,-0.9674,-1.0756,-1.1989,-1.2102,-1.2204,-1.2409,-1.2724,-1.3391,-1.4739,-1.6095,-1.735,-1.847,-1.9595,-2.0163,-2.0163,-1.9838,-1.9658,-1.959,-1.8896,-1.8885,-1.9471,-2.0693,-2.1308,-2.1614,-2.2617,-2.3298,-2.3677,-2.3677,-2.3897,-2.42,-2.42,-2.4406,-2.4694,-2.5475,-2.5812,-2.6227,-2.7868,-2.8417,-2.8481,-2.9338,-2.9602,-2.9602,-2.9602,-2.9602,-2.9665,-2.9761,-2.9822,-2.9884,-3.0111,-3.0111,-3.0158,-3.0326,-3.0372,-3.0673,-3.1364,-3.1537,-3.1766,-3.2342,-3.2453,-3.2695,-3.3407,-3.4052,-3.4546,-3.4691,-3.4804,-3.4899,-3.4899,-3.4899,-3.4994,-3.5245,-3.5458,-3.5577,-3.5622,-3.5622,-3.5622,-3.5622,-3.5711,-3.5905,-3.6019,-3.6757,-3.7575,-3.8336,-4.0058,-4.1248,-4.1989,-4.2959,-4.3463,-1.0962,-1.0663,-1.0137,0.0,-0.7995,-0.7234,-0.586,-0.5246,-0.5018,-0.5018,-0.4915,-0.4893,-0.4776,-0.4809,-0.4758,0.0,-0.4651,-0.47,-0.465,-0.4746,-0.4874,-0.4885,-0.5494,-0.6684,-0.857,-0.9601,-1.0702,-1.2149,-1.2264,-1.2417,-1.2647,-1.2846,-1.3463,-1.4571,-1.5341,-1.6619,-1.8395,-1.8964,-1.953,-2.0292,-2.0138,-1.9949,-1.9735,-1.941,-1.9177,-1.905,-1.9706,-2.0372,-2.0971,-2.2059,-2.2916,-2.3593,-2.3824,-2.4043,-2.42,-2.42,-2.4261,-2.4406,-2.5264,-2.5264,-2.5288,-2.6976,-2.7458,-2.7537,-2.8546,-2.9085,-2.9352,-2.954,-2.9602,-2.9602,-2.9651,-2.9713,-2.9713,-2.9898,-2.9898,-2.996,-3.0158,-3.0158,-3.0326,-3.0732,-3.0777,-3.0896,-3.1306,-3.1652,-3.1977,-3.2226,-3.3235,-3.4152,-3.4546,-3.4756,-3.4899,-3.4899,-3.4947,-3.5088,-3.5291,-3.5429,-3.5549,-3.5577,-3.5622,-3.5622,-3.5622,-3.5728,-3.5861,-3.5975,-3.686,-3.7524,-3.7939,-4.0088,-4.1274,-4.1596,-4.2869,-4.3497,-1.0438,0.0,0.0,-0.8071,-0.746,-0.685,-0.5323,-0.5018,-0.5018,-0.4937,-0.4846,-0.4761,-0.4577,-0.4629,-0.4577,-0.4374,-0.4438,-0.448,-0.43,-0.448,-0.4615,-0.4741,-0.5027,-0.6098,-0.8335,-0.9169,-1.0355,-1.2204,-1.2416,-1.2587,-1.2754,-1.2953,-1.3329,-1.4082,-1.4657,-1.5785,-1.7654,-1.8033,-1.888,-2.0102,-2.0102,-2.0056,-1.9889,-1.9787,-1.9316,-1.8654,-1.8949,-1.9473,-2.0119,-2.1125,-2.2134,-2.3065,-2.3434,-2.3813,-2.4043,-2.4127,-2.42,-2.4261,-2.4921,-2.4802,-2.4611,-2.6077,-2.6488,-2.665,-2.7947,-2.861,-2.9022,-2.9477,-2.9602,-2.9602,-2.9602,-2.9602,-2.9602,-2.9699,-2.9761,-2.9761,-2.9974,-3.0036,-3.0083,-3.0266,-3.0312,-3.0387,-3.0568,-3.097,-3.1306,-3.148,-3.2431,-3.3391,-3.4168,-3.4626,-3.4899,-3.4899,-3.5041,-3.5198,-3.5291,-3.5429,-3.5566,-3.5577,-3.5622,-3.5622,-3.5622,-3.5728,-3.5861,-3.5975,-3.686,-3.7489,-3.7784,-4.0035,-4.1203,-4.1435,-4.2868,-4.3497,0.0,0.0,-0.9069,-0.7846,-0.7003,-0.6237,-0.5246,-0.5018,-0.4937,-0.4779,-0.4704,-0.4693,-0.4661,-0.4448,-0.4431,-0.4625,-0.4478,-0.43,-0.43,-0.43,-0.4367,-0.4547,-0.5322,-0.6356,0.0,-0.8653,-0.9887,-1.1853,-1.2457,-1.2754,-1.2764,-1.2764,-1.2861,-1.2861,-1.3992,-1.5032,-1.5893,-1.7117,-1.8342,-1.9637,-1.9637,-1.982,-2.0266,-1.9906,-1.9316,-1.8671,-1.9224,-1.9336,-1.9073,-1.9678,-2.0595,-2.1614,-2.1993,-2.2745,-2.3677,-2.4055,-2.42,-2.42,-2.4261,-2.42,-2.4334,-2.5252,-2.5673,-2.6171,-2.7802,-2.839,-2.8698,-2.9401,-2.9602,-2.9602,-2.9602,-2.9602,-2.9602,-2.9602,-2.9602,-2.9665,-2.9761,-2.9808,-2.9884,-3.0251,-3.0312,-3.0387,-3.0568,-3.0642,-3.0807,-3.1422,-3.1736,-3.236,-3.3479,-3.435,-3.4899,-3.4899,-3.5152,-3.5308,-3.5291,-3.5503,-3.5577,-3.5622,-3.5622,-3.5622,-3.5622,-3.5728,-3.5861,-3.5975,-3.686,-3.773,-3.856,-4.0259,-4.1489,-4.2162,-4.3069,-4.3497,-0.9463,0.0,-0.8694,-0.777,-0.6769,-0.5928,-0.5168,-0.4779,-0.4621,-0.4701,-0.4525,-0.4357,-0.4344,-0.4296,-0.423,-0.4382,-0.4351,-0.43,-0.43,-0.43,-0.4367,-0.4551,-0.4856,0.0,0.0,0.0,0.0,-1.1385,-1.198,-1.2273,-1.2273,-1.257,-1.2764,-1.2764,-1.3238,-1.3896,-1.5032,-1.5981,-1.7117,-1.8342,-1.8819,-1.9371,-1.9812,-1.946,-1.9104,-1.8956,-1.8941,-1.8947,-1.9002,-1.9529,-2.0138,-2.0894,-2.1745,-2.2435,-2.3043,-2.3593,-2.397,-2.42,-2.42,-2.42,-2.4261,-2.4527,-2.4933,-2.5417,-2.6214,-2.7165,-2.8065,-2.861,-2.9149,-2.9602,-2.9602,-2.9602,-2.9602,-2.9602,-2.9602,-2.9602,-2.9651,-2.9651,-2.9713,-2.9946,-3.0083,-3.0219,-3.0387,-3.0507,-3.0851,-3.1622,-3.2485,-3.3235,-3.385,-3.448,-3.4899,-3.4899,-3.5152,-3.5291,-3.5291,-3.5503,-3.5622,-3.5622,-3.5622,-3.5622,-3.5622,-3.5622,-3.5756,-3.5975,-3.6771,-3.7659,-3.8594,-3.9982,-4.1162,-4.2198,-4.2826,-4.3232,-0.8623,-0.8318,-0.7774,-0.7003,-0.6079,-0.5231,-0.4854,-0.4621,-0.4384,-0.4467,-0.4288,-0.4185,-0.4138,-0.408,-0.4095,-0.4163,-0.4218,-0.4265,-0.4295,-0.43,-0.4367,-0.4551,-0.4573,-0.4932,0.0,0.0,0.0,-1.04,-1.1287,-1.1785,-1.198,-1.237,-1.2565,-1.2764,-1.2764,-1.3335,-1.437,-1.4848,-1.5893,-1.7404,-1.8071,-1.8727,-1.9271,-1.9043,-1.8943,-1.8887,-1.8642,-1.8576,-1.8683,-1.8895,-1.9362,-2.0051,-2.1125,-2.1821,-2.236,-2.3287,-2.3751,-2.397,-2.4116,-2.42,-2.42,-2.42,-2.4467,-2.4874,-2.5392,-2.6283,-2.7271,-2.7736,-2.8532,-2.9198,-2.9198,-2.9401,-2.9602,-2.9602,-2.9602,-2.9602,-2.9602,-2.9602,-2.9665,-2.9747,-2.996,-3.0172,-3.0266,-3.0447,-3.0851,-3.1522,-3.2431,-3.3235,-3.3984,-3.4399,-3.4691,-3.4899,-3.5152,-3.5291,-3.5291,-3.5503,-3.5622,-3.5622,-3.5622,-3.5622,-3.5622,-3.5667,-3.5756,-3.5949,-3.6515,-3.722,-3.8136,-3.9407,-4.063,-4.1846,-4.2546,-4.3123,-0.7472,-0.7084,-0.6311,-0.5777,-0.5004,-0.4384,-0.4384,-0.4384,-0.4307,-0.4077,-0.4079,-0.4027,0.0,0.0,-0.3957,-0.413,-0.4167,-0.4202,-0.4281,-0.4295,-0.4365,0.0,0.0,0.0,0.0,0.0,0.0,-0.9019,0.0,-1.1389,-1.1883,-1.1975,-1.2175,-1.2759,-1.2764,-1.3141,-1.3806,-1.3908,-1.4854,-1.6835,-1.7404,-1.7971,-1.8727,-1.8719,-1.8603,-1.837,-1.8345,-1.8196,-1.7951,-1.7951,-1.8353,-1.9073,-2.0051,-2.0827,-2.1614,-2.299,-2.3519,-2.3593,-2.4043,-2.42,-2.42,-2.42,-2.4345,-2.4622,-2.5264,-2.5742,-2.6252,-2.6909,-2.7776,-2.8427,-2.8427,-2.898,-2.954,-2.954,-2.954,-2.9602,-2.9602,-2.9602,-2.9665,-2.9761,-2.9974,-3.0172,-3.0266,-3.0447,-3.0702,-3.1073,-3.1537,-3.2391,-3.3866,-3.4101,-3.43,-3.4851,-3.5152,-3.5291,-3.5291,-3.5503,-3.5622,-3.5622,-3.5622,-3.5622,-3.5622,-3.5728,-3.5817,-3.5817,-3.6036,-3.6586,-3.7325,-3.8674,-3.9946,-4.1153,-4.235,-4.3123,-0.6703,-0.6311,-0.5381,-0.5541,-0.4851,-0.4233,-0.4384,-0.4151,-0.3919,-0.3604,-0.3763,-0.3692,0.0,0.0,0.0,-0.3546,-0.3912,0.0,-0.4202,-0.3995,0.0,-0.3903,0.0,-0.3654,-0.443,-0.5191,0.0,0.0,-0.9517,-1.0703,-1.0801,-1.1194,-1.1688,-1.2175,-1.2175,-1.2467,-1.305,-1.3619,-1.4478,-1.5527,-1.6285,-1.6842,-1.7397,-1.772,-1.7924,-1.7929,-1.7997,-1.7879,-1.7554,-1.7878,-1.8121,-1.8353,-1.9063,-1.9687,-2.0294,-2.1907,-2.267,-2.3043,-2.3886,-2.42,-2.42,-2.42,-2.42,-2.4345,-2.4467,-2.5063,-2.566,-2.5869,-2.6693,-2.7498,-2.7498,-2.8168,-2.8776,-2.8776,-2.9198,-2.9602,-2.9602,-2.9602,-2.9602,-2.9651,-2.9913,-3.0172,-3.0447,-3.0568,-3.0702,-3.1073,-3.1249,-3.1823,-3.3266,-3.3815,-3.43,-3.4851,-3.5152,-3.5291,-3.5291,-3.5503,-3.5622,-3.5622,-3.5622,-3.5622,-3.5622,-3.5622,-3.5756,-3.5949,-3.6019,-3.6638,-3.7906,-3.8842,-4.005,-4.152,-4.2464,-4.3123,-0.5059,-0.4912,-0.436,-0.4288,-0.3899,-0.3495,-0.3534,-0.337,-0.3214,-0.3057,-0.3136,0.0,-0.2588,0.0,0.0,0.0,0.0,0.0,-0.3547,-0.3421,-0.3307,0.0,-0.32,0.0,-0.3621,-0.4382,-0.5229,0.0,-0.8326,-0.9817,-1.0413,-1.0708,-1.1096,-1.1585,-1.1883,-1.2273,-1.2764,-1.3238,-1.3811,-1.4573,-1.4949,-1.571,-1.6648,-1.6706,-1.7026,-1.7406,0.0,-1.739,-1.7392,-1.7635,-1.7878,-1.804,-1.8763,-1.9152,-1.9529,-2.1221,-2.2059,-2.2585,-2.3582,-2.4043,-2.42,-2.42,-2.42,-2.42,-2.42,-2.4599,-2.5075,-2.5146,-2.5906,-2.6718,-2.6799,-2.7458,-2.8117,-2.8427,-2.8839,-2.9198,-2.954,-2.9602,-2.9665,-2.9803,-2.9988,-3.0233,-3.0522,-3.0568,-3.0702,-3.0955,-3.1014,-3.1509,-3.2555,-3.3319,-3.3917,-3.4497,-3.4994,-3.5291,-3.5291,-3.5503,-3.5622,-3.5622,-3.5622,-3.5622,-3.5622,-3.5622,-3.5711,-3.5905,-3.5975,-3.644,-3.7293,-3.8643,-3.9833,-4.0867,-4.2246,-4.3123,-0.3219,-0.3313,-0.3068,-0.2597,-0.2513,-0.2495,-0.2443,-0.2431,-0.2431,-0.2431,0.0,-0.243,-0.2266,-0.2302,-0.2377,-0.2399,0.0,-0.2567,-0.273,-0.2767,-0.2728,-0.2831,-0.2808,-0.2869,-0.3024,-0.3674,-0.4416,-0.5029,-0.7027,-0.8726,-1.0015,-1.0216,-1.0511,-1.1096,-1.159,-1.2175,-1.2667,-1.2667,-1.3044,-1.3715,-1.3872,-1.4613,-1.6021,-1.5681,-1.6027,-1.6828,0.0,0.0,-1.731,-1.7392,-1.7635,-1.804,-1.8683,-1.8843,-1.9073,-2.0692,-2.1451,-2.1907,-2.2905,-2.3582,-2.4043,-2.4127,-2.42,-2.42,-2.42,-2.4345,-2.449,-2.4646,-2.5253,-2.5918,-2.6139,-2.6744,-2.7471,-2.8117,-2.8363,-2.8698,-2.9324,-2.954,-2.9665,-2.9988,-3.0111,-3.0172,-3.0507,-3.0568,-3.0642,-3.0821,-3.1014,-3.1351,-3.1921,-3.2718,-3.3423,-3.405,-3.4804,-3.5291,-3.5291,-3.5503,-3.5622,-3.5622,-3.5622,-3.5622,-3.5622,-3.5622,-3.5667,-3.5817,-3.5932,-3.6105,-3.6293,-3.8307,-3.9522,-4.0032,-4.1971,-4.3123,-0.2336,-0.2161,-0.1746,-0.1941,-0.2002,-0.205,-0.2198,-0.2275,0.0,0.0,-0.2275,-0.2105,-0.0994,-0.1365,-0.1743,-0.1375,0.0,0.0,0.0,0.0,-0.2265,0.0,0.0,0.0,0.0,0.0,0.0,0.0,0.0,0.0,-0.863,-0.9327,-1.0019,-1.0511,-1.11,-1.1585,-1.2175,-1.2175,-1.2467,-1.305,-1.3417,-1.406,-1.4868,-1.4986,-1.5423,-1.6066,0.0,0.0,-1.682,-1.7229,-1.7635,-1.8031,-1.8121,-1.8193,-1.8353,-1.952,-1.9982,-2.0216,-2.1191,-2.2178,-2.3117,-2.3959,-2.42,-2.42,-2.42,-2.4189,-2.4273,-2.4273,-2.455,-2.4838,-2.5064,-2.5734,-2.6389,-2.6676,-2.7657,-2.8556,-2.8634,-2.9184,-2.9665,-2.9822,-2.9974,-3.0172,-3.0326,-3.0507,-3.0702,-3.1014,-3.1087,-3.1249,-3.1582,-3.2516,-3.3423,-3.405,-3.4804,-3.5291,-3.5291,-3.5503,-3.5622,-3.5622,-3.5622,-3.5622,-3.5622,-3.5622,-3.5711,-3.5975,-3.5975,-3.6259,-3.6799,-3.8456,-3.9682,-4.0438,-4.214,-4.3123,-0.0888,-0.1048,-0.0883,-0.1054,-0.1209,-0.1275,-0.1338,0.0,0.0,0.0,-0.1386,-0.1223,-0.0149,0.0,0.0,0.0,0.0,0.0,0.0,0.0,0.0,0.0,0.0,0.0,0.0,0.0,0.0,0.0,0.0,0.0,-0.7915,-0.9023,-0.9826,-1.0408,-1.0506,-1.0932,-1.1414,-1.1402,-1.1447,-1.1731,-1.1994,-1.2581,-1.3475,-1.3799,-1.4409,-1.5361,-1.5646,0.0,-1.6417,-1.6656,-1.7066,-1.7716,-1.7716,-1.7797,-1.8112,-1.8984,-1.945,-1.9668,-2.0498,-2.1344,-2.2157,-2.2831,-2.3525,-2.42,-2.42,-2.42,-2.42,-2.4345,-2.4418,-2.4574,-2.4849,-2.5253,-2.5721,-2.6277,-2.7458,-2.8634,-2.898,-2.9324,-2.9665,-2.9747,-2.996,-3.0172,-3.0266,-3.0447,-3.0702,-3.0895,-3.1014,-3.119,-3.1351,-3.2201,-3.3002,-3.3578,-3.4301,-3.4866,-3.5291,-3.5475,-3.5549,-3.5577,-3.5622,-3.5622,-3.5622,-3.5622,-3.5711,-3.5975,-3.6019,-3.6284,-3.69,-3.8744,-3.9899,-4.0545,-4.2359,-4.3304,0.0968,0.0567,0.0323,0.0325,0.0243,0.008,0.0157,0.0078,0.0,0.0,-0.0075,0.0074,0.0726,0.0,0.0,0.0,0.0,0.0,0.0,0.0,0.0,0.0,0.0,0.0,0.0,0.0,0.0,0.0,0.0,0.0,-0.7318,-0.8619,-0.951,-0.9994,-0.9844,-1.0048,-1.0716,-1.0562,-1.0579,-1.0672,-1.0624,-1.1232,-1.2213,-1.2503,-1.3262,-1.4468,-1.4846,0.0,0.0,-1.6004,-1.6582,-1.7229,-1.7392,-1.7554,-1.7951,-1.8506,-1.8858,-1.9224,-1.958,-2.0158,-2.0868,-2.1104,-2.2339,-2.38,-2.3967,-2.4039,-2.4062,-2.4383,-2.4418,-2.449,-2.4909,-2.4981,-2.5182,-2.6139,-2.7191,-2.8285,-2.9032,-2.9143,-2.9226,-2.9332,-2.9576,-2.9757,-2.9863,-3.0042,-3.0279,-3.0587,-3.0793,-3.1028,-3.1321,-3.1838,-3.2437,-3.2986,-3.3767,-3.4545,-3.5291,-3.5429,-3.5566,-3.5577,-3.5622,-3.5622,-3.5622,-3.5622,-3.5711,-3.5975,-3.6019,-3.6241,-3.6799,-3.8766,-3.9976,-4.0438,-4.2412,-4.341,0.3139,0.2948,0.2758,0.2817,0.2788,0.2741,0.25,0.0,0.0,0.1809,0.1556,0.1521,0.2117,0.0,0.0,0.0,0.0,0.1787,0.0,0.0,0.0,0.0,0.0,0.0,0.0,0.0,0.0,0.0,0.0,0.0,0.0,-0.8005,-0.8573,-0.8847,-0.8832,-0.9202,-0.9957,-0.9939,-1.0209,-1.0667,-1.0467,-1.0726,-1.1426,-1.1287,-1.178,-1.2966,0.0,0.0,0.0,-1.5831,-1.6327,-1.6812,-1.7229,-1.7392,-1.7432,-1.7567,-1.7674,-1.7622,-1.7362,-1.7902,-1.8777,-1.8941,-2.0524,-2.2529,-2.3288,-2.3441,-2.3615,-2.4062,-2.42,-2.4273,-2.449,-2.4562,-2.4838,-2.5849,-2.6402,-2.6806,-2.7601,-2.7808,-2.7831,-2.7984,-2.8223,-2.8383,-2.8368,-2.867,-2.9157,-3.0013,-3.0159,-3.0495,-3.1392,-3.1524,-3.1853,-3.2586,-3.3716,-3.469,-3.5446,-3.5549,-3.5577,-3.5622,-3.5622,-3.5622,-3.5622,-3.5622,-3.5711,-3.5975,-3.6019,-3.6148,-3.6385,-3.8373,-3.9562,-3.9994,-4.2009,-4.3142,0.4418,0.4162,0.3986,0.3789,0.3614,0.3433,0.3202,0.0,0.2628,0.2588,0.2384,0.2463,0.3086,0.0,0.0,0.0,0.0,0.0,0.0,0.0,0.0,0.0,0.0,0.0,0.0,0.0,0.0,0.0,0.0,0.0,0.0,-0.6461,-0.7868,-0.8524,-0.8521,-0.8746,-0.9025,-0.91,-0.9225,-0.9405,-0.9322,-0.9544,-1.0152,-1.041,-1.0971,-1.1746,0.0,0.0,0.0,-1.4643,-1.5318,-1.5786,-1.6176,-1.6581,-1.7012,-1.6865,-1.6894,-1.7115,-1.697,-1.7287,-1.7748,-1.7998,-1.9027,-2.0438,-2.1886,-2.2626,-2.3018,-2.3224,-2.3282,-2.3352,-2.3572,-2.4015,-2.4718,-2.5995,-2.6095,-2.6117,-2.6867,-2.6791,-2.6733,-2.7111,-2.7426,-2.7778,-2.814,-2.8497,-2.8866,-2.9395,-2.9481,-2.9829,-3.078,-3.1192,-3.1866,-3.3098,-3.3547,-3.4136,-3.4947,-3.5337,-3.5549,-3.5577,-3.5622,-3.5622,-3.5728,-3.5728,-3.5861,-3.6122,-3.6122,-3.6301,-3.6678,-3.8664,-3.986,-4.0311,-4.2305,-4.3339,0.6066,0.5684,0.5452,0.5068,0.491,0.4675,0.0,0.0,0.3898,0.3832,0.3667,0.372,0.4138,0.0,0.0,0.0,0.0,0.3734,0.0,0.0,0.0,0.0,0.0,0.0,0.0,0.0,0.0,0.0,0.0,0.0,0.0,-0.4593,-0.6337,-0.7639,-0.7807,-0.7934,-0.8301,-0.8448,-0.8476,-0.8476,-0.8564,-0.874,-0.9087,-0.9593,-1.0024,-1.0554,0.0,0.0,0.0,-1.3323,-1.4027,-1.4508,-1.5028,-1.5653,-1.6312,-1.6185,-1.6363,-1.658,-1.6553,-1.6659,-1.682,-1.7099,-1.7708,-1.8536,-1.9952,-2.1279,-2.2343,-2.2503,-2.2617,-2.2753,-2.2889,-2.3429,-2.4193,-2.5227,-2.5234,-2.5165,-2.5704,-2.5547,-2.5507,-2.6121,-2.6521,-2.6942,-2.7527,-2.7948,-2.8338,-2.8788,-2.8872,-2.9218,-3.0093,-3.0828,-3.1658,-3.2746,-3.3264,-3.3903,-3.4866,-3.5321,-3.5566,-3.5577,-3.5622,-3.5667,-3.5773,-3.5817,-3.5905,-3.6165,-3.6225,-3.636,-3.6719,-3.8883,-4.0034,-4.0384,-4.2501,-4.3497,0.8399,0.794,0.7407,0.718,0.718,0.7103,0.0,0.0,0.6325,0.6105,0.5765,0.5519,0.5297,0.5297,0.0,0.0,0.0,0.0,0.0,0.0,0.0,0.0,0.0,0.0,0.0,0.0,0.0,0.0,0.0,0.0,0.0,-0.2418,-0.3667,-0.6071,-0.616,-0.6694,-0.7856,-0.8116,-0.8201,-0.8201,-0.8472,-0.8568,-0.8568,-0.8656,-0.8915,0.0,0.0,0.0,0.0,-1.1875,-1.2619,-1.3087,-1.3881,-1.4599,-1.5188,-1.5608,-1.5774,-1.5798,-1.58,-1.5814,-1.5885,-1.607,-1.6542,-1.7148,-1.7354,-1.9276,-2.1554,-2.207,-2.2411,-2.2685,-2.2685,-2.2889,-2.3036,-2.3226,-2.3361,-2.3616,-2.384,-2.3941,-2.4121,-2.4899,-2.5216,-2.5591,-2.6247,-2.6688,-2.729,-2.8119,-2.8329,-2.8672,-2.9505,-3.0313,-3.087,-3.101,-3.2683,-3.4284,-3.547,-3.5577,-3.5622,-3.5622,-3.5622,-3.5667,-3.5773,-3.5817,-3.5905,-3.6165,-3.6225,-3.6251,-3.6301,-3.8726,-3.992,-3.9955,-4.2377,-4.3497,1.0045,0.9593,0.914,0.8394,0.8021,0.7718,0.7407,0.0,0.6771,0.6477,0.6277,0.609,0.609,0.595,0.5878,0.0,0.0,0.0,0.0,0.0,0.0,0.0,0.0,0.0,0.0,0.0,0.0,0.0,0.0,0.0,0.0,-0.1255,-0.2326,-0.4552,-0.4912,-0.5625,-0.6691,-0.6864,-0.7309,-0.8028,-0.812,-0.8059,-0.7943,-0.8033,0.0,0.0,0.0,0.0,0.0,-1.055,-1.1474,-1.227,-1.2855,-1.371,-1.4675,-1.4642,-1.48,-1.5009,-1.4968,-1.5141,-1.5426,-1.5488,-1.6044,-1.6742,-1.6802,-1.8183,-1.9751,-2.0522,-2.1171,-2.1786,-2.2209,-2.2445,-2.2593,-2.3266,-2.3143,-2.3042,-2.3259,-2.2994,-2.3021,-2.4131,-2.454,-2.5106,-2.6111,-2.6674,-2.7114,-2.7461,-2.7647,-2.8003,-2.8816,-2.9871,-3.0791,-3.148,-3.3131,-3.4268,-3.448,-3.5178,-3.5622,-3.5622,-3.5622,-3.5711,-3.5932,-3.5949,-3.6019,-3.6276,-3.6276,-3.6409,-3.6719,-3.8294,-3.9931,-4.1575,-4.288,-4.3497,0.0,1.0932,1.049,0.9744,0.9372,0.0,0.0,0.0,0.0,0.7904,0.7512,0.7285,0.7432,0.6927,0.6489,0.0,0.0,0.0,0.0,0.0,0.0,0.0,0.0,0.0,0.0,0.0,0.0,0.0,0.0,0.0,0.0,0.0,-0.1225,-0.2533,-0.3606,-0.4678,-0.5731,-0.6207,-0.688,-0.758,-0.767,-0.7614,-0.7513,-0.7685,0.0,0.0,0.0,0.0,0.0,-0.9275,-1.01,-1.0874,-1.1637,-1.2627,-1.3577,-1.398,-1.4201,-1.4425,-1.4569,-1.4776,-1.4991,-1.4991,-1.548,-1.6114,-1.6324,-1.7423,-1.87,-1.9694,-2.0355,-2.082,-2.1624,-2.1835,-2.1981,-2.2545,-2.2445,-2.2273,-2.2488,-2.23,-2.2469,-2.3682,-2.4239,-2.4867,-2.6096,-2.6674,-2.7055,-2.7181,-2.7284,-2.7601,-2.8225,-2.9438,-3.0505,-3.1145,-3.2835,-3.3969,-3.3986,-3.5021,-3.5684,-3.5684,-3.5711,-3.5844,-3.6079,-3.6079,-3.6148,-3.6301,-3.6301,-3.6492,-3.69,-3.8272,-3.993,-4.1882,-4.2687,-4.3088,0.0,1.2044,1.1452,0.0,0.0,0.0,0.0,0.0,0.0,0.0,0.9362,0.8908,0.9296,0.8156,0.7318,0.0,0.0,0.0,0.0,0.0,0.0,0.0,0.0,0.0,0.0,0.0,0.0,0.0,0.0,0.0,0.0,0.0,-0.0337,-0.0337,-0.2222,-0.3793,-0.4915,-0.5919,-0.6612,-0.6943,-0.7199,-0.7278,-0.7349,-0.7349,0.0,0.0,0.0,0.0,0.0,-0.8128,-0.8563,-0.9074,-1.0432,-1.1323,-1.2044,-1.339,-1.3912,-1.3977,-1.4346,-1.4497,-1.4569,-1.4641,-1.4919,-1.5346,-1.5921,-1.695,-1.8162,-1.9333,-1.9727,-1.9998,-2.088,-2.1158,-2.1221,-2.14,-2.1388,-2.1463,-2.1686,-2.1812,-2.2285,-2.3505,-2.4137,-2.4867,-2.6056,-2.6674,-2.7055,-2.7181,-2.7335,-2.7488,-2.779,-2.9091,-3.0068,-3.0188,-3.2029,-3.3443,-3.3969,-3.5068,-3.5773,-3.5817,-3.5905,-3.6036,-3.6165,-3.6208,-3.6251,-3.6343,-3.6367,-3.6597,-3.6999,-3.8582,-3.9917,-4.1038,-4.1926,-4.2308,1.5296,0.0,1.2645,1.1916,1.1539,1.1156,0.0,0.0,0.0,0.0,0.0,0.989,0.9965,0.9442,0.8836,0.0,0.0,0.0,0.0,0.0,0.0,0.0,0.0,0.0,0.0,0.0,0.0,0.0,0.0,0.0,0.0,0.0,0.0253,0.0168,-0.0913,-0.191,-0.2786,-0.3695,-0.4606,-0.5358,-0.6031,-0.6394,-0.6451,-0.661,0.0,0.0,0.0,0.0,-0.7157,-0.7394,-0.7974,-0.8836,-0.9296,-1.0045,-1.0932,-1.1545,-1.2137,-1.2565,-1.2959,-1.355,-1.4274,-1.4848,-1.5133,-1.5275,-1.5718,-1.6542,-1.7413,-1.7872,-1.8859,-1.9857,-2.0063,-2.0677,-2.1221,-2.14,-2.1388,-2.1463,-2.18,-2.1874,-2.2161,-2.3088,-2.3949,-2.4754,-2.5467,-2.6457,-2.7181,-2.7181,-2.7423,-2.7625,-2.779,-2.9003,-2.9925,-3.0188,-3.2273,-3.3786,-3.4137,-3.4721,-3.527,-3.5773,-3.5817,-3.5949,-3.6182,-3.6335,-3.6478,-3.6602,-3.7208,-3.7667,-3.7977,-3.9278,-4.0062,-4.0345,-4.1175,-4.1575,1.6376,1.5163,1.3818,1.3251,1.2872,1.2565,1.2345,0.0,0.0,0.0,0.0,1.1087,1.1391,1.0645,0.0,0.0,0.0,0.0,0.0,0.0,0.0,0.0,0.0,0.0,0.0,0.0,0.0,0.0,0.0,0.0,0.0,0.0,0.0979,0.049,0.0,-0.0727,-0.19,-0.2696,-0.3412,-0.4057,-0.4463,-0.4756,-0.4777,-0.5334,0.0,0.0,0.0,0.0,-0.6942,-0.7022,-0.7399,-0.7923,-0.8609,-0.915,-0.9654,-1.0392,-1.0828,-1.1084,-1.1312,-1.2026,-1.2946,-1.3785,-1.414,-1.438,-1.5055,-1.5644,-1.6154,-1.7014,-1.7872,-1.8736,-1.9596,-2.0204,-2.0677,-2.121,-2.1336,-2.1336,-2.16,-2.1737,-2.2049,-2.2859,-2.3833,-2.4697,-2.5287,-2.6351,-2.7144,-2.7181,-2.7386,-2.759,-2.7855,-2.8798,-2.9611,-3.0126,-3.1652,-3.3064,-3.4065,-3.4349,-3.4901,-3.5932,-3.6019,-3.6105,-3.6233,-3.6461,-3.6708,-3.7009,-3.7703,-3.8162,-3.8291,-3.9148,-3.9557,-3.9575,-4.0418,-4.0787,1.701,1.6167,1.5251,1.4569,1.4281,1.4129,1.4129,0.0,0.0,0.0,0.0,0.0,1.282,1.1842,0.0,0.0,0.0,0.0,0.0,0.0,0.0,0.0,0.0,0.0,0.0,0.0,0.0,0.0,0.0,0.0,0.0,0.0,0.0,0.102,0.0942,0.0238,-0.105,-0.1977,-0.2581,-0.2734,-0.289,-0.2968,-0.3046,-0.3826,-0.4448,0.0,0.0,0.0,-0.667,-0.6721,-0.671,-0.6863,-0.7912,-0.8259,-0.8257,-0.9331,-0.9706,-0.9742,-1.002,-1.0579,-1.1334,-1.2422,-1.29,-1.323,-1.4198,-1.4501,-1.484,-1.6178,-1.684,-1.7472,-1.9069,-1.9596,-1.9944,-2.0892,-2.1094,-2.1158,-2.1336,-2.1549,-2.1937,-2.2628,-2.3715,-2.4641,-2.5161,-2.6258,-2.7041,-2.7181,-2.7335,-2.7604,-2.7955,-2.8596,-2.9316,-3.0101,-3.0943,-3.2094,-3.3779,-3.4024,-3.4617,-3.5813,-3.618,-3.6385,-3.6468,-3.6708,-3.7087,-3.7523,-3.808,-3.8373,-3.8436,-3.8766,-3.8921,-3.8939,-3.9682,-4.0026,1.8432,1.8017,1.6991,1.4911,1.4361,1.4281,1.4129,0.0,0.0,0.0,0.0,0.0,0.0,1.282,0.0,0.0,0.0,0.0,0.0,0.0,0.0,0.0,0.0,0.0,0.0,0.0,0.0,0.0,0.0,0.0,0.0,0.0,0.0,0.2971,0.2272,0.1728,0.134,-0.0157,-0.1018,-0.1253,-0.1955,-0.2501,-0.2817,-0.2973,-0.3595,0.0,0.0,-0.5005,-0.5754,-0.5925,-0.5943,-0.6016,-0.652,-0.6721,-0.6769,-0.7271,-0.7815,-0.8483,-1.0071,-1.0779,-1.1204,-1.2294,-1.2699,-1.2916,-1.3447,-1.3739,-1.3889,-1.4138,-1.5606,-1.7276,-1.8085,-1.8824,-1.9628,-2.0506,-2.07,-2.0828,-2.1325,-2.1549,-2.1761,-2.1987,-2.3374,-2.4513,-2.4641,-2.6054,-2.7181,-2.7181,-2.7488,-2.779,-2.7955,-2.8682,-2.9416,-3.0053,-3.1228,-3.2302,-3.3028,-3.3775,-3.4306,-3.4588,-3.5758,-3.665,-3.7143,-3.7411,-3.7774,-3.8252,-3.8572,-3.8815,-3.897,-3.9045,-3.9073,-3.9073,-3.9203,-3.9259,1.8834,1.8297,1.7491,1.6228,1.5869,1.5807,0.0,0.0,0.0,0.0,0.0,0.0,0.0,0.0,0.0,0.0,0.0,0.0,0.0,0.0,0.0,0.0,0.0,0.0,0.0,0.0,0.0,0.0,0.0,0.0,0.0,0.0,0.0,0.0,0.3233,0.301,0.2933,0.173,0.0683,-0.0077,-0.0531,-0.0828,-0.1055,-0.145,-0.198,-0.2553,0.0,-0.3591,-0.4135,-0.474,-0.4934,-0.5006,-0.5731,-0.5973,-0.6028,-0.6287,-0.6591,-0.6992,-0.8188,-0.8797,-0.927,-1.0535,-1.1059,-1.1479,-1.2387,-1.2767,-1.2945,-1.3404,-1.463,-1.6064,-1.714,-1.8118,-1.9166,-2.0302,-2.0775,-2.1019,-2.1336,-2.1549,-2.1761,-2.1874,-2.3027,-2.4137,-2.4469,-2.5714,-2.6841,-2.7181,-2.7539,-2.784,-2.7955,-2.8495,-2.9088,-2.9765,-3.0554,-3.1517,-3.2679,-3.3208,-3.3765,-3.4414,-3.5091,-3.5723,-3.6203,-3.6466,-3.688,-3.7371,-3.8072,-3.8505,-3.8663,-3.91,-3.9324,-3.9324,-3.9324,-3.9324,1.9177,1.871,1.8172,1.7872,1.7385,0.0,0.0,0.0,0.0,0.0,0.0,0.0,0.0,0.0,0.0,0.0,0.0,0.0,0.0,0.0,0.0,0.0,0.0,0.0,0.0,0.0,0.0,0.0,0.0,0.0,0.0,0.0,0.0,0.0,0.4205,0.4135,0.4135,0.3249,0.2191,0.1049,0.074,0.0588,0.0589,-0.0075,-0.0598,-0.0954,-0.17,-0.2273,-0.2662,-0.3359,-0.3708,-0.3779,-0.4706,-0.5145,-0.5385,-0.5603,-0.569,-0.5818,-0.6535,-0.699,-0.7447,-0.893,-0.9576,-1.0053,-1.1311,-1.1711,-1.1955,-1.2606,-1.3384,-1.4471,-1.5942,-1.7083,-1.8148,-1.9403,-2.0278,-2.0816,-2.0996,-2.1336,-2.1686,-2.1862,-2.2811,-2.3741,-2.4412,-2.5536,-2.651,-2.7115,-2.764,-2.8005,-2.8069,-2.8414,-2.8966,-2.9745,-3.0107,-3.0907,-3.2579,-3.2798,-3.3242,-3.4199,-3.4515,-3.4853,-3.5256,-3.5602,-3.5987,-3.6399,-3.734,-3.7879,-3.8,-3.8619,-3.892,-3.892,-3.9126,-3.922,2.0009,1.9944,1.9878,1.9736,1.8297,0.0,1.7042,1.6835,0.0,1.6706,0.0,0.0,0.0,0.0,0.0,0.0,0.0,0.0,0.0,0.0,0.0,0.0,0.0,0.0,0.0,0.0,0.0,0.0,0.0,0.0,0.0,0.0,0.0,0.0,0.0,0.5006,0.5006,0.4106,0.326,0.233,0.1343,0.0906,0.0831,0.0605,0.0076,-0.0751,-0.0647,-0.1125,-0.1888,-0.2045,-0.2158,-0.2294,-0.3102,-0.3907,-0.4706,-0.4834,-0.5027,-0.5286,-0.6137,-0.6593,-0.6981,-0.8533,-0.918,-0.9506,-1.0187,-1.0651,-1.0905,-1.0989,-1.1589,-1.2668,-1.4294,-1.5216,-1.6053,-1.6959,-1.8319,-1.9497,-1.9868,-2.073,-2.1526,-2.1862,-2.2677,-2.3598,-2.4513,-2.5591,-2.651,-2.7115,-2.784,-2.8363,-2.8363,-2.8763,-2.9438,-3.041,-3.0616,-3.121,-3.259,-3.2725,-3.2841,-3.3185,-3.4248,-3.4995,-3.5204,-3.5698,-3.6017,-3.6119,-3.6686,-3.7012,-3.7094,-3.715,-3.7169,-3.7207,-3.8019,-3.8394,2.0205,2.0009,1.9944,1.9933,1.9253,0.0,0.0,1.8432,1.8094,1.7755,1.7482,0.0,0.0,0.0,0.0,0.0,0.0,0.0,0.0,0.0,0.0,0.0,0.0,0.0,0.0,0.0,0.0,0.0,0.0,0.0,0.0,0.0,0.0,0.0,0.0,0.6207,0.6207,0.548,0.5035,0.4804,0.3434,0.2591,0.2161,0.2124,0.1595,0.0703,0.0701,0.0416,-0.0068,-0.0674,-0.1275,-0.1944,-0.322,-0.3889,-0.4228,-0.4425,-0.4556,-0.4686,-0.515,-0.5415,-0.5679,-0.6841,-0.7627,-0.8285,-0.9064,-0.9722,-1.0244,-1.0428,-1.0819,-1.1546,-1.3268,-1.4408,-1.5414,-1.6584,-1.7745,-1.8793,-1.9329,-2.0145,-2.088,-2.1336,-2.1865,-2.2809,-2.45,-2.5287,-2.6119,-2.7357,-2.8155,-2.859,-2.859,-2.9136,-2.9777,-3.046,-3.1274,-3.2004,-3.2669,-3.293,-3.3135,-3.3274,-3.358,-3.3948,-3.4375,-3.4595,-3.4884,-3.5273,-3.6013,-3.6467,-3.6573,-3.7083,-3.7308,-3.7327,-3.7627,-3.7737,2.0571,2.0506,2.0613,2.0613,0.0,0.0,2.0118,1.966,1.9131,1.8721,1.8342,0.0,0.0,0.0,0.0,0.0,0.0,0.0,0.0,0.0,0.0,0.0,0.0,0.0,0.0,0.0,0.0,0.0,0.0,0.0,0.0,0.0,0.0,0.0,0.0,0.7297,0.7361,0.6679,0.6448,0.6702,0.559,0.4372,0.3109,0.3096,0.2624,0.1772,0.1722,0.1574,0.1412,0.0739,-0.0067,-0.1073,-0.228,-0.2952,-0.3286,-0.3485,-0.3685,-0.3956,-0.4156,-0.4359,-0.4691,-0.5536,-0.626,-0.692,-0.7692,-0.8474,-0.9134,-0.946,-0.9849,-1.0397,-1.1787,-1.3051,-1.4298,-1.5196,-1.645,-1.7594,-1.807,-1.9145,-2.0198,-2.0797,-2.1269,-2.2274,-2.4587,-2.5149,-2.5901,-2.7745,-2.8527,-2.8919,-2.9104,-2.9645,-3.0276,-3.087,-3.2022,-3.2781,-3.2957,-3.3256,-3.3422,-3.352,-3.3455,-3.3504,-3.3726,-3.3868,-3.416,-3.4593,-3.5339,-3.5799,-3.593,-3.6464,-3.673,-3.6749,-3.6957,-3.7052,2.1313,2.1616,2.2101,2.2101,0.0,0.0,2.125,2.0302,1.9605,1.9605,0.0,1.8371,0.0,0.0,0.0,0.0,0.0,0.0,0.0,0.0,0.0,0.0,0.0,0.0,0.0,0.0,0.0,0.0,0.0,0.0,0.0,0.0,0.0,0.0,0.0,0.0,0.8305,0.7637,0.7495,0.7799,0.7614,0.6151,0.3625,0.3405,0.2931,0.2233,0.2245,0.2221,0.2221,0.2221,0.1547,0.047,0.0134,-0.0671,-0.1609,-0.1811,-0.2417,-0.3226,-0.342,-0.3689,-0.4092,-0.5014,-0.5276,-0.5404,-0.6183,-0.6837,-0.7497,-0.7892,-0.849,-0.9081,-0.9646,-1.1083,-1.2375,-1.2375,-1.4204,-1.5944,-1.6008,-1.7636,-1.9411,-2.0285,-2.0959,-2.2167,-2.4676,-2.519,-2.6034,-2.8176,-2.8935,-2.9454,-2.9968,-3.0326,-3.0868,-3.1809,-3.2813,-3.3452,-3.3605,-3.3605,-3.3671,-3.3807,-3.3993,-3.3891,-3.3422,-3.3842,-3.4136,-3.42,-3.4674,-3.4964,-3.5092,-3.5092,-3.5092,-3.5111,-3.593,-3.6291,2.199,2.1928,0.0,2.2101,0.0,0.0,0.0,2.1049,0.0,0.0,0.0,0.0,0.0,0.0,0.0,0.0,0.0,0.0,0.0,0.0,0.0,0.0,0.0,0.0,0.0,0.0,0.0,0.0,0.0,0.0,0.0,0.0,0.0,0.0,0.0,0.9832,1.0033,0.974,0.9466,0.9232,0.898,0.778,0.5636,0.5393,0.4582,0.3457,0.3496,0.322,0.2688,0.2082,0.161,0.1207,0.0602,0.0134,-0.0201,-0.0736,-0.1072,-0.1408,-0.2213,-0.2616,-0.2817,-0.3149,-0.368,-0.4207,-0.4461,-0.5515,-0.6706,-0.6702,-0.7363,-0.8096,-0.8291,-0.8716,-0.9467,-1.103,-1.2663,-1.406,-1.4872,-1.6177,-1.7451,-1.8534,-1.9396,-2.0626,-2.2963,-2.4142,-2.5433,-2.7419,-2.882,-3.0072,-3.1274,-3.1733,-3.2179,-3.2674,-3.3314,-3.3753,-3.3947,-3.4049,-3.4099,-3.4074,-3.4227,-3.4274,-3.4173,-3.4439,-3.4694,-3.4907,-3.5035,-3.5157,-3.5239,-3.5245,-3.5229,-3.5248,-3.5444,-3.5551,2.2774,2.2725,0.0,2.2919,2.2919,2.2798,2.2543,0.0,0.0,0.0,0.0,0.0,0.0,0.0,0.0,0.0,0.0,0.0,0.0,0.0,0.0,0.0,0.0,0.0,0.0,0.0,0.0,0.0,0.0,0.0,0.0,0.0,0.0,0.0,1.1202,1.1195,1.1424,1.1043,1.0688,1.0319,1.0095,0.9205,0.772,0.6984,0.6019,0.4935,0.4677,0.4281,0.3818,0.2882,0.248,0.2414,0.2007,0.1671,0.1403,0.1003,0.0602,0.0201,-0.0804,-0.1206,-0.1407,-0.1812,-0.2281,-0.2678,-0.2741,-0.3533,-0.4584,-0.4854,-0.5577,-0.624,-0.6375,-0.6567,-0.7339,-0.9742,-1.0812,-1.1545,-1.2547,-1.3434,-1.4894,-1.747,-1.8622,-2.0348,-2.4034,-2.5256,-2.6304,-2.8146,-2.935,-3.0352,-3.1198,-3.1769,-3.2126,-3.2319,-3.282,-3.3194,-3.3336,-3.3418,-3.3462,-3.344,-3.3956,-3.4244,-3.4223,-3.4623,-3.4926,-3.5119,-3.5223,-3.53,-3.534,-3.5335,-3.5339,-3.5339,-3.5273,-3.5292,2.3551,2.3767,2.4112,2.4112,2.4112,0.0,2.3339,2.2616,2.1896,2.1116,0.0,0.0,0.0,0.0,0.0,0.0,0.0,0.0,0.0,0.0,0.0,0.0,0.0,0.0,0.0,0.0,0.0,0.0,0.0,0.0,0.0,0.0,0.0,0.0,1.2623,1.2351,1.2586,1.1921,1.1533,0.0,1.1069,1.0522,0.9735,0.8317,0.7274,0.651,0.5734,0.5474,0.5342,0.442,0.4023,0.3956,0.3889,0.3553,0.308,0.3013,0.2474,0.1671,0.0736,0.0335,0.0,-0.0806,-0.1008,-0.0941,-0.1008,-0.1274,-0.1671,-0.2671,-0.3332,-0.3857,-0.4196,-0.4653,-0.5636,-0.814,-0.8623,-0.8764,-0.9415,-1.0024,-1.1719,-1.6191,-1.7924,-2.0433,-2.5881,-2.719,-2.8049,-2.9765,-3.0258,-3.0417,-3.0445,-3.0893,-3.1256,-3.128,-3.1784,-3.2127,-3.2222,-3.2241,-3.2279,-3.2316,-3.3299,-3.3839,-3.3723,-3.4522,-3.498,-3.5043,-3.5296,-3.5416,-3.5432,-3.5416,-3.5407,-3.5427,-3.5364,-3.5402,2.4176,2.4176,0.0,0.0,2.4112,2.4054,2.3923,2.3734,2.3027,0.0,0.0,0.0,0.0,0.0,0.0,0.0,0.0,0.0,0.0,0.0,0.0,0.0,0.0,0.0,0.0,0.0,0.0,0.0,0.0,0.0,0.0,0.0,0.0,1.4579,1.3982,1.3747,1.3943,1.3457,1.3041,0.0,1.2241,1.1732,1.1045,0.959,0.8398,0.7372,0.6789,0.6527,0.6531,0.5738,0.5477,0.5411,0.4824,0.4625,0.455,0.3949,0.3613,0.3278,0.2009,0.1408,0.1139,0.0537,0.0269,0.0202,0.0605,0.0134,-0.0601,-0.087,-0.1468,-0.2197,-0.2737,-0.2739,-0.2937,-0.3982,-0.5212,-0.6238,-0.6724,-0.7213,-0.797,-0.9436,-1.3753,-1.7664,-1.9292,-2.3797,-2.7844,-2.9866,-3.0387,-3.0787,-3.1399,-3.1515,-3.1634,-3.1953,-3.2089,-3.226,-3.2421,-3.2542,-3.2542,-3.2457,-3.2843,-3.3077,-3.3103,-3.461,-3.5464,-3.5477,-3.5521,-3.5581,-3.5639,-3.5585,-3.5581,-3.5639,-3.5566,-3.5643,2.4593,0.0,0.0,2.4099,0.0,2.4112,2.4112,2.4112,2.3677,0.0,0.0,0.0,0.0,0.0,0.0,0.0,0.0,0.0,0.0,0.0,0.0,0.0,0.0,0.0,0.0,0.0,0.0,0.0,0.0,0.0,0.0,1.6076,1.5864,1.6115,1.5592,1.5356,1.548,1.4755,1.419,1.376,1.3332,1.2783,1.2074,1.0528,0.946,0.8689,0.8156,0.7892,0.7827,0.7177,0.6915,0.685,0.6071,0.5877,0.5873,0.515,0.4885,0.4749,0.3544,0.3209,0.3141,0.2144,0.1878,0.1945,0.1947,0.1676,0.1338,0.107,0.0468,-0.0134,-0.0401,-0.0536,-0.0602,-0.0735,-0.2261,-0.3779,-0.4287,-0.4412,-0.5111,-0.7384,-1.2443,-1.7047,-1.9383,-2.4717,-2.9008,-2.9961,-3.0239,-3.0483,-3.0881,-3.0954,-3.1056,-3.1274,-3.1393,-3.1473,-3.1584,-3.1623,-3.1616,-3.1558,-3.205,-3.237,-3.2366,-3.3741,-3.4473,-3.4449,-3.4865,-3.5085,-3.5132,-3.5516,-3.5702,-3.5702,-3.5657,-3.5745,2.4778,0.0,2.4305,2.4216,2.4171,0.0,2.4157,2.4099,2.3942,0.0,0.0,0.0,0.0,0.0,0.0,0.0,0.0,0.0,0.0,0.0,0.0,0.0,0.0,0.0,0.0,0.0,0.0,0.0,0.0,0.0,1.8131,1.7488,1.7312,1.7599,1.7079,1.6733,1.6733,1.5804,1.5141,1.4811,1.4251,1.3625,1.2887,1.1593,1.0674,1.0168,0.957,0.9366,0.9302,0.8538,0.8215,0.8151,0.7442,0.7116,0.712,0.6412,0.6214,0.6083,0.5077,0.5005,0.5067,0.3742,0.348,0.3685,0.3284,0.3288,0.3357,0.2811,0.2342,0.1942,0.1877,0.1474,0.1207,0.1747,0.0335,-0.1272,-0.187,-0.1741,-0.254,-0.6009,-1.1561,-1.7416,-2.2943,-2.7533,-3.0364,-3.0138,-3.0126,-3.0132,-3.0069,-3.0201,-3.0321,-3.0327,-3.0479,-3.0591,-3.0591,-3.0558,-3.053,-3.052,-3.1261,-3.1668,-3.1623,-3.2433,-3.2849,-3.2804,-3.3783,-3.4302,-3.4308,-3.5012,-3.5422,-3.5508,-3.5502,-3.565,2.4835,0.0,2.4563,0.0,2.4505,2.4505,0.0,0.0,0.0,0.0,0.0,0.0,0.0,0.0,0.0,0.0,0.0,0.0,0.0,0.0,0.0,0.0,0.0,0.0,0.0,0.0,0.0,0.0,0.0,0.0,1.9346,1.8696,1.8305,1.8365,1.7677,1.7267,1.7267,1.6309,1.5771,1.5707,1.4541,1.3795,1.3416,1.307,1.2458,1.164,1.1017,1.0822,1.0892,0.9621,0.9116,0.9052,0.8339,0.8151,0.8231,0.7521,0.7391,0.7316,0.6133,0.58,0.5858,0.5193,0.4797,0.4671,0.4875,0.4683,0.4356,0.3882,0.368,0.3411,0.288,0.248,0.2348,0.2889,0.2552,0.1811,0.0939,0.0471,0.0134,-0.0131,-0.8044,-1.7864,-2.7799,-3.0105,-3.0557,-3.0528,-3.0492,-3.0423,-3.0362,-3.0374,-3.0412,-3.0482,-3.0496,-3.0529,-3.0595,-3.0587,-3.0583,-3.0581,-3.0753,-3.0852,-3.0852,-3.1099,-3.1223,-3.12,-3.2697,-3.3497,-3.3544,-3.3614,-3.4014,-3.4743,-3.4746,-3.5152,2.4835,2.4778,2.4677,0.0,2.462,2.4563,2.4492,0.0,0.0,0.0,0.0,0.0,0.0,0.0,0.0,0.0,0.0,0.0,0.0,0.0,0.0,0.0,0.0,0.0,0.0,0.0,0.0,0.0,0.0,2.0934,2.0484,2.015,1.9759,1.9396,1.8767,1.8556,1.8757,1.7476,1.6663,1.6337,1.5781,1.5255,1.4845,1.4805,1.3897,1.2381,1.2197,1.2197,1.2205,1.119,1.0815,1.069,0.9621,0.9308,0.9442,0.8731,0.8538,0.8597,0.7757,0.7558,0.7553,0.6776,0.6453,0.6449,0.6449,0.6063,0.5609,0.5602,0.514,0.4544,0.4018,0.3754,0.3623,0.3627,0.3491,0.3088,0.2418,0.1747,-0.0512,-0.6556,-1.391,-2.1563,-2.9331,-3.0664,-3.0671,-3.0717,-3.0644,-3.0595,-3.0564,-3.0602,-3.0649,-3.0659,-3.0661,-3.0682,-3.0711,-3.0709,-3.0709,-3.0701,-3.0693,-3.0694,-3.0699,-3.0781,-3.0832,-3.0796,-3.2004,-3.2651,-3.2671,-3.3138,-3.3534,-3.3862,-3.3867,-3.4347,0.0,0.0,2.4835,2.4734,2.4677,2.4677,0.0,0.0,0.0,0.0,0.0,0.0,0.0,0.0,0.0,0.0,0.0,0.0,0.0,0.0,0.0,0.0,0.0,0.0,0.0,0.0,0.0,0.0,0.0,2.2163,2.1502,2.1376,2.1071,2.0582,2.0042,1.9846,1.9921,1.8518,1.7385,1.6687,1.6687,1.6528,1.6151,1.6151,1.5313,1.3802,1.3416,1.3243,1.3243,1.2565,1.232,1.2197,1.1017,1.0703,1.0766,0.9875,0.9685,0.9806,0.9244,0.9122,0.9116,0.835,0.8027,0.8027,0.7822,0.7307,0.6728,0.6994,0.6334,0.5543,0.5286,0.502,0.4758,0.4558,0.4356,0.3889,0.2954,0.1172,-0.3114,-1.2837,-1.9004,-2.4353,-2.9767,-3.0704,-3.0734,-3.0789,-3.0764,-3.0722,-3.0725,-3.0769,-3.0804,-3.079,-3.0819,-3.0825,-3.0796,-3.081,-3.0807,-3.0796,-3.0741,-3.0719,-3.0718,-3.076,-3.0771,-3.0735,-3.1404,-3.1732,-3.1749,-3.2409,-3.2787,-3.294,-3.2947,-3.34,0.0,2.5005,0.0,2.5005,2.5005,0.0,0.0,0.0,0.0,0.0,0.0,0.0,0.0,0.0,0.0,0.0,0.0,0.0,0.0,0.0,0.0,0.0,0.0,0.0,0.0,0.0,0.0,0.0,0.0,2.3207,2.2531,2.2113,2.1815,2.1815,2.1336,2.0865,2.0396,1.8885,1.7647,1.6687,1.6687,1.681,1.6955,1.6955,1.6933,1.6845,1.4836,1.4025,1.4094,1.3425,1.313,1.3061,1.2451,1.2266,1.2258,1.0892,1.064,1.0822,1.0142,0.9952,0.9952,0.9888,0.9442,0.8924,0.8924,0.8221,0.7456,0.7456,0.6937,0.6416,0.6732,0.6079,0.5491,0.5881,0.5484,0.4483,0.2547,-0.2221,-0.786,-1.3582,-1.8918,-2.4235,-2.9757,-3.0755,-3.0798,-3.0804,-3.0802,-3.0799,-3.0799,-3.0793,-3.0794,-3.081,-3.0855,-3.0878,-3.0813,-3.0801,-3.0799,-3.0801,-3.0747,-3.0735,-3.0789,-3.0794,-3.0799,-3.0786,-3.0778,-3.0778,-3.0767,-3.0825,-3.1227,-3.1981,-3.1961,-3.2411,0.0,0.0,0.0,2.5005,2.5005,2.5005,0.0,0.0,0.0,0.0,0.0,0.0,0.0,0.0,0.0,0.0,0.0,0.0,0.0,0.0,0.0,0.0,0.0,0.0,0.0,0.0,0.0,0.0,0.0,0.0,2.3267,2.3088,2.2786,2.2359,2.1789,2.0972,1.9927,1.9365,1.8531,1.7475,1.7271,1.7025,1.6841,1.6841,1.6662,1.6378,1.5615,1.5467,1.568,1.4579,1.4213,1.4255,1.3657,1.3252,1.2948,1.2451,1.2274,1.222,1.1663,1.1593,1.1764,1.1392,1.0822,1.0319,1.0465,0.9703,0.8742,0.8425,0.7972,0.7456,0.699,0.6736,0.6478,0.6145,0.5418,0.4422,0.3284,-0.1605,-0.6401,-0.8837,-1.6456,-2.3135,-2.5094,-2.8444,-3.0847,-3.0819,-3.081,-3.0804,-3.0804,-3.0794,-3.0806,-3.0796,-3.0859,-3.0898,-3.0879,-3.0817,-3.079,-3.081,-3.0732,-3.0706,-3.0722,-3.0736,-3.0704,-3.0614,-3.0625,-3.0662,-3.0697,-3.0665,-3.0759,-3.1002,-3.1002,-3.1458,2.5005,0.0,0.0,0.0,0.0,2.5005,0.0,0.0,0.0,0.0,0.0,0.0,0.0,0.0,0.0,0.0,0.0,0.0,0.0,0.0,0.0,0.0,0.0,0.0,0.0,0.0,0.0,0.0,0.0,0.0,2.4105,2.393,2.3487,2.2633,2.2039,2.1113,1.9798,1.9661,1.9107,1.8154,1.7869,1.7581,1.7278,1.7156,1.6898,1.6577,1.6378,1.6247,1.6098,1.5253,1.4857,1.4734,1.4096,1.3758,1.3535,1.3293,1.3125,1.2907,1.2603,1.2484,1.2416,1.2095,1.1616,1.1202,1.1156,1.0479,0.955,0.8867,0.8441,0.8022,0.7457,0.727,0.7064,0.6404,0.5352,0.4492,0.402,-0.0888,-0.5953,-0.8546,-1.6322,-2.3086,-2.4929,-2.8391,-3.0878,-3.0849,-3.0823,-3.0823,-3.0792,-3.0797,-3.08,-3.0799,-3.0835,-3.087,-3.0821,-3.0785,-3.0759,-3.073,-3.0678,-3.0664,-3.0676,-3.0622,-3.0574,-3.0492,-3.0492,-3.0511,-3.0598,-3.0546,-3.0505,-3.0469,-3.046,-3.0944,0.0,0.0,0.0,0.0,0.0,0.0,0.0,0.0,0.0,0.0,0.0,0.0,0.0,0.0,0.0,0.0,0.0,0.0,0.0,0.0,0.0,0.0,0.0,0.0,0.0,0.0,0.0,0.0,0.0,2.5619,2.5061,2.4593,2.3843,2.2731,2.2249,2.1347,2.0093,1.9788,1.93,1.8682,1.8452,1.8372,1.8372,1.7974,1.7809,1.7761,1.7194,1.6332,1.5318,1.535,1.5018,1.4513,1.3951,1.3834,1.3941,1.3286,1.3014,1.2922,1.2922,1.2491,1.1888,1.2031,1.1807,1.1487,1.1076,1.0558,0.9921,0.8832,0.8316,0.8147,0.8209,0.7805,0.7246,0.6597,0.5543,0.4688,0.4749,-0.0296,-0.679,-1.3029,-1.8574,-2.402,-2.9505,-3.0701,-3.0898,-3.0895,-3.0907,-3.0868,-3.0801,-3.0799,-3.0793,-3.0801,-3.0799,-3.0762,-3.0706,-3.0697,-3.0671,-3.0598,-3.0598,-3.0588,-3.0595,-3.0462,-3.0423,-3.0492,-3.0302,-3.026,-3.0398,-3.0398,-3.0398,-3.0398,-3.0394,-3.0871,2.5005,0.0,0.0,0.0,0.0,0.0,0.0,0.0,0.0,0.0,0.0,0.0,0.0,0.0,0.0,0.0,0.0,0.0,0.0,0.0,0.0,0.0,0.0,0.0,0.0,0.0,0.0,0.0,2.615,2.5839,2.5674,2.5355,2.4599,2.3379,2.3373,2.2383,2.0288,1.9917,1.9233,1.8192,1.7885,1.7787,1.7829,1.7771,1.7728,1.7771,1.7298,1.6791,1.6245,1.6022,1.5924,1.5862,1.58,1.5339,1.4684,1.459,1.4178,1.3683,1.3683,1.3575,1.3476,1.3521,1.2977,1.2261,1.1752,1.1302,1.0672,0.9537,0.9078,0.8847,0.8577,0.8194,0.7775,0.7219,0.6662,0.6005,0.5011,0.3168,-0.0179,-0.6399,-1.253,-1.8373,-2.3821,-2.8172,-3.0898,-3.0895,-3.0859,-3.0817,-3.0798,-3.0806,-3.0804,-3.0802,-3.0701,-3.0661,-3.0709,-3.0614,-3.0567,-3.0597,-3.0419,-3.0333,-3.0386,-3.0253,-3.0171,-3.0131,-3.0128,-3.0152,-3.0171,-3.0266,-3.0337,-3.0337,-3.0336,-3.0407,0.0,0.0,0.0,0.0,0.0,0.0,2.5005,2.5131,0.0,0.0,0.0,0.0,0.0,0.0,0.0,0.0,0.0,0.0,0.0,0.0,0.0,0.0,0.0,0.0,0.0,0.0,0.0,2.7246,2.6901,2.6549,2.615,2.6002,2.5278,2.3826,2.3923,2.2943,2.0723,2.037,1.9712,1.8749,1.8178,1.7921,1.7961,1.7828,1.7787,1.7868,1.7639,1.7407,1.7214,1.688,1.6444,1.5982,1.6089,1.5742,1.5246,1.5099,1.4655,1.4215,1.4124,1.3993,1.3901,1.4094,1.3625,1.2893,1.2422,1.1786,1.098,0.9833,0.9316,0.9055,0.8816,0.8535,0.8172,0.7546,0.7066,0.6535,0.5613,0.4749,0.169,-0.6755,-1.1652,-1.6858,-2.4587,-2.8695,-3.0898,-3.0897,-3.0834,-3.0794,-3.0801,-3.0781,-3.075,-3.0769,-3.0665,-3.06,-3.0613,-3.0518,-3.0462,-3.0462,-3.0364,-3.0279,-3.0267,-3.0155,-3.0071,-2.9958,-2.9969,-2.9988,-3.0022,-3.0157,-3.0194,-3.0133,-3.0128,-3.0037,0.0,0.0,0.0,0.0,0.0,0.0,2.5061,2.5061,2.5174,0.0,0.0,0.0,0.0,0.0,0.0,0.0,0.0,0.0,0.0,0.0,0.0,0.0,0.0,0.0,0.0,2.8794,2.8573,2.8012,2.7963,2.75,2.6602,2.6602,2.5897,2.434,2.424,2.3396,2.1638,2.1183,2.0606,1.9915,1.9116,1.8687,1.8577,1.8147,1.8028,1.8147,1.8068,1.8094,1.8145,1.7733,1.6854,1.5676,1.5599,1.5644,1.572,1.5254,1.4937,1.4641,1.4479,1.4118,1.3847,1.4165,1.3931,1.3409,1.2967,1.2178,1.1141,0.9997,0.9372,0.9062,0.9039,0.8912,0.8493,0.769,0.7095,0.6715,0.6338,0.508,0.0669,-1.0775,-1.3762,-1.7868,-2.8825,-3.0806,-3.0898,-3.0898,-3.0843,-3.0794,-3.0786,-3.074,-3.0695,-3.0691,-3.0618,-3.0552,-3.0481,-3.0433,-3.0367,-3.0273,-3.0311,-3.0286,-3.0142,-3.0075,-2.9965,-2.9864,-2.9805,-2.9806,-2.9855,-2.9984,-2.9996,-2.988,-2.9867,-2.9748,0.0,0.0,0.0,0.0,0.0,0.0,2.5313,2.5578,2.5893,0.0,0.0,0.0,0.0,0.0,0.0,0.0,0.0,0.0,0.0,0.0,0.0,0.0,0.0,0.0,0.0,2.8794,2.8747,2.8636,2.8174,2.765,2.7027,2.7195,2.6956,2.612,2.5807,2.4927,2.3501,2.2866,2.1949,2.076,2.0362,1.9885,1.9295,1.8974,1.8898,1.9026,1.8669,1.8563,1.8688,1.8291,1.7921,1.7518,1.6909,1.671,1.6685,1.6441,1.6107,1.5712,1.572,1.5353,1.4915,1.496,1.4606,1.3967,1.3208,1.2812,1.2316,1.0712,0.9955,0.9602,0.9487,0.9194,0.8876,0.8531,0.7928,0.7321,0.6828,0.5408,0.0966,-1.0155,-1.3435,-1.7868,-2.8825,-3.0806,-3.0876,-3.082,-3.0817,-3.079,-3.0721,-3.0716,-3.0671,-3.0637,-3.051,-3.0442,-3.0417,-3.0348,-3.0273,-3.0152,-3.006,-2.9918,-2.9715,-2.9608,-2.9551,-2.9589,-2.957,-2.9551,-2.957,-2.9716,-2.9751,-2.9734,-2.9644,-2.9476,0.0,0.0,0.0,2.5005,0.0,0.0,0.0,2.5592,2.5853,2.6404,0.0,0.0,0.0,0.0,0.0,0.0,0.0,0.0,0.0,0.0,0.0,0.0,0.0,0.0,0.0,2.8967,2.8967,2.8967,2.8685,2.8304,2.7834,2.7913,2.7625,2.6814,2.6591,2.5864,2.4511,2.3921,2.3145,2.2126,2.1758,2.1216,2.0538,2.0212,1.9995,1.9909,1.9347,1.9369,1.9773,1.902,1.8855,1.9037,1.812,1.7666,1.7449,1.7118,1.674,1.6411,1.6343,1.6083,1.5832,1.5776,1.5365,1.4824,1.4318,1.3663,1.289,1.1796,1.0965,1.0368,1.0166,0.9695,0.918,0.8603,0.8034,0.7438,0.6962,0.5817,0.1503,-0.9905,-1.3044,-1.7452,-2.8803,-3.0825,-3.087,-3.0801,-3.0769,-3.073,-3.0697,-3.0634,-3.0585,-3.0539,-3.0432,-3.0344,-3.0348,-3.0207,-3.006,-3.0011,-2.9867,-2.9732,-2.957,-2.9418,-2.9256,-2.9086,-2.9111,-2.9135,-2.9196,-2.9193,-2.9254,-2.9357,-2.9275,-2.9126,0.0,0.0,0.0,0.0,0.0,2.5118,0.0,0.0,0.0,2.6312,0.0,0.0,0.0,0.0,0.0,0.0,0.0,0.0,0.0,0.0,0.0,0.0,0.0,0.0,0.0,2.9075,2.9075,2.9075,2.9075,2.8982,2.8622,2.8622,2.8231,2.7408,2.727,2.6627,2.5418,2.4921,2.4269,2.3476,2.3089,2.2535,2.189,2.1502,2.1131,2.0785,2.0228,2.0308,2.0728,1.9803,1.9767,2.0208,1.8983,1.8383,1.8173,1.776,1.7422,1.7188,1.6967,1.6824,1.6765,1.657,1.6126,1.5632,1.5555,1.4527,1.3301,1.2994,1.2141,1.1233,1.083,1.0263,0.9582,0.8707,0.8176,0.766,0.7082,0.6145,0.2239,-0.8454,-1.2148,-1.7187,-2.8793,-3.0866,-3.0864,-3.0801,-3.0732,-3.0713,-3.0681,-3.055,-3.0472,-3.0472,-3.0356,-3.0279,-3.0222,-3.0026,-2.9869,-2.9815,-2.966,-2.9495,-2.9359,-2.9219,-2.8986,-2.8676,-2.8652,-2.87,-2.8795,-2.8658,-2.8725,-2.8971,-2.8938,-2.8839,0.0,0.0,0.0,0.0,2.5005,0.0,0.0,0.0,2.6002,2.6606,0.0,0.0,0.0,0.0,0.0,0.0,0.0,0.0,0.0,0.0,0.0,0.0,0.0,0.0,0.0,0.0,2.9075,2.9075,2.9075,2.9075,2.9029,2.9029,2.8997,2.8872,2.8275,2.7598,2.6859,2.6329,2.5401,2.41,2.3968,2.357,2.2933,2.2582,2.2117,2.1579,2.1475,2.123,2.0794,2.0646,2.0662,2.0579,1.9169,1.8769,1.9058,1.8817,1.8688,1.8612,1.8369,1.8054,1.7787,1.7393,1.6612,1.5864,1.6305,1.5295,1.3996,1.4,1.3307,1.2395,1.1451,1.0871,1.035,0.9745,0.9118,0.8473,0.785,0.6454,0.3312,-0.3568,-1.0004,-1.7786,-2.8885,-3.0855,-3.087,-3.0737,-3.069,-3.0684,-3.0615,-3.0501,-3.0422,-3.0409,-3.0285,-3.0128,-2.9969,-2.9915,-2.9765,-2.9474,-2.9219,-2.899,-2.88,-2.8658,-2.856,-2.8511,-2.8453,-2.8428,-2.8471,-2.8326,-2.8492,-2.891,-2.8737,-2.8637,0.0,0.0,0.0,0.0,0.0,0.0,0.0,0.0,2.6056,0.0,0.0,0.0,0.0,0.0,0.0,0.0,0.0,0.0,0.0,0.0,0.0,0.0,0.0,0.0,0.0,0.0,0.0,0.0,0.0,2.9705,2.9515,2.9528,2.9572,2.9499,2.9138,2.8674,2.8116,2.7542,2.6772,2.5821,2.5473,2.4938,2.4253,2.3922,2.3484,2.3028,2.2569,2.2529,2.2671,2.1823,2.1631,2.173,2.0506,1.9974,1.9834,1.9413,1.9398,1.9534,1.902,1.8855,1.8826,1.8133,1.7558,1.7162,1.7216,1.6579,1.578,1.5616,1.4778,1.3814,1.289,1.2043,1.1325,1.0641,0.9752,0.8826,0.8164,0.6782,0.2789,-0.6872,-1.1461,-1.7401,-2.882,-3.0819,-3.0817,-3.0711,-3.0598,-3.0505,-3.0432,-3.0271,-3.0131,-3.0047,-2.9996,-2.9886,-2.968,-2.9588,-2.9476,-2.9353,-2.9016,-2.8718,-2.8478,-2.8272,-2.8075,-2.7926,-2.7926,-2.7954,-2.8065,-2.8073,-2.8146,-2.8273,-2.8414,-2.8414,2.4664,0.0,0.0,0.0,0.0,0.0,0.0,0.0,0.0,0.0,0.0,0.0,0.0,0.0,0.0,0.0,0.0,0.0,0.0,0.0,0.0,0.0,0.0,0.0,0.0,0.0,0.0,0.0,3.0097,3.0208,3.0081,3.0091,3.0133,3.0038,2.9837,2.9513,2.905,2.8648,2.8042,2.721,2.6878,2.6315,2.5512,2.534,2.4927,2.4397,2.3914,2.3951,2.4269,2.3242,2.3011,2.324,2.2429,2.1951,2.1601,2.0438,2.0196,2.032,1.9758,1.9636,1.9662,1.8939,1.8584,1.8416,1.8277,1.7827,1.7313,1.7053,1.617,1.5149,1.4182,1.3233,1.2308,1.1539,1.0601,0.9591,0.8567,0.7315,0.3168,-0.7816,-1.1739,-1.6544,-2.6773,-2.979,-3.0769,-3.069,-3.053,-3.0381,-3.0314,-3.0103,-2.9915,-2.9817,-2.9751,-2.9626,-2.9418,-2.9316,-2.9191,-2.8997,-2.8529,-2.8139,-2.7872,-2.7689,-2.7517,-2.7338,-2.7509,-2.763,-2.7672,-2.7795,-2.7777,-2.7642,-2.8063,-2.8128,0.0,0.0,0.0,2.4948,0.0,0.0,0.0,0.0,2.6056,0.0,0.0,0.0,0.0,0.0,0.0,0.0,0.0,0.0,0.0,0.0,0.0,0.0,0.0,0.0,0.0,0.0,0.0,3.0251,3.0293,3.0402,3.0657,3.073,3.073,3.068,3.0402,3.0096,2.9688,2.9605,2.8963,2.7774,2.793,2.7522,2.6572,2.6808,2.6367,2.5462,2.5703,2.5493,2.4977,2.4913,2.4982,2.5087,2.4787,2.4871,2.4833,2.2228,2.126,2.1181,2.0797,2.0438,2.0138,1.9858,1.9546,1.9301,1.9558,1.8893,1.8078,1.814,1.7315,1.6176,1.5138,1.4218,1.3369,1.257,1.1968,1.1088,0.9176,0.8263,0.5376,-0.2725,-0.9147,-1.5308,-2.1666,-2.7229,-3.0763,-3.061,-3.049,-3.0381,-3.0314,-3.0066,-2.9888,-2.9801,-2.9625,-2.9398,-2.9129,-2.9169,-2.8906,-2.8166,-2.7537,-2.7031,-2.6741,-2.6825,-2.6856,-2.6937,-2.7369,-2.7526,-2.7404,-2.7434,-2.7355,-2.7244,-2.7642,-2.7695,0.0,0.0,2.4677,2.4835,0.0,0.0,0.0,0.0,0.0,0.0,0.0,0.0,0.0,0.0,0.0,0.0,0.0,0.0,0.0,0.0,0.0,0.0,0.0,0.0,0.0,0.0,0.0,3.0502,3.101,3.13,0.0,3.13,3.13,3.124,3.0948,3.083,3.0904,3.037,2.9915,2.9515,2.8562,2.7913,2.7589,2.7195,2.6804,2.65,2.6597,2.6585,2.6489,2.6004,2.5991,2.6189,2.5489,2.5438,2.5554,2.3735,2.3177,2.3117,2.2053,2.1397,2.0959,2.0749,2.0603,2.0555,2.052,2.0221,1.9882,1.9409,1.8994,1.8379,1.6977,1.6418,1.5806,1.4323,1.36,1.2688,1.0632,0.8976,0.4546,-0.66,-1.1165,-1.6361,-2.6225,-2.9186,-3.0266,-3.0443,-3.0203,-2.9954,-2.9855,-2.9569,-2.9237,-2.892,-2.8851,-2.8664,-2.828,-2.8067,-2.784,-2.7648,-2.7009,-2.6622,-2.664,-2.6437,-2.635,-2.6368,-2.6573,-2.6707,-2.6791,-2.6873,-2.6875,-2.6792,-2.694,-2.7036,2.4567,2.4593,0.0,2.4778,2.4892,0.0,2.5633,0.0,0.0,0.0,0.0,0.0,0.0,0.0,0.0,0.0,0.0,0.0,0.0,0.0,0.0,0.0,0.0,0.0,0.0,0.0,3.0804,3.0925,3.1545,3.1875,0.0,0.0,3.1875,3.1819,3.1524,3.1524,3.1819,3.1227,3.0848,3.0663,2.9661,2.9023,2.8647,2.7989,2.7627,2.7513,2.7414,2.7461,2.7601,2.7254,2.7255,2.7497,2.6925,2.688,2.6885,2.516,2.4596,2.4593,2.3744,2.3209,2.2856,2.235,2.222,2.2141,2.1519,2.1238,2.1083,2.049,2.0156,1.9712,1.8622,1.8159,1.7636,1.6241,1.5384,1.4374,1.2582,0.8658,0.2317,-0.8518,-1.3588,-1.9209,-2.8981,-3.0163,-2.9848,-3.0145,-2.9779,-2.942,-2.9287,-2.9055,-2.8724,-2.828,-2.8121,-2.7868,-2.7412,-2.7072,-2.6897,-2.696,-2.6387,-2.6075,-2.6179,-2.5875,-2.584,-2.6085,-2.5917,-2.5994,-2.631,-2.6134,-2.5999,-2.5941,-2.6167,-2.636]}]]